Wetterdaten: Freitag, 26.10.2018
Datum Zeit Temp. A. Pool Temp. Temp. 5cm Feuchte A. Luftdruck Regen Wind Richtung Richtung Sonnenschein ET UV Solar Taupunkt Windchill Windben Empfang
26.10.2018 00:00 11,1 C 11,1 C 10,6 C 84 % 1015,4 hPa 0,0 l/m 11,6 km/h (2 Bft) W-SW 257 0 min 0,000 mm 0,0 UV-I 0 W/m 8,5 C 8,0 C 16,1 km/h (3 Bft) 94,74 %
26.10.2018 00:02 11,1 C 11,1 C 10,6 C 84 % 1015,4 hPa 0,0 l/m 11,5 km/h (2 Bft) W-SW 255 0 min 0,000 mm 0,0 UV-I 0 W/m 8,5 C 8,0 C 14,5 km/h (3 Bft) 97,44 %
26.10.2018 00:04 11,1 C 11,1 C 10,6 C 84 % 1015,4 hPa 0,0 l/m 13,2 km/h (3 Bft) W-SW 254 0 min 0,000 mm 0,0 UV-I 0 W/m 8,5 C 7,2 C 19,3 km/h (3 Bft) 97,73 %
26.10.2018 00:06 11,1 C 11,1 C 10,6 C 84 % 1015,5 hPa 0,0 l/m 12,2 km/h (2 Bft) W-SW 242 0 min 0,000 mm 0,0 UV-I 0 W/m 8,5 C 7,7 C 17,7 km/h (3 Bft) 97,73 %
26.10.2018 00:08 11,1 C 11,1 C 10,6 C 84 % 1015,5 hPa 0,0 l/m 10,1 km/h (2 Bft) SW 219 0 min 0,000 mm 0,0 UV-I 0 W/m 8,5 C 8,8 C 16,1 km/h (3 Bft) 98,11 %
26.10.2018 00:10 11,1 C 11,1 C 10,6 C 84 % 1015,4 hPa 0,0 l/m 11,1 km/h (2 Bft) W-SW 238 0 min 0,000 mm 0,0 UV-I 0 W/m 8,5 C 8,2 C 16,1 km/h (3 Bft) 95,74 %
26.10.2018 00:12 11,1 C 11,1 C 10,6 C 84 % 1015,5 hPa 0,0 l/m 12,6 km/h (3 Bft) SW 225 0 min 0,000 mm 0,0 UV-I 0 W/m 8,5 C 7,5 C 19,3 km/h (3 Bft) 94,00 %
26.10.2018 00:14 11,1 C 11,1 C 10,6 C 84 % 1015,5 hPa 0,0 l/m 12,5 km/h (3 Bft) W-SW 247 0 min 0,000 mm 0,0 UV-I 0 W/m 8,5 C 7,5 C 17,7 km/h (3 Bft) 94,00 %
26.10.2018 00:16 11,1 C 11,1 C 11,1 C 84 % 1015,5 hPa 0,0 l/m 10,4 km/h (2 Bft) SW 233 0 min 0,000 mm 0,0 UV-I 0 W/m 8,5 C 8,6 C 16,1 km/h (3 Bft) 95,12 %
26.10.2018 00:18 11,2 C 11,1 C 11,1 C 84 % 1015,5 hPa 0,0 l/m 10,3 km/h (2 Bft) SW 229 0 min 0,000 mm 0,0 UV-I 0 W/m 8,6 C 8,8 C 16,1 km/h (3 Bft) 98,00 %
26.10.2018 00:20 11,1 C 11,1 C 10,6 C 84 % 1015,5 hPa 0,0 l/m 10,4 km/h (2 Bft) W 261 0 min 0,000 mm 0,0 UV-I 0 W/m 8,5 C 8,6 C 14,5 km/h (3 Bft) 96,00 %
26.10.2018 00:22 11,1 C 11,1 C 10,6 C 84 % 1015,5 hPa 0,0 l/m 12,1 km/h (2 Bft) W-SW 239 0 min 0,000 mm 0,0 UV-I 0 W/m 8,5 C 7,7 C 17,7 km/h (3 Bft) 97,14 %
26.10.2018 00:24 11,1 C 11,1 C 10,6 C 84 % 1015,5 hPa 0,0 l/m 9,0 km/h (2 Bft) W-SW 244 0 min 0,000 mm 0,0 UV-I 0 W/m 8,5 C 9,4 C 14,5 km/h (3 Bft) 97,92 %
26.10.2018 00:26 11,1 C 11,1 C 10,6 C 84 % 1015,5 hPa 0,0 l/m 11,3 km/h (2 Bft) W 275 0 min 0,000 mm 0,0 UV-I 0 W/m 8,5 C 8,1 C 16,1 km/h (3 Bft) 95,74 %
26.10.2018 00:28 11,1 C 11,1 C 10,6 C 84 % 1015,5 hPa 0,0 l/m 10,5 km/h (2 Bft) W-SW 252 0 min 0,000 mm 0,0 UV-I 0 W/m 8,5 C 8,5 C 17,7 km/h (3 Bft) 96,00 %
26.10.2018 00:30 11,1 C 11,1 C 10,6 C 84 % 1015,5 hPa 0,0 l/m 8,7 km/h (2 Bft) W 281 0 min 0,000 mm 0,0 UV-I 0 W/m 8,5 C 9,6 C 14,5 km/h (3 Bft) 97,78 %
26.10.2018 00:32 11,2 C 11,1 C 11,1 C 84 % 1015,5 hPa 0,0 l/m 9,8 km/h (2 Bft) W-SW 251 0 min 0,000 mm 0,0 UV-I 0 W/m 8,6 C 9,0 C 14,5 km/h (3 Bft) 94,74 %
26.10.2018 00:34 11,2 C 11,1 C 11,1 C 83 % 1015,5 hPa 0,0 l/m 10,7 km/h (2 Bft) SW 234 0 min 0,000 mm 0,0 UV-I 0 W/m 8,4 C 8,5 C 16,1 km/h (3 Bft) 98,11 %
26.10.2018 00:36 11,2 C 11,1 C 11,1 C 83 % 1015,5 hPa 0,0 l/m 10,1 km/h (2 Bft) SW 229 0 min 0,000 mm 0,0 UV-I 0 W/m 8,4 C 8,9 C 16,1 km/h (3 Bft) 100,00 %
26.10.2018 00:38 11,2 C 11,1 C 11,1 C 84 % 1015,5 hPa 0,0 l/m 11,4 km/h (2 Bft) SW 229 0 min 0,000 mm 0,0 UV-I 0 W/m 8,6 C 8,2 C 17,7 km/h (3 Bft) 100,00 %
26.10.2018 00:40 11,2 C 11,1 C 11,1 C 83 % 1015,5 hPa 0,0 l/m 10,8 km/h (2 Bft) W-SW 246 0 min 0,000 mm 0,0 UV-I 0 W/m 8,4 C 8,5 C 16,1 km/h (3 Bft) 100,00 %
26.10.2018 00:42 11,2 C 11,1 C 11,1 C 84 % 1015,5 hPa 0,0 l/m 10,9 km/h (2 Bft) W-SW 247 0 min 0,000 mm 0,0 UV-I 0 W/m 8,6 C 8,4 C 17,7 km/h (3 Bft) 100,00 %
26.10.2018 00:44 11,2 C 11,1 C 11,1 C 84 % 1015,5 hPa 0,0 l/m 11,8 km/h (2 Bft) W-SW 241 0 min 0,000 mm 0,0 UV-I 0 W/m 8,6 C 8,0 C 17,7 km/h (3 Bft) 97,87 %
26.10.2018 00:46 11,2 C 11,1 C 11,1 C 83 % 1015,5 hPa 0,0 l/m 12,0 km/h (2 Bft) W-SW 256 0 min 0,000 mm 0,0 UV-I 0 W/m 8,4 C 7,9 C 16,1 km/h (3 Bft) 100,00 %
26.10.2018 00:48 11,2 C 11,1 C 11,1 C 83 % 1015,5 hPa 0,0 l/m 12,4 km/h (3 Bft) W 267 0 min 0,000 mm 0,0 UV-I 0 W/m 8,4 C 7,7 C 16,1 km/h (3 Bft) 100,00 %
26.10.2018 00:50 11,2 C 11,1 C 11,1 C 83 % 1015,5 hPa 0,0 l/m 7,6 km/h (2 Bft) W-SW 248 0 min 0,000 mm 0,0 UV-I 0 W/m 8,4 C 10,4 C 11,3 km/h (2 Bft) 97,37 %
26.10.2018 00:52 11,2 C 11,1 C 11,1 C 83 % 1015,4 hPa 0,0 l/m 10,1 km/h (2 Bft) W 275 0 min 0,000 mm 0,0 UV-I 0 W/m 8,4 C 8,9 C 19,3 km/h (3 Bft) 100,00 %
26.10.2018 00:54 11,2 C 11,1 C 11,1 C 83 % 1015,4 hPa 0,0 l/m 10,3 km/h (2 Bft) W-SW 245 0 min 0,000 mm 0,0 UV-I 0 W/m 8,4 C 8,8 C 16,1 km/h (3 Bft) 98,00 %
26.10.2018 00:56 11,2 C 11,1 C 11,1 C 83 % 1015,4 hPa 0,0 l/m 12,5 km/h (3 Bft) SW 236 0 min 0,000 mm 0,0 UV-I 0 W/m 8,4 C 7,7 C 17,7 km/h (3 Bft) 97,56 %
26.10.2018 00:58 11,2 C 11,1 C 11,1 C 83 % 1015,4 hPa 0,0 l/m 10,7 km/h (2 Bft) W 266 0 min 0,000 mm 0,0 UV-I 0 W/m 8,4 C 8,5 C 16,1 km/h (3 Bft) 100,00 %
26.10.2018 01:00 11,2 C 11,1 C 11,1 C 83 % 1015,4 hPa 0,0 l/m 8,6 km/h (2 Bft) W 269 0 min 0,025 mm 0,0 UV-I 0 W/m 8,4 C 9,7 C 14,5 km/h (3 Bft) 100,00 %
26.10.2018 01:02 11,2 C 11,1 C 11,1 C 83 % 1015,3 hPa 0,0 l/m 7,8 km/h (2 Bft) SW 231 0 min 0,000 mm 0,0 UV-I 0 W/m 8,4 C 10,2 C 14,5 km/h (3 Bft) 98,11 %
26.10.2018 01:04 11,2 C 11,1 C 11,1 C 84 % 1015,3 hPa 0,0 l/m 11,5 km/h (2 Bft) S-SW 211 0 min 0,000 mm 0,0 UV-I 0 W/m 8,6 C 8,1 C 16,1 km/h (3 Bft) 100,00 %
26.10.2018 01:06 11,2 C 11,1 C 11,1 C 84 % 1015,3 hPa 0,0 l/m 9,6 km/h (2 Bft) W 265 0 min 0,000 mm 0,0 UV-I 0 W/m 8,6 C 9,1 C 16,1 km/h (3 Bft) 97,87 %
26.10.2018 01:08 11,2 C 11,1 C 10,6 C 84 % 1015,3 hPa 0,0 l/m 12,6 km/h (3 Bft) W 275 0 min 0,000 mm 0,0 UV-I 0 W/m 8,6 C 7,6 C 19,3 km/h (3 Bft) 97,22 %
26.10.2018 01:10 11,2 C 11,1 C 10,6 C 84 % 1015,2 hPa 0,0 l/m 8,8 km/h (2 Bft) W-SW 249 0 min 0,000 mm 0,0 UV-I 0 W/m 8,6 C 9,6 C 11,3 km/h (2 Bft) 97,78 %
26.10.2018 01:12 11,2 C 11,1 C 10,6 C 84 % 1015,2 hPa 0,0 l/m 9,2 km/h (2 Bft) SW 235 0 min 0,000 mm 0,0 UV-I 0 W/m 8,6 C 9,4 C 16,1 km/h (3 Bft) 98,31 %
26.10.2018 01:14 11,2 C 11,1 C 10,6 C 84 % 1015,2 hPa 0,0 l/m 12,1 km/h (2 Bft) W-SW 237 0 min 0,000 mm 0,0 UV-I 0 W/m 8,6 C 7,8 C 16,1 km/h (3 Bft) 97,56 %
26.10.2018 01:16 11,1 C 11,1 C 10,6 C 84 % 1015,2 hPa 0,0 l/m 8,9 km/h (2 Bft) W 263 0 min 0,000 mm 0,0 UV-I 0 W/m 8,5 C 9,4 C 14,5 km/h (3 Bft) 96,43 %
26.10.2018 01:18 11,1 C 11,1 C 10,6 C 85 % 1015,1 hPa 0,0 l/m 11,9 km/h (2 Bft) W-SW 250 0 min 0,000 mm 0,0 UV-I 0 W/m 8,7 C 7,8 C 17,7 km/h (3 Bft) 97,73 %
26.10.2018 01:20 11,1 C 11,1 C 10,6 C 85 % 1015,1 hPa 0,0 l/m 10,8 km/h (2 Bft) SW 217 0 min 0,000 mm 0,0 UV-I 0 W/m 8,7 C 8,4 C 16,1 km/h (3 Bft) 98,00 %
26.10.2018 01:22 11,1 C 11,1 C 10,6 C 85 % 1015,0 hPa 0,0 l/m 8,4 km/h (2 Bft) SW 222 0 min 0,000 mm 0,0 UV-I 0 W/m 8,7 C 9,8 C 14,5 km/h (3 Bft) 97,37 %
26.10.2018 01:24 11,1 C 11,1 C 10,6 C 85 % 1015,0 hPa 0,0 l/m 7,7 km/h (2 Bft) SW 227 0 min 0,000 mm 0,0 UV-I 0 W/m 8,7 C 10,2 C 14,5 km/h (3 Bft) 98,00 %
26.10.2018 01:26 11,1 C 11,1 C 10,6 C 85 % 1015,1 hPa 0,0 l/m 7,8 km/h (2 Bft) W-SW 237 0 min 0,000 mm 0,0 UV-I 0 W/m 8,7 C 10,1 C 12,9 km/h (3 Bft) 97,87 %
26.10.2018 01:28 11,1 C 11,1 C 10,6 C 85 % 1015,1 hPa 0,0 l/m 8,6 km/h (2 Bft) W 265 0 min 0,000 mm 0,0 UV-I 0 W/m 8,7 C 9,6 C 16,1 km/h (3 Bft) 96,00 %
26.10.2018 01:30 11,1 C 11,1 C 10,6 C 85 % 1015,1 hPa 0,0 l/m 7,1 km/h (2 Bft) W-SW 256 0 min 0,000 mm 0,0 UV-I 0 W/m 8,7 C 10,6 C 12,9 km/h (3 Bft) 97,37 %
26.10.2018 01:32 11,1 C 11,1 C 10,6 C 85 % 1015,1 hPa 0,0 l/m 7,3 km/h (2 Bft) W-SW 249 0 min 0,000 mm 0,0 UV-I 0 W/m 8,7 C 10,5 C 11,3 km/h (2 Bft) 97,73 %
26.10.2018 01:34 11,0 C 11,1 C 10,6 C 85 % 1015,1 hPa 0,0 l/m 6,4 km/h (2 Bft) W-SW 237 0 min 0,000 mm 0,0 UV-I 0 W/m 8,6 C 11,0 C 11,3 km/h (2 Bft) 94,34 %
26.10.2018 01:36 11,0 C 11,1 C 10,6 C 85 % 1015,1 hPa 0,0 l/m 6,0 km/h (2 Bft) W-SW 251 0 min 0,000 mm 0,0 UV-I 0 W/m 8,6 C 11,0 C 8,0 km/h (2 Bft) 90,57 %
26.10.2018 01:38 11,0 C 11,1 C 10,6 C 85 % 1015,1 hPa 0,0 l/m 6,8 km/h (2 Bft) W-SW 244 0 min 0,000 mm 0,0 UV-I 0 W/m 8,6 C 10,7 C 14,5 km/h (3 Bft) 97,37 %
26.10.2018 01:40 11,0 C 11,1 C 10,6 C 85 % 1015,1 hPa 0,0 l/m 8,4 km/h (2 Bft) SW 217 0 min 0,000 mm 0,0 UV-I 0 W/m 8,6 C 9,6 C 14,5 km/h (3 Bft) 94,00 %
26.10.2018 01:42 11,0 C 11,1 C 10,6 C 85 % 1015,0 hPa 0,0 l/m 8,9 km/h (2 Bft) W-SW 248 0 min 0,000 mm 0,0 UV-I 0 W/m 8,6 C 9,3 C 12,9 km/h (3 Bft) 94,00 %
26.10.2018 01:44 11,0 C 11,1 C 10,6 C 85 % 1015,1 hPa 0,0 l/m 10,3 km/h (2 Bft) W-SW 244 0 min 0,000 mm 0,0 UV-I 0 W/m 8,6 C 8,5 C 17,7 km/h (3 Bft) 97,44 %
26.10.2018 01:46 11,0 C 11,1 C 10,6 C 85 % 1015,0 hPa 0,0 l/m 9,1 km/h (2 Bft) W 278 0 min 0,000 mm 0,0 UV-I 0 W/m 8,6 C 9,2 C 12,9 km/h (3 Bft) 96,55 %
26.10.2018 01:48 11,0 C 11,1 C 10,6 C 85 % 1014,9 hPa 0,0 l/m 8,3 km/h (2 Bft) W-SW 242 0 min 0,000 mm 0,0 UV-I 0 W/m 8,6 C 9,7 C 16,1 km/h (3 Bft) 91,67 %
26.10.2018 01:50 11,0 C 11,1 C 10,6 C 85 % 1014,9 hPa 0,0 l/m 11,5 km/h (2 Bft) SW 229 0 min 0,000 mm 0,0 UV-I 0 W/m 8,6 C 7,9 C 17,7 km/h (3 Bft) 96,00 %
26.10.2018 01:52 11,0 C 11,1 C 10,6 C 85 % 1014,9 hPa 0,0 l/m 9,8 km/h (2 Bft) W 277 0 min 0,000 mm 0,0 UV-I 0 W/m 8,6 C 8,8 C 17,7 km/h (3 Bft) 91,49 %
26.10.2018 01:54 11,0 C 11,1 C 10,6 C 85 % 1014,8 hPa 0,0 l/m 10,3 km/h (2 Bft) SW 220 0 min 0,000 mm 0,0 UV-I 0 W/m 8,6 C 8,5 C 16,1 km/h (3 Bft) 94,00 %
26.10.2018 01:56 11,0 C 11,1 C 10,6 C 85 % 1014,8 hPa 0,0 l/m 9,8 km/h (2 Bft) W-SW 247 0 min 0,000 mm 0,0 UV-I 0 W/m 8,6 C 8,8 C 17,7 km/h (3 Bft) 96,00 %
26.10.2018 01:58 11,0 C 11,1 C 10,6 C 85 % 1014,8 hPa 0,0 l/m 8,7 km/h (2 Bft) W-SW 247 0 min 0,000 mm 0,0 UV-I 0 W/m 8,6 C 9,5 C 12,9 km/h (3 Bft) 92,11 %
26.10.2018 02:00 10,9 C 11,1 C 10,6 C 85 % 1014,7 hPa 0,0 l/m 7,6 km/h (2 Bft) SW 228 0 min 0,026 mm 0,0 UV-I 0 W/m 8,5 C 10,1 C 12,9 km/h (3 Bft) 92,86 %
26.10.2018 02:02 10,9 C 11,1 C 10,6 C 85 % 1014,7 hPa 0,0 l/m 10,3 km/h (2 Bft) SW 227 0 min 0,000 mm 0,0 UV-I 0 W/m 8,5 C 8,4 C 16,1 km/h (3 Bft) 94,74 %
26.10.2018 02:04 10,9 C 11,1 C 10,6 C 85 % 1014,7 hPa 0,0 l/m 9,0 km/h (2 Bft) W-SW 254 0 min 0,000 mm 0,0 UV-I 0 W/m 8,5 C 9,2 C 12,9 km/h (3 Bft) 94,34 %
26.10.2018 02:06 10,9 C 11,1 C 10,6 C 85 % 1014,7 hPa 0,0 l/m 8,0 km/h (2 Bft) W-SW 246 0 min 0,000 mm 0,0 UV-I 0 W/m 8,5 C 9,8 C 12,9 km/h (3 Bft) 95,74 %
26.10.2018 02:08 10,9 C 11,1 C 10,6 C 85 % 1014,6 hPa 0,0 l/m 12,3 km/h (3 Bft) W-SW 242 0 min 0,000 mm 0,0 UV-I 0 W/m 8,5 C 7,4 C 19,3 km/h (3 Bft) 95,12 %
26.10.2018 02:10 10,9 C 11,1 C 10,6 C 85 % 1014,6 hPa 0,0 l/m 12,0 km/h (2 Bft) W 261 0 min 0,000 mm 0,0 UV-I 0 W/m 8,5 C 7,6 C 16,1 km/h (3 Bft) 96,43 %
26.10.2018 02:12 10,9 C 11,1 C 10,6 C 85 % 1014,6 hPa 0,0 l/m 9,3 km/h (2 Bft) W-SW 253 0 min 0,000 mm 0,0 UV-I 0 W/m 8,5 C 9,0 C 14,5 km/h (3 Bft) 92,59 %
26.10.2018 02:14 10,9 C 11,1 C 10,6 C 85 % 1014,6 hPa 0,0 l/m 10,7 km/h (2 Bft) W-SW 245 0 min 0,000 mm 0,0 UV-I 0 W/m 8,5 C 8,2 C 16,1 km/h (3 Bft) 96,88 %
26.10.2018 02:16 10,9 C 11,1 C 10,6 C 85 % 1014,6 hPa 0,0 l/m 10,0 km/h (2 Bft) W-SW 240 0 min 0,000 mm 0,0 UV-I 0 W/m 8,5 C 8,6 C 17,7 km/h (3 Bft) 95,12 %
26.10.2018 02:18 10,9 C 11,1 C 10,6 C 85 % 1014,6 hPa 0,0 l/m 12,4 km/h (3 Bft) SW 216 0 min 0,000 mm 0,0 UV-I 0 W/m 8,5 C 7,4 C 19,3 km/h (3 Bft) 94,00 %
26.10.2018 02:20 10,9 C 11,1 C 10,6 C 85 % 1014,5 hPa 0,0 l/m 11,6 km/h (2 Bft) SW 235 0 min 0,000 mm 0,0 UV-I 0 W/m 8,5 C 7,7 C 19,3 km/h (3 Bft) 95,56 %
26.10.2018 02:22 10,9 C 11,1 C 10,6 C 84 % 1014,5 hPa 0,0 l/m 13,3 km/h (3 Bft) W-SW 239 0 min 0,000 mm 0,0 UV-I 0 W/m 8,3 C 6,9 C 19,3 km/h (3 Bft) 98,08 %
26.10.2018 02:24 10,9 C 11,1 C 10,6 C 84 % 1014,4 hPa 0,0 l/m 11,7 km/h (2 Bft) SW 226 0 min 0,000 mm 0,0 UV-I 0 W/m 8,3 C 7,7 C 17,7 km/h (3 Bft) 100,00 %
26.10.2018 02:26 10,9 C 11,1 C 10,6 C 84 % 1014,4 hPa 0,0 l/m 9,8 km/h (2 Bft) W-SW 247 0 min 0,000 mm 0,0 UV-I 0 W/m 8,3 C 8,7 C 14,5 km/h (3 Bft) 98,11 %
26.10.2018 02:28 10,9 C 11,1 C 10,6 C 84 % 1014,4 hPa 0,0 l/m 9,3 km/h (2 Bft) SW 220 0 min 0,000 mm 0,0 UV-I 0 W/m 8,3 C 9,0 C 12,9 km/h (3 Bft) 97,37 %
26.10.2018 02:30 10,9 C 11,1 C 10,6 C 84 % 1014,4 hPa 0,0 l/m 10,7 km/h (2 Bft) W-SW 250 0 min 0,000 mm 0,0 UV-I 0 W/m 8,3 C 8,2 C 17,7 km/h (3 Bft) 100,00 %
26.10.2018 02:32 10,9 C 11,1 C 10,6 C 84 % 1014,4 hPa 0,0 l/m 12,0 km/h (2 Bft) S-SW 194 0 min 0,000 mm 0,0 UV-I 0 W/m 8,3 C 7,6 C 17,7 km/h (3 Bft) 98,00 %
26.10.2018 02:34 10,9 C 11,1 C 10,6 C 84 % 1014,3 hPa 0,0 l/m 10,5 km/h (2 Bft) SW 236 0 min 0,000 mm 0,0 UV-I 0 W/m 8,3 C 8,3 C 16,1 km/h (3 Bft) 98,00 %
26.10.2018 02:36 10,8 C 11,1 C 10,6 C 84 % 1014,3 hPa 0,0 l/m 9,7 km/h (2 Bft) SW 234 0 min 0,000 mm 0,0 UV-I 0 W/m 8,2 C 8,6 C 14,5 km/h (3 Bft) 100,00 %
26.10.2018 02:38 10,8 C 11,1 C 10,6 C 84 % 1014,3 hPa 0,0 l/m 11,2 km/h (2 Bft) W-SW 255 0 min 0,000 mm 0,0 UV-I 0 W/m 8,2 C 7,8 C 19,3 km/h (3 Bft) 97,37 %
26.10.2018 02:40 10,8 C 11,1 C 10,6 C 84 % 1014,3 hPa 0,0 l/m 10,9 km/h (2 Bft) W-SW 248 0 min 0,000 mm 0,0 UV-I 0 W/m 8,2 C 8,0 C 16,1 km/h (3 Bft) 100,00 %
26.10.2018 02:42 10,8 C 11,1 C 10,6 C 84 % 1014,3 hPa 0,0 l/m 9,8 km/h (2 Bft) W 279 0 min 0,000 mm 0,0 UV-I 0 W/m 8,2 C 8,6 C 19,3 km/h (3 Bft) 100,00 %
26.10.2018 02:44 10,8 C 11,1 C 10,6 C 84 % 1014,3 hPa 0,0 l/m 10,6 km/h (2 Bft) SW 215 0 min 0,000 mm 0,0 UV-I 0 W/m 8,2 C 8,2 C 17,7 km/h (3 Bft) 100,00 %
26.10.2018 02:46 10,8 C 11,1 C 10,6 C 84 % 1014,3 hPa 0,0 l/m 12,7 km/h (3 Bft) W-SW 252 0 min 0,000 mm 0,0 UV-I 0 W/m 8,2 C 7,1 C 19,3 km/h (3 Bft) 100,00 %
26.10.2018 02:48 10,8 C 11,1 C 10,6 C 84 % 1014,4 hPa 0,0 l/m 11,9 km/h (2 Bft) W-SW 242 0 min 0,000 mm 0,0 UV-I 0 W/m 8,2 C 7,5 C 17,7 km/h (3 Bft) 98,11 %
26.10.2018 02:50 10,8 C 11,1 C 10,6 C 84 % 1014,4 hPa 0,0 l/m 12,7 km/h (3 Bft) SW 225 0 min 0,000 mm 0,0 UV-I 0 W/m 8,2 C 7,1 C 17,7 km/h (3 Bft) 97,87 %
26.10.2018 02:52 10,8 C 11,1 C 10,6 C 84 % 1014,4 hPa 0,0 l/m 13,3 km/h (3 Bft) W-SW 242 0 min 0,000 mm 0,0 UV-I 0 W/m 8,2 C 6,8 C 17,7 km/h (3 Bft) 100,00 %
26.10.2018 02:54 10,8 C 11,1 C 10,6 C 84 % 1014,4 hPa 0,0 l/m 9,5 km/h (2 Bft) SW 232 0 min 0,000 mm 0,0 UV-I 0 W/m 8,2 C 8,8 C 14,5 km/h (3 Bft) 100,00 %
26.10.2018 02:56 10,7 C 11,1 C 10,6 C 84 % 1014,4 hPa 0,0 l/m 9,6 km/h (2 Bft) SW 232 0 min 0,000 mm 0,0 UV-I 0 W/m 8,1 C 8,6 C 17,7 km/h (3 Bft) 100,00 %
26.10.2018 02:58 10,7 C 11,1 C 10,6 C 84 % 1014,4 hPa 0,0 l/m 8,0 km/h (2 Bft) W 267 0 min 0,000 mm 0,0 UV-I 0 W/m 8,1 C 9,6 C 14,5 km/h (3 Bft) 94,00 %
26.10.2018 03:00 10,7 C 11,1 C 10,6 C 84 % 1014,4 hPa 0,0 l/m 8,7 km/h (2 Bft) W 259 0 min 0,025 mm 0,0 UV-I 0 W/m 8,1 C 9,1 C 12,9 km/h (3 Bft) 98,00 %
26.10.2018 03:02 10,7 C 11,1 C 10,0 C 84 % 1014,4 hPa 0,0 l/m 7,9 km/h (2 Bft) W-SW 237 0 min 0,000 mm 0,0 UV-I 0 W/m 8,1 C 9,7 C 14,5 km/h (3 Bft) 97,87 %
26.10.2018 03:04 10,7 C 11,1 C 10,0 C 84 % 1014,3 hPa 0,0 l/m 8,2 km/h (2 Bft) SW 225 0 min 0,000 mm 0,0 UV-I 0 W/m 8,1 C 9,5 C 14,5 km/h (3 Bft) 98,00 %
26.10.2018 03:06 10,7 C 11,1 C 10,0 C 84 % 1014,3 hPa 0,0 l/m 9,5 km/h (2 Bft) W-SW 241 0 min 0,000 mm 0,0 UV-I 0 W/m 8,1 C 8,7 C 16,1 km/h (3 Bft) 97,37 %
26.10.2018 03:08 10,7 C 11,1 C 10,0 C 84 % 1014,3 hPa 0,0 l/m 7,7 km/h (2 Bft) W 269 0 min 0,000 mm 0,0 UV-I 0 W/m 8,1 C 9,8 C 11,3 km/h (2 Bft) 95,45 %
26.10.2018 03:10 10,7 C 11,1 C 10,0 C 84 % 1014,2 hPa 0,0 l/m 6,2 km/h (2 Bft) W 259 0 min 0,000 mm 0,0 UV-I 0 W/m 8,1 C 10,7 C 9,7 km/h (2 Bft) 96,23 %
26.10.2018 03:12 10,7 C 11,1 C 10,0 C 84 % 1014,3 hPa 0,0 l/m 6,9 km/h (2 Bft) W 267 0 min 0,000 mm 0,0 UV-I 0 W/m 8,1 C 10,4 C 11,3 km/h (2 Bft) 97,87 %
26.10.2018 03:14 10,6 C 11,1 C 10,0 C 84 % 1014,3 hPa 0,0 l/m 7,4 km/h (2 Bft) W 271 0 min 0,000 mm 0,0 UV-I 0 W/m 8,0 C 9,9 C 12,9 km/h (3 Bft) 97,56 %
26.10.2018 03:16 10,6 C 11,1 C 10,0 C 84 % 1014,3 hPa 0,0 l/m 7,3 km/h (2 Bft) W 273 0 min 0,000 mm 0,0 UV-I 0 W/m 8,0 C 10,0 C 12,9 km/h (3 Bft) 97,87 %
26.10.2018 03:18 10,6 C 11,1 C 10,0 C 84 % 1014,3 hPa 0,0 l/m 8,4 km/h (2 Bft) W-SW 254 0 min 0,000 mm 0,0 UV-I 0 W/m 8,0 C 9,2 C 12,9 km/h (3 Bft) 97,87 %
26.10.2018 03:20 10,6 C 11,1 C 10,0 C 84 % 1014,3 hPa 0,0 l/m 6,5 km/h (2 Bft) W-SW 242 0 min 0,000 mm 0,0 UV-I 0 W/m 8,0 C 10,6 C 11,3 km/h (2 Bft) 96,43 %
26.10.2018 03:22 10,6 C 11,1 C 10,0 C 84 % 1014,3 hPa 0,0 l/m 7,3 km/h (2 Bft) W-SW 246 0 min 0,000 mm 0,0 UV-I 0 W/m 8,0 C 10,0 C 12,9 km/h (3 Bft) 97,56 %
26.10.2018 03:24 10,6 C 11,1 C 10,0 C 84 % 1014,3 hPa 0,0 l/m 6,8 km/h (2 Bft) SW 232 0 min 0,000 mm 0,0 UV-I 0 W/m 8,0 C 10,3 C 14,5 km/h (3 Bft) 100,00 %
26.10.2018 03:26 10,6 C 11,1 C 10,0 C 83 % 1014,3 hPa 0,0 l/m 9,8 km/h (2 Bft) W-SW 257 0 min 0,000 mm 0,0 UV-I 0 W/m 7,8 C 8,4 C 14,5 km/h (3 Bft) 98,00 %
26.10.2018 03:28 10,7 C 11,1 C 10,6 C 83 % 1014,2 hPa 0,0 l/m 10,4 km/h (2 Bft) W-SW 256 0 min 0,000 mm 0,0 UV-I 0 W/m 7,9 C 8,1 C 14,5 km/h (3 Bft) 100,00 %
26.10.2018 03:30 10,7 C 11,1 C 10,0 C 83 % 1014,2 hPa 0,0 l/m 7,3 km/h (2 Bft) W-SW 246 0 min 0,000 mm 0,0 UV-I 0 W/m 7,9 C 10,1 C 11,3 km/h (2 Bft) 100,00 %
26.10.2018 03:32 10,7 C 11,1 C 10,0 C 83 % 1014,1 hPa 0,0 l/m 7,8 km/h (2 Bft) W-SW 238 0 min 0,000 mm 0,0 UV-I 0 W/m 7,9 C 9,7 C 12,9 km/h (3 Bft) 100,00 %
26.10.2018 03:35 10,6 C 11,1 C 10,0 C 83 % 1014,1 hPa 0,0 l/m 7,4 km/h (2 Bft) W-SW 244 0 min 0,000 mm 0,0 UV-I 0 W/m 7,8 C 9,9 C 12,9 km/h (3 Bft) 100,00 %
26.10.2018 03:36 10,7 C 11,1 C 10,0 C 83 % 1014,1 hPa 0,0 l/m 9,2 km/h (2 Bft) W-SW 248 0 min 0,000 mm 0,0 UV-I 0 W/m 7,9 C 8,8 C 12,9 km/h (3 Bft) 100,00 %
26.10.2018 03:38 10,6 C 11,1 C 10,0 C 83 % 1014,1 hPa 0,0 l/m 8,2 km/h (2 Bft) W-SW 240 0 min 0,000 mm 0,0 UV-I 0 W/m 7,8 C 9,4 C 12,9 km/h (3 Bft) 100,00 %
26.10.2018 03:40 10,6 C 11,1 C 10,0 C 83 % 1014,1 hPa 0,0 l/m 6,0 km/h (2 Bft) W-SW 246 0 min 0,000 mm 0,0 UV-I 0 W/m 7,8 C 10,6 C 11,3 km/h (2 Bft) 100,00 %
26.10.2018 03:42 10,6 C 11,1 C 10,0 C 83 % 1014,1 hPa 0,0 l/m 6,5 km/h (2 Bft) W-SW 250 0 min 0,000 mm 0,0 UV-I 0 W/m 7,8 C 10,6 C 9,7 km/h (2 Bft) 100,00 %
26.10.2018 03:45 10,6 C 11,1 C 10,0 C 83 % 1014,0 hPa 0,0 l/m 6,2 km/h (2 Bft) W-SW 254 0 min 0,000 mm 0,0 UV-I 0 W/m 7,8 C 10,6 C 9,7 km/h (2 Bft) 100,00 %
26.10.2018 03:46 10,5 C 11,1 C 10,0 C 83 % 1014,0 hPa 0,0 l/m 4,1 km/h (1 Bft) W-SW 255 0 min 0,000 mm 0,0 UV-I 0 W/m 7,7 C 10,5 C 4,8 km/h (1 Bft) 100,00 %
26.10.2018 03:48 10,6 C 11,1 C 10,0 C 83 % 1013,9 hPa 0,0 l/m 4,3 km/h (1 Bft) W-SW 242 0 min 0,000 mm 0,0 UV-I 0 W/m 7,8 C 10,6 C 8,0 km/h (2 Bft) 100,00 %
26.10.2018 03:50 10,5 C 11,1 C 10,0 C 83 % 1013,9 hPa 0,0 l/m 4,6 km/h (1 Bft) W-SW 253 0 min 0,000 mm 0,0 UV-I 0 W/m 7,7 C 10,5 C 6,4 km/h (2 Bft) 96,88 %
26.10.2018 03:52 10,5 C 11,1 C 10,0 C 83 % 1013,8 hPa 0,0 l/m 4,0 km/h (1 Bft) SW 228 0 min 0,000 mm 0,0 UV-I 0 W/m 7,7 C 10,5 C 6,4 km/h (2 Bft) 98,21 %
26.10.2018 03:54 10,4 C 11,1 C 10,0 C 83 % 1013,8 hPa 0,0 l/m 4,7 km/h (1 Bft) W-SW 244 0 min 0,000 mm 0,0 UV-I 0 W/m 7,6 C 10,4 C 6,4 km/h (2 Bft) 97,87 %
26.10.2018 03:56 10,4 C 11,1 C 10,0 C 83 % 1013,8 hPa 0,0 l/m 5,0 km/h (1 Bft) SW 232 0 min 0,000 mm 0,0 UV-I 0 W/m 7,6 C 10,4 C 6,4 km/h (2 Bft) 97,56 %
26.10.2018 03:58 10,4 C 11,1 C 10,0 C 83 % 1013,8 hPa 0,0 l/m 4,7 km/h (1 Bft) W-SW 248 0 min 0,000 mm 0,0 UV-I 0 W/m 7,6 C 10,4 C 6,4 km/h (2 Bft) 98,31 %
26.10.2018 04:00 10,4 C 11,1 C 10,0 C 83 % 1013,7 hPa 0,0 l/m 4,6 km/h (1 Bft) W-SW 254 0 min 0,026 mm 0,0 UV-I 0 W/m 7,6 C 10,4 C 8,0 km/h (2 Bft) 96,00 %
26.10.2018 04:02 10,4 C 11,1 C 10,0 C 83 % 1013,7 hPa 0,0 l/m 4,6 km/h (1 Bft) SW 215 0 min 0,000 mm 0,0 UV-I 0 W/m 7,6 C 10,4 C 6,4 km/h (2 Bft) 96,55 %
26.10.2018 04:04 10,4 C 11,1 C 10,0 C 83 % 1013,7 hPa 0,0 l/m 5,9 km/h (2 Bft) SW 228 0 min 0,000 mm 0,0 UV-I 0 W/m 7,6 C 10,4 C 9,7 km/h (2 Bft) 97,87 %
26.10.2018 04:06 10,4 C 11,1 C 10,0 C 83 % 1013,7 hPa 0,0 l/m 5,9 km/h (2 Bft) SW 234 0 min 0,000 mm 0,0 UV-I 0 W/m 7,6 C 10,4 C 8,0 km/h (2 Bft) 98,11 %
26.10.2018 04:08 10,4 C 11,1 C 10,0 C 83 % 1013,7 hPa 0,0 l/m 4,3 km/h (1 Bft) W-SW 247 0 min 0,000 mm 0,0 UV-I 0 W/m 7,6 C 10,4 C 6,4 km/h (2 Bft) 97,56 %
26.10.2018 04:10 10,4 C 11,1 C 10,0 C 83 % 1013,6 hPa 0,0 l/m 4,8 km/h (1 Bft) W-SW 248 0 min 0,000 mm 0,0 UV-I 0 W/m 7,6 C 10,4 C 8,0 km/h (2 Bft) 96,00 %
26.10.2018 04:12 10,4 C 11,1 C 10,0 C 83 % 1013,6 hPa 0,0 l/m 4,1 km/h (1 Bft) W-SW 245 0 min 0,000 mm 0,0 UV-I 0 W/m 7,6 C 10,4 C 6,4 km/h (2 Bft) 98,00 %
26.10.2018 04:14 10,3 C 11,1 C 10,0 C 83 % 1013,6 hPa 0,0 l/m 5,6 km/h (1 Bft) SW 236 0 min 0,000 mm 0,0 UV-I 0 W/m 7,5 C 10,3 C 9,7 km/h (2 Bft) 97,87 %
26.10.2018 04:16 10,3 C 11,1 C 10,0 C 83 % 1013,5 hPa 0,0 l/m 3,9 km/h (1 Bft) W-SW 242 0 min 0,000 mm 0,0 UV-I 0 W/m 7,5 C 10,3 C 6,4 km/h (2 Bft) 97,22 %
26.10.2018 04:18 10,3 C 11,1 C 10,0 C 83 % 1013,5 hPa 0,0 l/m 5,9 km/h (2 Bft) SW 218 0 min 0,000 mm 0,0 UV-I 0 W/m 7,5 C 10,3 C 8,0 km/h (2 Bft) 96,23 %
26.10.2018 04:20 10,3 C 11,1 C 10,0 C 84 % 1013,6 hPa 0,0 l/m 5,2 km/h (1 Bft) SW 223 0 min 0,000 mm 0,0 UV-I 0 W/m 7,7 C 10,3 C 8,0 km/h (2 Bft) 97,56 %
26.10.2018 04:22 10,3 C 11,1 C 10,0 C 83 % 1013,6 hPa 0,0 l/m 5,4 km/h (1 Bft) W-SW 250 0 min 0,000 mm 0,0 UV-I 0 W/m 7,5 C 10,3 C 11,3 km/h (2 Bft) 94,34 %
26.10.2018 04:24 10,3 C 11,1 C 10,0 C 83 % 1013,5 hPa 0,0 l/m 5,2 km/h (1 Bft) W-SW 241 0 min 0,000 mm 0,0 UV-I 0 W/m 7,5 C 10,3 C 8,0 km/h (2 Bft) 96,00 %
26.10.2018 04:26 10,3 C 11,1 C 10,0 C 83 % 1013,5 hPa 0,0 l/m 4,7 km/h (1 Bft) W-SW 238 0 min 0,000 mm 0,0 UV-I 0 W/m 7,5 C 10,3 C 8,0 km/h (2 Bft) 97,56 %
26.10.2018 04:28 10,3 C 11,1 C 10,0 C 83 % 1013,5 hPa 0,0 l/m 4,8 km/h (1 Bft) W-SW 243 0 min 0,000 mm 0,0 UV-I 0 W/m 7,5 C 10,3 C 8,0 km/h (2 Bft) 98,00 %
26.10.2018 04:30 10,3 C 11,1 C 10,0 C 83 % 1013,5 hPa 0,0 l/m 4,1 km/h (1 Bft) W-SW 245 0 min 0,000 mm 0,0 UV-I 0 W/m 7,5 C 10,3 C 6,4 km/h (2 Bft) 98,00 %
26.10.2018 04:32 10,3 C 11,1 C 10,0 C 83 % 1013,5 hPa 0,0 l/m 3,8 km/h (1 Bft) SW 228 0 min 0,000 mm 0,0 UV-I 0 W/m 7,5 C 10,3 C 6,4 km/h (2 Bft) 98,00 %
26.10.2018 04:35 10,3 C 11,1 C 10,0 C 84 % 1013,4 hPa 0,0 l/m 4,5 km/h (1 Bft) W-SW 247 0 min 0,000 mm 0,0 UV-I 0 W/m 7,7 C 10,3 C 6,4 km/h (2 Bft) 97,14 %
26.10.2018 04:36 10,3 C 11,1 C 10,0 C 84 % 1013,5 hPa 0,0 l/m 2,5 km/h (1 Bft) W-SW 247 0 min 0,000 mm 0,0 UV-I 0 W/m 7,7 C 10,3 C 3,2 km/h (1 Bft) 100,00 %
26.10.2018 04:38 10,2 C 11,1 C 9,4 C 84 % 1013,4 hPa 0,0 l/m 3,3 km/h (1 Bft) W-SW 242 0 min 0,000 mm 0,0 UV-I 0 W/m 7,6 C 10,2 C 4,8 km/h (1 Bft) 95,74 %
26.10.2018 04:40 10,2 C 11,1 C 9,4 C 84 % 1013,4 hPa 0,0 l/m 5,7 km/h (1 Bft) SW 236 0 min 0,000 mm 0,0 UV-I 0 W/m 7,6 C 10,2 C 8,0 km/h (2 Bft) 97,87 %
26.10.2018 04:42 10,2 C 11,1 C 9,4 C 84 % 1013,4 hPa 0,0 l/m 5,8 km/h (2 Bft) W-SW 248 0 min 0,000 mm 0,0 UV-I 0 W/m 7,6 C 10,2 C 8,0 km/h (2 Bft) 98,00 %
26.10.2018 04:45 10,2 C 11,1 C 9,4 C 84 % 1013,4 hPa 0,0 l/m 4,4 km/h (1 Bft) W 267 0 min 0,000 mm 0,0 UV-I 0 W/m 7,6 C 10,2 C 9,7 km/h (2 Bft) 100,00 %
26.10.2018 04:46 10,2 C 11,1 C 9,4 C 84 % 1013,4 hPa 0,0 l/m 6,3 km/h (2 Bft) W-SW 249 0 min 0,000 mm 0,0 UV-I 0 W/m 7,6 C 10,2 C 9,7 km/h (2 Bft) 100,00 %
26.10.2018 04:48 10,2 C 11,1 C 9,4 C 84 % 1013,3 hPa 0,0 l/m 5,5 km/h (1 Bft) W 271 0 min 0,000 mm 0,0 UV-I 0 W/m 7,6 C 10,2 C 9,7 km/h (2 Bft) 100,00 %
26.10.2018 04:50 10,2 C 11,1 C 9,4 C 84 % 1013,3 hPa 0,0 l/m 5,2 km/h (1 Bft) W 266 0 min 0,000 mm 0,0 UV-I 0 W/m 7,6 C 10,2 C 6,4 km/h (2 Bft) 100,00 %
26.10.2018 04:52 10,1 C 11,1 C 9,4 C 84 % 1013,3 hPa 0,0 l/m 4,7 km/h (1 Bft) W-SW 245 0 min 0,000 mm 0,0 UV-I 0 W/m 7,5 C 10,1 C 6,4 km/h (2 Bft) 100,00 %
26.10.2018 04:55 10,1 C 11,1 C 9,4 C 84 % 1013,3 hPa 0,0 l/m 4,9 km/h (1 Bft) W-SW 245 0 min 0,000 mm 0,0 UV-I 0 W/m 7,5 C 10,1 C 6,4 km/h (2 Bft) 98,73 %
26.10.2018 04:56 10,1 C 11,1 C 9,4 C 84 % 1013,3 hPa 0,0 l/m 3,8 km/h (1 Bft) W-SW 246 0 min 0,000 mm 0,0 UV-I 0 W/m 7,5 C 10,1 C 4,8 km/h (1 Bft) 95,24 %
26.10.2018 04:58 10,1 C 11,1 C 9,4 C 84 % 1013,3 hPa 0,0 l/m 4,5 km/h (1 Bft) W-SW 257 0 min 0,000 mm 0,0 UV-I 0 W/m 7,5 C 10,1 C 9,7 km/h (2 Bft) 97,37 %
26.10.2018 05:00 10,1 C 11,1 C 9,4 C 84 % 1013,2 hPa 0,0 l/m 4,8 km/h (1 Bft) W 261 0 min 0,000 mm 0,0 UV-I 0 W/m 7,5 C 10,1 C 6,4 km/h (2 Bft) 98,00 %
26.10.2018 05:02 10,1 C 11,1 C 9,4 C 84 % 1013,2 hPa 0,0 l/m 3,6 km/h (1 Bft) W 261 0 min 0,000 mm 0,0 UV-I 0 W/m 7,5 C 10,1 C 6,4 km/h (2 Bft) 100,00 %
26.10.2018 05:04 10,1 C 11,1 C 8,9 C 84 % 1013,2 hPa 0,0 l/m 4,1 km/h (1 Bft) W 265 0 min 0,000 mm 0,0 UV-I 0 W/m 7,5 C 10,1 C 6,4 km/h (2 Bft) 100,00 %
26.10.2018 05:06 10,0 C 11,1 C 8,9 C 84 % 1013,3 hPa 0,0 l/m 4,5 km/h (1 Bft) W 266 0 min 0,000 mm 0,0 UV-I 0 W/m 7,4 C 10,0 C 6,4 km/h (2 Bft) 100,00 %
26.10.2018 05:08 10,0 C 11,1 C 8,9 C 84 % 1013,2 hPa 0,0 l/m 4,4 km/h (1 Bft) W 267 0 min 0,000 mm 0,0 UV-I 0 W/m 7,4 C 10,0 C 6,4 km/h (2 Bft) 92,68 %
26.10.2018 05:10 9,9 C 11,1 C 8,9 C 84 % 1013,2 hPa 0,0 l/m 4,9 km/h (1 Bft) W 265 0 min 0,000 mm 0,0 UV-I 0 W/m 7,3 C 9,9 C 6,4 km/h (2 Bft) 98,11 %
26.10.2018 05:12 9,9 C 11,1 C 8,9 C 85 % 1013,2 hPa 0,0 l/m 5,8 km/h (2 Bft) W 269 0 min 0,000 mm 0,0 UV-I 0 W/m 7,5 C 9,9 C 9,7 km/h (2 Bft) 97,56 %
26.10.2018 05:14 9,9 C 11,1 C 8,9 C 85 % 1013,1 hPa 0,0 l/m 4,7 km/h (1 Bft) W 265 0 min 0,000 mm 0,0 UV-I 0 W/m 7,5 C 9,9 C 6,4 km/h (2 Bft) 97,87 %
26.10.2018 05:16 10,0 C 11,1 C 8,9 C 84 % 1013,2 hPa 0,0 l/m 6,5 km/h (2 Bft) W 271 0 min 0,000 mm 0,0 UV-I 0 W/m 7,4 C 10,0 C 11,3 km/h (2 Bft) 98,11 %
26.10.2018 05:18 10,0 C 11,1 C 8,9 C 84 % 1013,1 hPa 0,0 l/m 5,4 km/h (1 Bft) W 267 0 min 0,000 mm 0,0 UV-I 0 W/m 7,4 C 10,0 C 9,7 km/h (2 Bft) 97,56 %
26.10.2018 05:20 10,0 C 11,1 C 8,9 C 84 % 1013,1 hPa 0,0 l/m 6,3 km/h (2 Bft) W 261 0 min 0,000 mm 0,0 UV-I 0 W/m 7,4 C 10,0 C 9,7 km/h (2 Bft) 97,56 %
26.10.2018 05:22 10,0 C 11,1 C 8,9 C 84 % 1013,1 hPa 0,0 l/m 5,4 km/h (1 Bft) W-SW 258 0 min 0,000 mm 0,0 UV-I 0 W/m 7,4 C 10,0 C 6,4 km/h (2 Bft) 98,00 %
26.10.2018 05:24 10,0 C 11,1 C 8,9 C 84 % 1013,1 hPa 0,0 l/m 6,4 km/h (2 Bft) W 260 0 min 0,000 mm 0,0 UV-I 0 W/m 7,4 C 10,0 C 9,7 km/h (2 Bft) 98,21 %
26.10.2018 05:26 9,9 C 11,1 C 8,9 C 84 % 1013,1 hPa 0,0 l/m 5,2 km/h (1 Bft) W 270 0 min 0,000 mm 0,0 UV-I 0 W/m 7,3 C 9,9 C 6,4 km/h (2 Bft) 97,44 %
26.10.2018 05:28 9,9 C 11,1 C 8,9 C 85 % 1013,0 hPa 0,0 l/m 6,5 km/h (2 Bft) W 266 0 min 0,000 mm 0,0 UV-I 0 W/m 7,5 C 9,9 C 11,3 km/h (2 Bft) 98,00 %
26.10.2018 05:30 9,9 C 11,1 C 8,9 C 84 % 1013,0 hPa 0,0 l/m 5,6 km/h (1 Bft) W-SW 252 0 min 0,000 mm 0,0 UV-I 0 W/m 7,3 C 9,9 C 11,3 km/h (2 Bft) 97,37 %
26.10.2018 05:32 9,9 C 11,1 C 8,9 C 84 % 1013,0 hPa 0,0 l/m 5,2 km/h (1 Bft) W 259 0 min 0,000 mm 0,0 UV-I 0 W/m 7,3 C 9,9 C 9,7 km/h (2 Bft) 98,11 %
26.10.2018 05:34 9,9 C 11,1 C 8,9 C 84 % 1013,0 hPa 0,0 l/m 5,6 km/h (1 Bft) W-SW 251 0 min 0,000 mm 0,0 UV-I 0 W/m 7,3 C 9,9 C 9,7 km/h (2 Bft) 94,34 %
26.10.2018 05:36 9,9 C 11,1 C 8,9 C 84 % 1013,0 hPa 0,0 l/m 4,6 km/h (1 Bft) W 269 0 min 0,000 mm 0,0 UV-I 0 W/m 7,3 C 9,9 C 6,4 km/h (2 Bft) 95,65 %
26.10.2018 05:38 9,9 C 11,1 C 8,9 C 85 % 1013,0 hPa 0,0 l/m 3,9 km/h (1 Bft) W 262 0 min 0,000 mm 0,0 UV-I 0 W/m 7,5 C 9,9 C 4,8 km/h (1 Bft) 97,06 %
26.10.2018 05:40 9,8 C 11,1 C 8,3 C 85 % 1013,0 hPa 0,0 l/m 4,0 km/h (1 Bft) W 261 0 min 0,000 mm 0,0 UV-I 0 W/m 7,4 C 9,8 C 6,4 km/h (2 Bft) 97,56 %
26.10.2018 05:42 9,8 C 11,1 C 8,3 C 85 % 1013,0 hPa 0,0 l/m 4,0 km/h (1 Bft) SW 236 0 min 0,000 mm 0,0 UV-I 0 W/m 7,4 C 9,8 C 6,4 km/h (2 Bft) 98,00 %
26.10.2018 05:44 9,8 C 11,1 C 8,3 C 85 % 1013,0 hPa 0,0 l/m 4,4 km/h (1 Bft) SW 236 0 min 0,000 mm 0,0 UV-I 0 W/m 7,4 C 9,8 C 6,4 km/h (2 Bft) 94,00 %
26.10.2018 05:46 9,7 C 11,1 C 8,3 C 85 % 1013,0 hPa 0,0 l/m 4,3 km/h (1 Bft) W-SW 241 0 min 0,000 mm 0,0 UV-I 0 W/m 7,3 C 9,7 C 6,4 km/h (2 Bft) 95,12 %
26.10.2018 05:48 9,7 C 11,1 C 8,3 C 85 % 1012,9 hPa 0,0 l/m 3,6 km/h (1 Bft) W-SW 247 0 min 0,000 mm 0,0 UV-I 0 W/m 7,3 C 9,7 C 6,4 km/h (2 Bft) 91,49 %
26.10.2018 05:50 9,7 C 11,1 C 8,3 C 85 % 1012,9 hPa 0,0 l/m 4,1 km/h (1 Bft) W-SW 248 0 min 0,000 mm 0,0 UV-I 0 W/m 7,3 C 9,7 C 4,8 km/h (1 Bft) 95,74 %
26.10.2018 05:52 9,7 C 11,1 C 8,3 C 85 % 1012,9 hPa 0,0 l/m 3,9 km/h (1 Bft) W-SW 250 0 min 0,000 mm 0,0 UV-I 0 W/m 7,3 C 9,7 C 4,8 km/h (1 Bft) 96,23 %
26.10.2018 05:54 9,6 C 11,1 C 8,3 C 86 % 1012,9 hPa 0,0 l/m 3,3 km/h (1 Bft) W-SW 251 0 min 0,000 mm 0,0 UV-I 0 W/m 7,4 C 9,6 C 4,8 km/h (1 Bft) 89,47 %
26.10.2018 05:56 9,6 C 11,1 C 8,3 C 86 % 1012,9 hPa 0,0 l/m 3,6 km/h (1 Bft) W-SW 251 0 min 0,000 mm 0,0 UV-I 0 W/m 7,4 C 9,6 C 4,8 km/h (1 Bft) 91,49 %
26.10.2018 05:58 9,6 C 11,1 C 8,3 C 86 % 1012,9 hPa 0,0 l/m 4,0 km/h (1 Bft) W 277 0 min 0,000 mm 0,0 UV-I 0 W/m 7,4 C 9,6 C 4,8 km/h (1 Bft) 90,00 %
26.10.2018 06:00 9,5 C 11,1 C 8,3 C 86 % 1012,9 hPa 0,0 l/m 3,7 km/h (1 Bft) W 259 0 min 0,000 mm 0,0 UV-I 0 W/m 7,3 C 9,5 C 6,4 km/h (2 Bft) 93,62 %
26.10.2018 06:02 9,4 C 11,1 C 8,3 C 86 % 1012,9 hPa 0,0 l/m 3,8 km/h (1 Bft) W-SW 247 0 min 0,000 mm 0,0 UV-I 0 W/m 7,2 C 9,4 C 4,8 km/h (1 Bft) 91,49 %
26.10.2018 06:04 9,4 C 11,1 C 8,3 C 86 % 1012,8 hPa 0,0 l/m 4,2 km/h (1 Bft) W-SW 245 0 min 0,000 mm 0,0 UV-I 0 W/m 7,2 C 9,4 C 4,8 km/h (1 Bft) 94,87 %
26.10.2018 06:06 9,3 C 11,1 C 8,3 C 87 % 1012,8 hPa 0,0 l/m 4,6 km/h (1 Bft) W-SW 242 0 min 0,000 mm 0,0 UV-I 0 W/m 7,2 C 9,3 C 6,4 km/h (2 Bft) 94,64 %
26.10.2018 06:08 9,3 C 11,1 C 7,8 C 87 % 1012,8 hPa 0,0 l/m 3,7 km/h (1 Bft) W-SW 242 0 min 0,000 mm 0,0 UV-I 0 W/m 7,2 C 9,3 C 4,8 km/h (1 Bft) 95,74 %
26.10.2018 06:10 9,3 C 11,1 C 7,8 C 87 % 1012,8 hPa 0,0 l/m 3,3 km/h (1 Bft) W-SW 242 0 min 0,000 mm 0,0 UV-I 0 W/m 7,2 C 9,3 C 4,8 km/h (1 Bft) 96,00 %
26.10.2018 06:12 9,3 C 11,1 C 7,8 C 87 % 1012,7 hPa 0,0 l/m 3,9 km/h (1 Bft) W-SW 242 0 min 0,000 mm 0,0 UV-I 0 W/m 7,2 C 9,3 C 4,8 km/h (1 Bft) 95,12 %
26.10.2018 06:14 9,3 C 11,1 C 7,8 C 87 % 1012,7 hPa 0,0 l/m 3,6 km/h (1 Bft) W-SW 242 0 min 0,000 mm 0,0 UV-I 0 W/m 7,2 C 9,3 C 4,8 km/h (1 Bft) 96,00 %
26.10.2018 06:16 9,1 C 11,1 C 7,8 C 87 % 1012,7 hPa 0,0 l/m 3,2 km/h (1 Bft) W-SW 242 0 min 0,000 mm 0,0 UV-I 0 W/m 7,1 C 9,1 C 4,8 km/h (1 Bft) 93,62 %
26.10.2018 06:18 9,0 C 11,1 C 7,8 C 88 % 1012,7 hPa 0,0 l/m 3,0 km/h (1 Bft) W-SW 241 0 min 0,000 mm 0,0 UV-I 0 W/m 7,1 C 9,0 C 3,2 km/h (1 Bft) 97,73 %
26.10.2018 06:20 8,8 C 11,1 C 7,2 C 88 % 1012,7 hPa 0,0 l/m 2,3 km/h (1 Bft) W-SW 241 0 min 0,000 mm 0,0 UV-I 0 W/m 6,9 C 8,8 C 3,2 km/h (1 Bft) 97,87 %
26.10.2018 06:22 8,7 C 11,1 C 7,2 C 89 % 1012,7 hPa 0,0 l/m 2,7 km/h (1 Bft) W-SW 241 0 min 0,000 mm 0,0 UV-I 0 W/m 7,0 C 8,7 C 3,2 km/h (1 Bft) 95,74 %
26.10.2018 06:24 8,7 C 11,1 C 6,7 C 89 % 1012,6 hPa 0,0 l/m 2,8 km/h (1 Bft) W-SW 241 0 min 0,000 mm 0,0 UV-I 0 W/m 7,0 C 8,7 C 3,2 km/h (1 Bft) 98,00 %
26.10.2018 06:26 8,6 C 11,1 C 6,7 C 89 % 1012,6 hPa 0,0 l/m 2,6 km/h (1 Bft) W-SW 241 0 min 0,000 mm 0,0 UV-I 0 W/m 6,9 C 8,6 C 3,2 km/h (1 Bft) 97,56 %
26.10.2018 06:28 8,5 C 11,1 C 6,7 C 89 % 1012,6 hPa 0,0 l/m 3,5 km/h (1 Bft) W-SW 238 0 min 0,000 mm 0,0 UV-I 0 W/m 6,8 C 8,5 C 4,8 km/h (1 Bft) 97,87 %
26.10.2018 06:30 8,4 C 11,1 C 6,1 C 90 % 1012,6 hPa 0,0 l/m 3,4 km/h (1 Bft) W-SW 238 0 min 0,000 mm 0,0 UV-I 0 W/m 6,9 C 8,4 C 4,8 km/h (1 Bft) 100,00 %
26.10.2018 06:32 8,4 C 11,1 C 6,1 C 90 % 1012,6 hPa 0,0 l/m 3,7 km/h (1 Bft) SW 232 0 min 0,000 mm 0,0 UV-I 0 W/m 6,9 C 8,4 C 4,8 km/h (1 Bft) 100,00 %
26.10.2018 06:34 8,3 C 11,1 C 6,1 C 90 % 1012,6 hPa 0,0 l/m 4,3 km/h (1 Bft) SW 225 0 min 0,000 mm 0,0 UV-I 0 W/m 6,8 C 8,3 C 4,8 km/h (1 Bft) 100,00 %
26.10.2018 06:36 8,2 C 11,1 C 6,1 C 90 % 1012,6 hPa 0,0 l/m 3,9 km/h (1 Bft) SW 225 0 min 0,000 mm 0,0 UV-I 0 W/m 6,7 C 8,2 C 4,8 km/h (1 Bft) 100,00 %
26.10.2018 06:38 8,2 C 11,1 C 6,1 C 90 % 1012,6 hPa 0,0 l/m 4,6 km/h (1 Bft) SW 214 0 min 0,000 mm 0,0 UV-I 0 W/m 6,7 C 8,2 C 6,4 km/h (2 Bft) 100,00 %
26.10.2018 06:40 8,2 C 11,1 C 6,1 C 90 % 1012,6 hPa 0,0 l/m 4,6 km/h (1 Bft) S-SW 213 0 min 0,000 mm 0,0 UV-I 0 W/m 6,7 C 8,2 C 6,4 km/h (2 Bft) 100,00 %
26.10.2018 06:42 8,1 C 11,1 C 6,1 C 91 % 1012,5 hPa 0,0 l/m 4,4 km/h (1 Bft) S-SW 213 0 min 0,000 mm 0,0 UV-I 0 W/m 6,7 C 8,1 C 4,8 km/h (1 Bft) 100,00 %
26.10.2018 06:44 8,1 C 11,1 C 6,1 C 91 % 1012,5 hPa 0,0 l/m 4,0 km/h (1 Bft) S-SW 213 0 min 0,000 mm 0,0 UV-I 0 W/m 6,7 C 8,1 C 4,8 km/h (1 Bft) 98,00 %
26.10.2018 06:46 8,1 C 11,1 C 5,6 C 91 % 1012,5 hPa 0,0 l/m 3,2 km/h (1 Bft) S-SW 213 0 min 0,000 mm 0,0 UV-I 0 W/m 6,7 C 8,1 C 4,8 km/h (1 Bft) 100,00 %
26.10.2018 06:48 8,1 C 11,1 C 5,6 C 91 % 1012,6 hPa 0,0 l/m 3,0 km/h (1 Bft) S-SW 213 0 min 0,000 mm 0,0 UV-I 0 W/m 6,7 C 8,1 C 4,8 km/h (1 Bft) 100,00 %
26.10.2018 06:50 8,1 C 11,1 C 5,6 C 91 % 1012,6 hPa 0,0 l/m 3,1 km/h (1 Bft) S-SW 213 0 min 0,000 mm 0,0 UV-I 0 W/m 6,7 C 8,1 C 4,8 km/h (1 Bft) 100,00 %
26.10.2018 06:52 8,1 C 11,1 C 5,6 C 91 % 1012,5 hPa 0,0 l/m 2,4 km/h (1 Bft) S-SW 213 0 min 0,000 mm 0,0 UV-I 0 W/m 6,7 C 8,1 C 3,2 km/h (1 Bft) 100,00 %
26.10.2018 06:54 8,0 C 11,1 C 5,6 C 91 % 1012,5 hPa 0,0 l/m 2,5 km/h (1 Bft) S-SW 213 0 min 0,000 mm 0,0 UV-I 0 W/m 6,6 C 8,0 C 3,2 km/h (1 Bft) 100,00 %
26.10.2018 06:56 7,9 C 11,1 C 5,6 C 91 % 1012,5 hPa 0,0 l/m 3,4 km/h (1 Bft) S-SW 213 0 min 0,000 mm 0,0 UV-I 0 W/m 6,5 C 7,9 C 4,8 km/h (1 Bft) 100,00 %
26.10.2018 06:58 7,8 C 11,1 C 5,6 C 91 % 1012,5 hPa 0,0 l/m 3,2 km/h (1 Bft) S-SW 213 0 min 0,000 mm 0,0 UV-I 0 W/m 6,4 C 7,8 C 4,8 km/h (1 Bft) 98,00 %
26.10.2018 07:00 7,8 C 11,1 C 5,6 C 91 % 1012,5 hPa 0,0 l/m 2,1 km/h (1 Bft) S-SW 213 0 min 0,000 mm 0,0 UV-I 0 W/m 6,4 C 7,8 C 3,2 km/h (1 Bft) 97,87 %
26.10.2018 07:02 7,8 C 11,1 C 5,6 C 91 % 1012,5 hPa 0,0 l/m 1,9 km/h (1 Bft) S-SW 213 0 min 0,000 mm 0,0 UV-I 0 W/m 6,4 C 7,8 C 3,2 km/h (1 Bft) 100,00 %
26.10.2018 07:04 7,8 C 11,1 C 6,1 C 92 % 1012,5 hPa 0,0 l/m 2,3 km/h (1 Bft) S-SW 213 0 min 0,000 mm 0,0 UV-I 0 W/m 6,6 C 7,8 C 3,2 km/h (1 Bft) 96,00 %
26.10.2018 07:06 7,8 C 11,1 C 6,1 C 92 % 1012,6 hPa 0,0 l/m 3,4 km/h (1 Bft) S-SW 213 0 min 0,000 mm 0,0 UV-I 0 W/m 6,6 C 7,8 C 4,8 km/h (1 Bft) 100,00 %
26.10.2018 07:08 7,9 C 11,1 C 6,1 C 92 % 1012,6 hPa 0,0 l/m 4,0 km/h (1 Bft) S-SW 213 0 min 0,000 mm 0,0 UV-I 0 W/m 6,7 C 7,9 C 4,8 km/h (1 Bft) 96,77 %
26.10.2018 07:10 7,9 C 11,1 C 6,1 C 92 % 1012,6 hPa 0,0 l/m 2,7 km/h (1 Bft) S-SW 213 0 min 0,000 mm 0,0 UV-I 0 W/m 6,7 C 7,9 C 3,2 km/h (1 Bft) 98,00 %
26.10.2018 07:12 7,9 C 11,1 C 6,7 C 92 % 1012,5 hPa 0,0 l/m 2,9 km/h (1 Bft) S-SW 213 0 min 0,000 mm 0,0 UV-I 0 W/m 6,7 C 7,9 C 4,8 km/h (1 Bft) 97,87 %
26.10.2018 07:14 8,1 C 11,1 C 6,7 C 92 % 1012,5 hPa 0,0 l/m 2,4 km/h (1 Bft) S-SW 213 0 min 0,000 mm 0,0 UV-I 0 W/m 6,9 C 8,1 C 3,2 km/h (1 Bft) 97,37 %
26.10.2018 07:16 8,2 C 11,1 C 6,1 C 91 % 1012,5 hPa 0,0 l/m 1,7 km/h (1 Bft) S-SW 213 0 min 0,000 mm 0,0 UV-I 0 W/m 6,8 C 8,2 C 3,2 km/h (1 Bft) 97,92 %
26.10.2018 07:18 8,2 C 11,1 C 6,7 C 91 % 1012,5 hPa 0,0 l/m 1,8 km/h (1 Bft) S-SW 213 0 min 0,000 mm 0,0 UV-I 0 W/m 6,8 C 8,2 C 3,2 km/h (1 Bft) 97,87 %
26.10.2018 07:20 8,2 C 11,1 C 6,7 C 91 % 1012,5 hPa 0,0 l/m 2,0 km/h (1 Bft) S-SW 213 0 min 0,000 mm 0,0 UV-I 0 W/m 6,8 C 8,2 C 3,2 km/h (1 Bft) 97,87 %
26.10.2018 07:22 8,1 C 11,1 C 6,7 C 91 % 1012,5 hPa 0,0 l/m 1,9 km/h (1 Bft) S-SW 213 0 min 0,000 mm 0,0 UV-I 0 W/m 6,7 C 8,1 C 3,2 km/h (1 Bft) 96,23 %
26.10.2018 07:24 8,0 C 11,1 C 6,7 C 91 % 1012,5 hPa 0,0 l/m 2,2 km/h (1 Bft) S-SW 213 0 min 0,000 mm 0,0 UV-I 0 W/m 6,6 C 8,0 C 3,2 km/h (1 Bft) 97,50 %
26.10.2018 07:26 7,9 C 11,1 C 6,7 C 91 % 1012,4 hPa 0,0 l/m 2,6 km/h (1 Bft) S-SW 213 0 min 0,000 mm 0,0 UV-I 0 W/m 6,5 C 7,9 C 3,2 km/h (1 Bft) 100,00 %
26.10.2018 07:28 7,9 C 11,1 C 6,7 C 91 % 1012,4 hPa 0,0 l/m 4,0 km/h (1 Bft) S-SW 212 0 min 0,000 mm 0,0 UV-I 0 W/m 6,5 C 7,9 C 4,8 km/h (1 Bft) 97,87 %
26.10.2018 07:30 7,9 C 11,1 C 6,1 C 92 % 1012,4 hPa 0,0 l/m 3,0 km/h (1 Bft) S-SW 212 0 min 0,000 mm 0,0 UV-I 5 W/m 6,7 C 7,9 C 4,8 km/h (1 Bft) 96,00 %
26.10.2018 07:32 7,8 C 11,1 C 6,1 C 91 % 1012,3 hPa 0,0 l/m 3,2 km/h (1 Bft) W 268 0 min 0,000 mm 0,0 UV-I 5 W/m 6,4 C 7,8 C 4,8 km/h (1 Bft) 100,00 %
26.10.2018 07:34 7,8 C 11,1 C 6,1 C 92 % 1012,3 hPa 0,0 l/m 4,3 km/h (1 Bft) W 268 0 min 0,000 mm 0,0 UV-I 5 W/m 6,6 C 7,8 C 4,8 km/h (1 Bft) 96,00 %
26.10.2018 07:36 7,8 C 11,1 C 6,1 C 91 % 1012,4 hPa 0,0 l/m 4,3 km/h (1 Bft) W 268 0 min 0,000 mm 0,0 UV-I 7 W/m 6,4 C 7,8 C 6,4 km/h (2 Bft) 100,00 %
26.10.2018 07:38 7,8 C 11,1 C 6,1 C 92 % 1012,4 hPa 0,0 l/m 4,3 km/h (1 Bft) W 268 0 min 0,000 mm 0,0 UV-I 7 W/m 6,6 C 7,8 C 4,8 km/h (1 Bft) 98,00 %
26.10.2018 07:40 7,9 C 11,1 C 5,6 C 92 % 1012,4 hPa 0,0 l/m 3,1 km/h (1 Bft) W 268 0 min 0,000 mm 0,0 UV-I 9 W/m 6,7 C 7,9 C 4,8 km/h (1 Bft) 100,00 %
26.10.2018 07:42 7,9 C 11,1 C 5,6 C 92 % 1012,4 hPa 0,0 l/m 3,1 km/h (1 Bft) W 268 0 min 0,000 mm 0,0 UV-I 11 W/m 6,7 C 7,9 C 4,8 km/h (1 Bft) 100,00 %
26.10.2018 07:44 7,9 C 11,1 C 5,6 C 91 % 1012,3 hPa 0,0 l/m 3,3 km/h (1 Bft) SW 234 0 min 0,000 mm 0,0 UV-I 12 W/m 6,5 C 7,9 C 4,8 km/h (1 Bft) 98,00 %
26.10.2018 07:46 7,8 C 11,1 C 5,0 C 91 % 1012,4 hPa 0,0 l/m 3,7 km/h (1 Bft) S-SW 209 0 min 0,000 mm 0,0 UV-I 13 W/m 6,4 C 7,8 C 4,8 km/h (1 Bft) 100,00 %
26.10.2018 07:48 7,8 C 11,1 C 5,0 C 91 % 1012,4 hPa 0,0 l/m 2,4 km/h (1 Bft) S-SO 156 0 min 0,000 mm 0,0 UV-I 15 W/m 6,4 C 7,8 C 3,2 km/h (1 Bft) 100,00 %
26.10.2018 07:50 7,7 C 11,1 C 5,0 C 91 % 1012,4 hPa 0,0 l/m 3,2 km/h (1 Bft) S-SO 156 2 min 0,000 mm 0,0 UV-I 18 W/m 6,3 C 7,7 C 4,8 km/h (1 Bft) 100,00 %
26.10.2018 07:52 7,7 C 11,1 C 5,0 C 91 % 1012,4 hPa 0,0 l/m 4,1 km/h (1 Bft) S-SO 157 2 min 0,000 mm 0,0 UV-I 20 W/m 6,3 C 7,7 C 4,8 km/h (1 Bft) 100,00 %
26.10.2018 07:54 7,7 C 11,1 C 5,0 C 92 % 1012,4 hPa 0,0 l/m 4,0 km/h (1 Bft) S-SO 157 2 min 0,000 mm 0,0 UV-I 22 W/m 6,5 C 7,7 C 4,8 km/h (1 Bft) 100,00 %
26.10.2018 07:56 7,7 C 11,1 C 5,0 C 91 % 1012,3 hPa 0,0 l/m 3,1 km/h (1 Bft) S-SO 157 2 min 0,000 mm 0,0 UV-I 24 W/m 6,3 C 7,7 C 3,2 km/h (1 Bft) 100,00 %
26.10.2018 07:58 7,6 C 11,1 C 5,0 C 92 % 1012,4 hPa 0,0 l/m 3,1 km/h (1 Bft) S-SO 157 2 min 0,000 mm 0,0 UV-I 27 W/m 6,4 C 7,6 C 3,2 km/h (1 Bft) 100,00 %
26.10.2018 08:00 7,6 C 11,1 C 5,6 C 92 % 1012,4 hPa 0,0 l/m 3,1 km/h (1 Bft) S-SO 157 2 min 0,000 mm 0,0 UV-I 32 W/m 6,4 C 7,6 C 4,8 km/h (1 Bft) 100,00 %
26.10.2018 08:02 7,7 C 11,1 C 5,6 C 92 % 1012,4 hPa 0,0 l/m 2,5 km/h (1 Bft) S-SO 157 2 min 0,000 mm 0,0 UV-I 36 W/m 6,5 C 7,7 C 3,2 km/h (1 Bft) 100,00 %
26.10.2018 08:04 7,7 C 11,1 C 5,6 C 92 % 1012,4 hPa 0,0 l/m 2,8 km/h (1 Bft) S-SO 157 2 min 0,000 mm 0,0 UV-I 39 W/m 6,5 C 7,7 C 3,2 km/h (1 Bft) 97,87 %
26.10.2018 08:06 7,7 C 11,1 C 5,6 C 91 % 1012,4 hPa 0,0 l/m 2,7 km/h (1 Bft) S-SO 157 2 min 0,000 mm 0,0 UV-I 40 W/m 6,3 C 7,7 C 4,8 km/h (1 Bft) 100,00 %
26.10.2018 08:08 7,7 C 11,1 C 6,1 C 92 % 1012,4 hPa 0,0 l/m 4,6 km/h (1 Bft) S-SO 157 2 min 0,000 mm 0,0 UV-I 42 W/m 6,5 C 7,7 C 4,8 km/h (1 Bft) 98,11 %
26.10.2018 08:10 7,7 C 11,1 C 6,1 C 92 % 1012,4 hPa 0,0 l/m 2,7 km/h (1 Bft) S-SO 157 2 min 0,000 mm 0,0 UV-I 52 W/m 6,5 C 7,7 C 4,8 km/h (1 Bft) 100,00 %
26.10.2018 08:12 7,6 C 11,1 C 6,7 C 92 % 1012,4 hPa 0,0 l/m 1,8 km/h (1 Bft) S-SO 157 2 min 0,000 mm 0,0 UV-I 63 W/m 6,4 C 7,6 C 3,2 km/h (1 Bft) 98,00 %
26.10.2018 08:14 7,6 C 11,1 C 6,7 C 92 % 1012,5 hPa 0,0 l/m 2,5 km/h (1 Bft) S-SO 157 2 min 0,000 mm 0,0 UV-I 72 W/m 6,4 C 7,6 C 3,2 km/h (1 Bft) 97,56 %
26.10.2018 08:16 7,7 C 11,1 C 6,7 C 92 % 1012,5 hPa 0,0 l/m 1,9 km/h (1 Bft) S-SO 157 2 min 0,000 mm 0,0 UV-I 80 W/m 6,5 C 7,7 C 3,2 km/h (1 Bft) 97,87 %
26.10.2018 08:18 7,8 C 11,1 C 7,2 C 92 % 1012,5 hPa 0,0 l/m 1,1 km/h (1 Bft) S-SO 157 2 min 0,000 mm 0,0 UV-I 83 W/m 6,6 C 7,8 C 1,6 km/h (1 Bft) 96,23 %
26.10.2018 08:20 8,0 C 11,1 C 7,2 C 92 % 1012,5 hPa 0,0 l/m 0,3 km/h (0 Bft) S-SO 157 2 min 0,000 mm 0,0 UV-I 87 W/m 6,8 C 8,0 C 1,6 km/h (1 Bft) 100,00 %
26.10.2018 08:22 8,1 C 11,1 C 7,2 C 91 % 1012,4 hPa 0,0 l/m 1,8 km/h (1 Bft) S-SO 157 2 min 0,000 mm 0,0 UV-I 93 W/m 6,7 C 8,1 C 3,2 km/h (1 Bft) 94,34 %
26.10.2018 08:24 8,2 C 11,1 C 7,8 C 91 % 1012,5 hPa 0,0 l/m 1,3 km/h (1 Bft) S-SO 157 2 min 0,000 mm 0,0 UV-I 100 W/m 6,8 C 8,2 C 3,2 km/h (1 Bft) 92,68 %
26.10.2018 08:26 8,2 C 11,1 C 7,8 C 91 % 1012,4 hPa 0,0 l/m 2,0 km/h (1 Bft) S-SO 157 2 min 0,000 mm 0,0 UV-I 97 W/m 6,8 C 8,2 C 3,2 km/h (1 Bft) 96,00 %
26.10.2018 08:28 8,3 C 11,1 C 8,3 C 91 % 1012,4 hPa 0,0 l/m 1,9 km/h (1 Bft) S-SO 157 2 min 0,000 mm 0,0 UV-I 93 W/m 6,9 C 8,3 C 3,2 km/h (1 Bft) 95,12 %
26.10.2018 08:30 8,3 C 11,1 C 8,3 C 91 % 1012,4 hPa 0,0 l/m 1,6 km/h (1 Bft) S-SO 157 2 min 0,000 mm 0,0 UV-I 70 W/m 6,9 C 8,3 C 3,2 km/h (1 Bft) 92,45 %
26.10.2018 08:32 8,3 C 11,1 C 8,3 C 91 % 1012,5 hPa 0,0 l/m 1,5 km/h (1 Bft) S-SO 157 0 min 0,000 mm 0,0 UV-I 62 W/m 6,9 C 8,3 C 3,2 km/h (1 Bft) 95,74 %
26.10.2018 08:34 8,4 C 11,1 C 8,3 C 91 % 1012,4 hPa 0,0 l/m 0,3 km/h (0 Bft) S-SO 157 0 min 0,000 mm 0,0 UV-I 67 W/m 7,0 C 8,4 C 1,6 km/h (1 Bft) 94,44 %
26.10.2018 08:36 8,5 C 11,1 C 8,3 C 91 % 1012,4 hPa 0,0 l/m 0,3 km/h (0 Bft) S-SO 157 0 min 0,000 mm 0,0 UV-I 71 W/m 7,1 C 8,5 C 1,6 km/h (1 Bft) 96,23 %
26.10.2018 08:38 8,6 C 11,1 C 8,3 C 91 % 1012,4 hPa 0,0 l/m 0,9 km/h (0 Bft) S-SO 157 0 min 0,000 mm 0,0 UV-I 76 W/m 7,2 C 8,6 C 1,6 km/h (1 Bft) 94,00 %
26.10.2018 08:40 8,7 C 11,1 C 8,3 C 90 % 1012,4 hPa 0,0 l/m 1,1 km/h (1 Bft) S-SO 157 2 min 0,000 mm 0,0 UV-I 90 W/m 7,2 C 8,7 C 1,6 km/h (1 Bft) 96,23 %
26.10.2018 08:42 8,7 C 11,1 C 8,3 C 90 % 1012,4 hPa 0,0 l/m 1,0 km/h (0 Bft) S-SO 157 0 min 0,000 mm 0,0 UV-I 77 W/m 7,2 C 8,7 C 1,6 km/h (1 Bft) 97,56 %
26.10.2018 08:45 8,6 C 11,1 C 8,9 C 90 % 1012,4 hPa 0,0 l/m 1,5 km/h (1 Bft) S-SO 157 0 min 0,000 mm 0,0 UV-I 72 W/m 7,1 C 8,6 C 3,2 km/h (1 Bft) 98,51 %
26.10.2018 08:46 8,6 C 11,1 C 8,9 C 90 % 1012,4 hPa 0,0 l/m 1,5 km/h (1 Bft) S-SO 157 0 min 0,000 mm 0,0 UV-I 76 W/m 7,1 C 8,6 C 3,2 km/h (1 Bft) 96,30 %
26.10.2018 08:48 8,6 C 11,1 C 8,9 C 90 % 1012,4 hPa 0,0 l/m 1,2 km/h (1 Bft) S-SO 157 0 min 0,000 mm 0,0 UV-I 68 W/m 7,1 C 8,6 C 3,2 km/h (1 Bft) 100,00 %
26.10.2018 08:50 8,6 C 11,1 C 8,9 C 90 % 1012,3 hPa 0,0 l/m 1,1 km/h (1 Bft) S-SO 157 0 min 0,000 mm 0,0 UV-I 69 W/m 7,1 C 8,6 C 3,2 km/h (1 Bft) 100,00 %
26.10.2018 08:52 8,6 C 11,1 C 8,9 C 90 % 1012,3 hPa 0,0 l/m 2,5 km/h (1 Bft) S-SO 157 0 min 0,000 mm 0,0 UV-I 71 W/m 7,1 C 8,6 C 4,8 km/h (1 Bft) 100,00 %
26.10.2018 08:54 8,6 C 11,1 C 9,4 C 90 % 1012,3 hPa 0,0 l/m 1,6 km/h (1 Bft) S-SO 157 0 min 0,000 mm 0,0 UV-I 74 W/m 7,1 C 8,6 C 3,2 km/h (1 Bft) 100,00 %
26.10.2018 08:56 8,7 C 11,1 C 9,4 C 90 % 1012,3 hPa 0,0 l/m 1,1 km/h (1 Bft) S-SO 157 0 min 0,000 mm 0,0 UV-I 76 W/m 7,2 C 8,7 C 3,2 km/h (1 Bft) 100,00 %
26.10.2018 08:58 8,8 C 11,1 C 9,4 C 90 % 1012,4 hPa 0,0 l/m 1,9 km/h (1 Bft) S-SO 157 0 min 0,000 mm 0,0 UV-I 76 W/m 7,3 C 8,8 C 3,2 km/h (1 Bft) 100,00 %
26.10.2018 09:00 8,9 C 11,1 C 9,4 C 90 % 1012,3 hPa 0,0 l/m 1,4 km/h (1 Bft) S-SO 157 0 min 0,025 mm 0,0 UV-I 77 W/m 7,4 C 8,9 C 1,6 km/h (1 Bft) 100,00 %
26.10.2018 09:02 8,9 C 11,1 C 9,4 C 90 % 1012,3 hPa 0,0 l/m 1,3 km/h (1 Bft) S-SO 157 0 min 0,000 mm 0,0 UV-I 79 W/m 7,4 C 8,9 C 3,2 km/h (1 Bft) 97,87 %
26.10.2018 09:04 9,0 C 11,1 C 9,4 C 89 % 1012,3 hPa 0,0 l/m 2,2 km/h (1 Bft) S-SO 157 0 min 0,000 mm 0,0 UV-I 83 W/m 7,3 C 9,0 C 3,2 km/h (1 Bft) 97,56 %
26.10.2018 09:06 9,1 C 11,1 C 9,4 C 89 % 1012,3 hPa 0,0 l/m 2,4 km/h (1 Bft) S-SO 157 0 min 0,000 mm 0,0 UV-I 83 W/m 7,4 C 9,1 C 3,2 km/h (1 Bft) 98,11 %
26.10.2018 09:08 9,1 C 11,1 C 9,4 C 89 % 1012,2 hPa 0,0 l/m 2,6 km/h (1 Bft) S-SO 157 0 min 0,000 mm 0,0 UV-I 80 W/m 7,4 C 9,1 C 4,8 km/h (1 Bft) 94,34 %
26.10.2018 09:10 9,1 C 11,1 C 9,4 C 89 % 1012,2 hPa 0,0 l/m 2,1 km/h (1 Bft) S-SO 157 0 min 0,000 mm 0,0 UV-I 77 W/m 7,4 C 9,1 C 3,2 km/h (1 Bft) 97,56 %
26.10.2018 09:12 9,1 C 11,1 C 9,4 C 89 % 1012,3 hPa 0,0 l/m 0,8 km/h (0 Bft) S-SO 157 0 min 0,000 mm 0,0 UV-I 75 W/m 7,4 C 9,1 C 1,6 km/h (1 Bft) 100,00 %
26.10.2018 09:14 9,0 C 11,1 C 9,4 C 89 % 1012,3 hPa 0,0 l/m 0,3 km/h (0 Bft) S-SO 157 0 min 0,000 mm 0,0 UV-I 73 W/m 7,3 C 9,0 C 1,6 km/h (1 Bft) 96,92 %
26.10.2018 09:16 9,0 C 11,1 C 9,4 C 89 % 1012,3 hPa 0,0 l/m 0,0 km/h (0 Bft) S-SO 157 0 min 0,000 mm 0,0 UV-I 72 W/m 7,3 C 9,0 C 0,0 km/h (0 Bft) 98,00 %
26.10.2018 09:18 9,0 C 11,1 C 8,9 C 88 % 1012,3 hPa 0,0 l/m 0,0 km/h (0 Bft) S-SO 157 0 min 0,000 mm 0,0 UV-I 70 W/m 7,1 C 9,0 C 0,0 km/h (0 Bft) 98,00 %
26.10.2018 09:20 8,9 C 11,1 C 8,9 C 88 % 1012,3 hPa 0,0 l/m 0,0 km/h (0 Bft) S-SO 157 0 min 0,000 mm 0,0 UV-I 66 W/m 7,0 C 8,9 C 0,0 km/h (0 Bft) 97,37 %
26.10.2018 09:22 8,9 C 11,1 C 8,3 C 89 % 1012,2 hPa 0,0 l/m 0,0 km/h (0 Bft) S-SO 157 0 min 0,000 mm 0,0 UV-I 63 W/m 7,2 C 8,9 C 0,0 km/h (0 Bft) 98,00 %
26.10.2018 09:24 8,9 C 11,1 C 8,3 C 89 % 1012,3 hPa 0,0 l/m 0,0 km/h (0 Bft) S-SO 157 0 min 0,000 mm 0,0 UV-I 66 W/m 7,2 C 8,9 C 0,0 km/h (0 Bft) 98,00 %
26.10.2018 09:26 8,9 C 11,1 C 7,8 C 89 % 1012,3 hPa 0,0 l/m 0,0 km/h (0 Bft) S-SO 157 0 min 0,000 mm 0,0 UV-I 75 W/m 7,2 C 8,9 C 1,6 km/h (1 Bft) 97,73 %
26.10.2018 09:28 8,9 C 11,1 C 8,3 C 89 % 1012,4 hPa 0,0 l/m 1,1 km/h (1 Bft) S-SO 157 0 min 0,000 mm 0,0 UV-I 88 W/m 7,2 C 8,9 C 1,6 km/h (1 Bft) 97,87 %
26.10.2018 09:30 8,9 C 11,1 C 8,9 C 89 % 1012,4 hPa 0,0 l/m 1,1 km/h (1 Bft) S-SO 157 0 min 0,000 mm 0,0 UV-I 133 W/m 7,2 C 8,9 C 1,6 km/h (1 Bft) 95,74 %
26.10.2018 09:32 9,0 C 11,1 C 9,4 C 89 % 1012,3 hPa 0,0 l/m 0,2 km/h (0 Bft) S-SO 157 2 min 0,000 mm 0,0 UV-I 197 W/m 7,3 C 9,0 C 1,6 km/h (1 Bft) 96,23 %
26.10.2018 09:34 9,2 C 11,1 C 10,0 C 89 % 1012,3 hPa 0,0 l/m 0,0 km/h (0 Bft) S-SO 157 2 min 0,000 mm 0,0 UV-I 246 W/m 7,5 C 9,2 C 0,0 km/h (0 Bft) 97,87 %
26.10.2018 09:36 9,2 C 11,1 C 10,6 C 88 % 1012,3 hPa 0,0 l/m 0,0 km/h (0 Bft) S-SO 157 2 min 0,000 mm 0,0 UV-I 223 W/m 7,3 C 9,2 C 0,0 km/h (0 Bft) 94,29 %
26.10.2018 09:38 9,3 C 11,1 C 11,1 C 88 % 1012,3 hPa 0,0 l/m 0,0 km/h (0 Bft) S-SO 157 2 min 0,000 mm 0,0 UV-I 230 W/m 7,4 C 9,3 C 0,0 km/h (0 Bft) 96,23 %
26.10.2018 09:40 9,5 C 11,1 C 11,1 C 87 % 1012,3 hPa 0,0 l/m 0,0 km/h (0 Bft) S-SO 157 2 min 0,000 mm 0,0 UV-I 185 W/m 7,4 C 9,5 C 1,6 km/h (1 Bft) 96,00 %
26.10.2018 09:42 9,6 C 11,1 C 11,1 C 87 % 1012,2 hPa 0,0 l/m 1,0 km/h (0 Bft) S-SO 157 2 min 0,000 mm 0,0 UV-I 170 W/m 7,5 C 9,6 C 1,6 km/h (1 Bft) 95,74 %
26.10.2018 09:44 9,7 C 11,1 C 11,1 C 86 % 1012,3 hPa 0,0 l/m 0,7 km/h (0 Bft) S-SO 167 0 min 0,000 mm 0,0 UV-I 151 W/m 7,5 C 9,7 C 1,6 km/h (1 Bft) 94,74 %
26.10.2018 09:46 9,7 C 11,1 C 11,1 C 86 % 1012,2 hPa 0,0 l/m 0,1 km/h (0 Bft) S-SO 166 0 min 0,000 mm 0,0 UV-I 113 W/m 7,5 C 9,7 C 1,6 km/h (1 Bft) 93,62 %
26.10.2018 09:48 9,8 C 11,1 C 10,6 C 86 % 1012,2 hPa 0,0 l/m 0,0 km/h (0 Bft) S-SO 167 0 min 0,000 mm 0,0 UV-I 117 W/m 7,6 C 9,8 C 0,0 km/h (0 Bft) 96,00 %
26.10.2018 09:50 9,8 C 11,1 C 10,6 C 86 % 1012,2 hPa 0,0 l/m 0,1 km/h (0 Bft) S-SO 167 2 min 0,000 mm 0,2 UV-I 180 W/m 7,6 C 9,8 C 1,6 km/h (1 Bft) 94,00 %
26.10.2018 09:52 9,9 C 11,1 C 10,6 C 86 % 1012,1 hPa 0,0 l/m 1,0 km/h (0 Bft) S-SO 167 2 min 0,000 mm 0,5 UV-I 235 W/m 7,7 C 9,9 C 1,6 km/h (1 Bft) 93,75 %
26.10.2018 09:54 9,9 C 11,1 C 10,6 C 86 % 1012,1 hPa 0,0 l/m 0,7 km/h (0 Bft) S-SO 167 2 min 0,000 mm 0,5 UV-I 219 W/m 7,7 C 9,9 C 1,6 km/h (1 Bft) 98,00 %
26.10.2018 09:56 9,9 C 11,1 C 10,6 C 86 % 1012,2 hPa 0,0 l/m 0,8 km/h (0 Bft) S-SO 167 2 min 0,000 mm 0,5 UV-I 268 W/m 7,7 C 9,9 C 1,6 km/h (1 Bft) 95,74 %
26.10.2018 09:58 10,1 C 11,1 C 11,1 C 86 % 1012,2 hPa 0,0 l/m 1,3 km/h (1 Bft) S-SO 167 2 min 0,000 mm 0,5 UV-I 286 W/m 7,9 C 10,1 C 4,8 km/h (1 Bft) 94,74 %
26.10.2018 10:00 10,2 C 11,1 C 11,1 C 85 % 1012,2 hPa 0,0 l/m 2,2 km/h (1 Bft) S-SO 167 2 min 0,000 mm 0,5 UV-I 295 W/m 7,8 C 10,2 C 4,8 km/h (1 Bft) 95,74 %
26.10.2018 10:02 10,3 C 11,1 C 11,7 C 85 % 1012,2 hPa 0,0 l/m 2,1 km/h (1 Bft) S-SO 167 2 min 0,076 mm 0,5 UV-I 299 W/m 7,9 C 10,3 C 4,8 km/h (1 Bft) 98,11 %
26.10.2018 10:04 10,3 C 11,1 C 11,7 C 84 % 1012,1 hPa 0,0 l/m 0,3 km/h (0 Bft) S-SO 167 2 min 0,000 mm 0,6 UV-I 304 W/m 7,7 C 10,3 C 1,6 km/h (1 Bft) 95,12 %
26.10.2018 10:06 10,4 C 11,1 C 11,7 C 84 % 1012,1 hPa 0,0 l/m 0,3 km/h (0 Bft) S-SO 167 2 min 0,000 mm 0,6 UV-I 303 W/m 7,8 C 10,4 C 1,6 km/h (1 Bft) 98,00 %
26.10.2018 10:08 10,6 C 11,1 C 11,7 C 84 % 1012,0 hPa 0,0 l/m 0,3 km/h (0 Bft) S-SO 167 2 min 0,000 mm 0,6 UV-I 298 W/m 8,0 C 10,6 C 1,6 km/h (1 Bft) 94,00 %
26.10.2018 10:10 10,8 C 11,1 C 11,7 C 84 % 1011,9 hPa 0,0 l/m 0,9 km/h (0 Bft) S-SO 167 2 min 0,000 mm 0,6 UV-I 297 W/m 8,2 C 10,8 C 1,6 km/h (1 Bft) 94,74 %
26.10.2018 10:12 10,8 C 11,1 C 11,7 C 83 % 1011,9 hPa 0,0 l/m 0,3 km/h (0 Bft) S-SO 167 2 min 0,000 mm 0,6 UV-I 301 W/m 8,0 C 10,8 C 1,6 km/h (1 Bft) 95,74 %
26.10.2018 10:14 10,9 C 11,1 C 11,7 C 84 % 1011,9 hPa 0,0 l/m 0,2 km/h (0 Bft) S-SO 167 2 min 0,000 mm 0,6 UV-I 307 W/m 8,3 C 10,9 C 1,6 km/h (1 Bft) 94,34 %
26.10.2018 10:16 11,2 C 11,1 C 11,7 C 83 % 1011,9 hPa 0,0 l/m 2,3 km/h (1 Bft) S-SO 167 2 min 0,000 mm 0,7 UV-I 313 W/m 8,4 C 11,2 C 4,8 km/h (1 Bft) 96,00 %
26.10.2018 10:18 11,4 C 11,1 C 11,7 C 82 % 1011,9 hPa 0,0 l/m 2,2 km/h (1 Bft) S-SO 167 2 min 0,000 mm 0,7 UV-I 317 W/m 8,4 C 11,4 C 4,8 km/h (1 Bft) 94,29 %
26.10.2018 10:20 11,6 C 11,1 C 11,7 C 82 % 1011,8 hPa 0,0 l/m 3,3 km/h (1 Bft) O-NO 71 2 min 0,000 mm 0,7 UV-I 319 W/m 8,6 C 11,6 C 4,8 km/h (1 Bft) 97,44 %
26.10.2018 10:22 11,7 C 11,1 C 11,7 C 82 % 1011,8 hPa 0,0 l/m 2,0 km/h (1 Bft) O-NO 71 2 min 0,000 mm 0,7 UV-I 324 W/m 8,7 C 11,7 C 3,2 km/h (1 Bft) 94,03 %
26.10.2018 10:24 11,7 C 11,1 C 11,7 C 82 % 1011,8 hPa 0,0 l/m 2,3 km/h (1 Bft) O-NO 71 2 min 0,000 mm 0,7 UV-I 330 W/m 8,7 C 11,7 C 3,2 km/h (1 Bft) 94,87 %
26.10.2018 10:26 11,7 C 11,1 C 12,2 C 82 % 1011,7 hPa 0,0 l/m 2,2 km/h (1 Bft) O-NO 71 2 min 0,000 mm 0,7 UV-I 330 W/m 8,7 C 11,7 C 3,2 km/h (1 Bft) 95,74 %
26.10.2018 10:28 11,8 C 11,1 C 12,2 C 82 % 1011,8 hPa 0,0 l/m 1,6 km/h (1 Bft) O-NO 71 2 min 0,000 mm 0,7 UV-I 334 W/m 8,8 C 11,8 C 3,2 km/h (1 Bft) 94,74 %
26.10.2018 10:30 12,0 C 11,1 C 12,2 C 81 % 1011,8 hPa 0,0 l/m 1,8 km/h (1 Bft) O-NO 71 2 min 0,000 mm 0,7 UV-I 335 W/m 8,8 C 12,0 C 4,8 km/h (1 Bft) 96,43 %
26.10.2018 10:32 11,9 C 11,1 C 12,2 C 80 % 1011,8 hPa 0,0 l/m 2,1 km/h (1 Bft) O-NO 71 2 min 0,000 mm 0,8 UV-I 337 W/m 8,6 C 11,9 C 3,2 km/h (1 Bft) 94,34 %
26.10.2018 10:34 11,9 C 11,1 C 12,8 C 80 % 1011,8 hPa 0,0 l/m 1,4 km/h (1 Bft) O-NO 71 2 min 0,000 mm 0,8 UV-I 340 W/m 8,6 C 11,9 C 3,2 km/h (1 Bft) 95,45 %
26.10.2018 10:36 11,9 C 11,1 C 12,8 C 79 % 1011,8 hPa 0,0 l/m 1,9 km/h (1 Bft) O-NO 71 2 min 0,000 mm 0,8 UV-I 344 W/m 8,4 C 11,9 C 3,2 km/h (1 Bft) 93,62 %
26.10.2018 10:38 12,0 C 11,1 C 12,8 C 78 % 1011,8 hPa 0,0 l/m 1,4 km/h (1 Bft) O-NO 71 2 min 0,000 mm 0,8 UV-I 346 W/m 8,3 C 12,0 C 3,2 km/h (1 Bft) 97,87 %
26.10.2018 10:40 12,1 C 11,1 C 13,3 C 78 % 1011,6 hPa 0,0 l/m 0,6 km/h (0 Bft) O-NO 71 2 min 0,000 mm 0,8 UV-I 349 W/m 8,4 C 12,1 C 1,6 km/h (1 Bft) 98,00 %
26.10.2018 10:42 12,3 C 11,1 C 13,3 C 78 % 1011,6 hPa 0,0 l/m 1,1 km/h (1 Bft) O-NO 71 2 min 0,000 mm 0,8 UV-I 352 W/m 8,6 C 12,3 C 3,2 km/h (1 Bft) 97,87 %
26.10.2018 10:44 12,3 C 11,1 C 13,9 C 76 % 1011,6 hPa 0,0 l/m 2,4 km/h (1 Bft) O-NO 71 2 min 0,000 mm 0,9 UV-I 358 W/m 8,2 C 12,3 C 4,8 km/h (1 Bft) 94,74 %
26.10.2018 10:46 12,3 C 11,1 C 14,4 C 76 % 1011,6 hPa 0,0 l/m 3,7 km/h (1 Bft) SW 236 2 min 0,000 mm 0,9 UV-I 360 W/m 8,2 C 12,3 C 6,4 km/h (2 Bft) 96,00 %
26.10.2018 10:48 12,3 C 11,1 C 15,6 C 76 % 1011,6 hPa 0,0 l/m 2,5 km/h (1 Bft) W-NW 282 2 min 0,000 mm 0,9 UV-I 360 W/m 8,2 C 12,3 C 4,8 km/h (1 Bft) 97,87 %
26.10.2018 10:50 12,3 C 11,1 C 16,7 C 77 % 1011,6 hPa 0,0 l/m 2,5 km/h (1 Bft) W-NW 289 2 min 0,000 mm 0,9 UV-I 362 W/m 8,4 C 12,3 C 4,8 km/h (1 Bft) 93,62 %
26.10.2018 10:52 12,4 C 11,1 C 17,2 C 78 % 1011,5 hPa 0,0 l/m 1,5 km/h (1 Bft) NW 325 2 min 0,000 mm 0,9 UV-I 365 W/m 8,7 C 12,4 C 4,8 km/h (1 Bft) 93,62 %
26.10.2018 10:54 12,6 C 11,1 C 18,3 C 77 % 1011,5 hPa 0,0 l/m 1,7 km/h (1 Bft) NW 324 2 min 0,000 mm 0,9 UV-I 367 W/m 8,7 C 12,6 C 4,8 km/h (1 Bft) 95,74 %
26.10.2018 10:56 12,6 C 11,1 C 18,9 C 77 % 1011,5 hPa 0,0 l/m 3,9 km/h (1 Bft) NW 319 2 min 0,000 mm 0,9 UV-I 370 W/m 8,7 C 12,6 C 6,4 km/h (2 Bft) 96,00 %
26.10.2018 10:58 12,6 C 11,1 C 19,4 C 77 % 1011,5 hPa 0,0 l/m 1,6 km/h (1 Bft) NW 319 2 min 0,000 mm 0,9 UV-I 375 W/m 8,7 C 12,6 C 3,2 km/h (1 Bft) 94,74 %
26.10.2018 11:00 12,6 C 11,1 C 20,0 C 77 % 1011,5 hPa 0,0 l/m 2,2 km/h (1 Bft) NW 319 2 min 0,178 mm 1,0 UV-I 378 W/m 8,7 C 12,6 C 4,8 km/h (1 Bft) 92,00 %
26.10.2018 11:02 12,6 C 11,1 C 20,0 C 77 % 1011,4 hPa 0,0 l/m 1,3 km/h (1 Bft) NW 319 2 min 0,000 mm 1,0 UV-I 381 W/m 8,7 C 12,6 C 3,2 km/h (1 Bft) 94,00 %
26.10.2018 11:04 12,7 C 11,1 C 21,1 C 76 % 1011,4 hPa 0,0 l/m 3,7 km/h (1 Bft) NW 323 2 min 0,000 mm 1,0 UV-I 382 W/m 8,6 C 12,7 C 6,4 km/h (2 Bft) 96,00 %
26.10.2018 11:06 12,8 C 11,1 C 21,1 C 77 % 1011,4 hPa 0,0 l/m 4,9 km/h (1 Bft) N-NW 333 2 min 0,000 mm 1,0 UV-I 383 W/m 8,9 C 12,8 C 6,4 km/h (2 Bft) 94,87 %
26.10.2018 11:09 12,7 C 11,1 C 22,2 C 76 % 1011,4 hPa 0,0 l/m 2,1 km/h (1 Bft) N-NW 333 3 min 0,000 mm 1,0 UV-I 390 W/m 8,6 C 12,7 C 6,4 km/h (2 Bft) 94,74 %
26.10.2018 11:10 12,7 C 11,1 C 22,2 C 75 % 1011,4 hPa 0,0 l/m 3,5 km/h (1 Bft) NW 322 1 min 0,000 mm 1,0 UV-I 391 W/m 8,4 C 12,7 C 4,8 km/h (1 Bft) 100,00 %
26.10.2018 11:12 12,8 C 11,1 C 22,8 C 75 % 1011,4 hPa 0,0 l/m 2,1 km/h (1 Bft) NW 321 2 min 0,000 mm 1,0 UV-I 394 W/m 8,5 C 12,8 C 4,8 km/h (1 Bft) 95,24 %
26.10.2018 11:14 12,9 C 11,1 C 22,8 C 76 % 1011,5 hPa 0,0 l/m 2,9 km/h (1 Bft) N-NW 333 2 min 0,000 mm 1,1 UV-I 400 W/m 8,8 C 12,9 C 4,8 km/h (1 Bft) 93,55 %
26.10.2018 11:16 13,0 C 11,1 C 22,8 C 76 % 1011,4 hPa 0,0 l/m 5,5 km/h (1 Bft) N 9 2 min 0,000 mm 1,1 UV-I 402 W/m 8,9 C 13,0 C 8,0 km/h (2 Bft) 97,87 %
26.10.2018 11:18 13,1 C 11,1 C 22,2 C 75 % 1011,4 hPa 0,0 l/m 5,0 km/h (1 Bft) N-NW 346 2 min 0,000 mm 1,1 UV-I 405 W/m 8,8 C 13,1 C 6,4 km/h (2 Bft) 94,74 %
26.10.2018 11:20 13,0 C 11,1 C 21,7 C 75 % 1011,4 hPa 0,0 l/m 4,5 km/h (1 Bft) N-NO 20 2 min 0,000 mm 1,1 UV-I 411 W/m 8,7 C 13,0 C 6,4 km/h (2 Bft) 97,87 %
26.10.2018 11:22 13,0 C 11,1 C 21,1 C 75 % 1011,4 hPa 0,0 l/m 6,4 km/h (2 Bft) N-NW 338 2 min 0,000 mm 1,1 UV-I 420 W/m 8,7 C 13,0 C 8,0 km/h (2 Bft) 94,64 %
26.10.2018 11:24 13,1 C 11,1 C 20,6 C 75 % 1011,3 hPa 0,0 l/m 3,5 km/h (1 Bft) N 10 2 min 0,000 mm 1,1 UV-I 428 W/m 8,8 C 13,1 C 6,4 km/h (2 Bft) 97,37 %
26.10.2018 11:26 13,1 C 11,1 C 21,1 C 77 % 1011,4 hPa 0,0 l/m 4,7 km/h (1 Bft) NW 321 2 min 0,000 mm 1,1 UV-I 410 W/m 9,2 C 13,1 C 6,4 km/h (2 Bft) 98,11 %
26.10.2018 11:28 13,1 C 11,1 C 20,6 C 75 % 1011,3 hPa 0,0 l/m 4,2 km/h (1 Bft) N-NO 13 2 min 0,000 mm 1,1 UV-I 376 W/m 8,8 C 13,1 C 6,4 km/h (2 Bft) 98,00 %
26.10.2018 11:30 13,2 C 11,1 C 20,6 C 75 % 1011,3 hPa 0,0 l/m 4,1 km/h (1 Bft) N 9 2 min 0,000 mm 1,1 UV-I 352 W/m 8,9 C 13,2 C 6,4 km/h (2 Bft) 97,14 %
26.10.2018 11:32 13,3 C 11,1 C 21,1 C 75 % 1011,3 hPa 0,0 l/m 4,9 km/h (1 Bft) N 5 2 min 0,000 mm 1,1 UV-I 428 W/m 9,0 C 13,3 C 6,4 km/h (2 Bft) 98,00 %
26.10.2018 11:34 13,3 C 11,1 C 20,6 C 75 % 1011,3 hPa 0,0 l/m 4,9 km/h (1 Bft) NW 325 2 min 0,000 mm 1,1 UV-I 380 W/m 9,0 C 13,3 C 8,0 km/h (2 Bft) 96,00 %
26.10.2018 11:36 13,3 C 11,1 C 20,0 C 73 % 1011,3 hPa 0,0 l/m 3,3 km/h (1 Bft) N-NW 342 2 min 0,000 mm 1,2 UV-I 371 W/m 8,6 C 13,3 C 6,4 km/h (2 Bft) 95,12 %
26.10.2018 11:38 13,2 C 11,1 C 18,9 C 73 % 1011,3 hPa 0,0 l/m 3,6 km/h (1 Bft) W-NW 300 0 min 0,000 mm 1,0 UV-I 250 W/m 8,5 C 13,2 C 6,4 km/h (2 Bft) 96,23 %
26.10.2018 11:40 13,1 C 11,1 C 17,8 C 73 % 1011,3 hPa 0,0 l/m 2,3 km/h (1 Bft) W-NW 300 0 min 0,000 mm 0,9 UV-I 200 W/m 8,4 C 13,1 C 3,2 km/h (1 Bft) 97,62 %
26.10.2018 11:42 13,1 C 11,1 C 17,2 C 74 % 1011,2 hPa 0,0 l/m 4,0 km/h (1 Bft) NW 323 0 min 0,000 mm 1,0 UV-I 251 W/m 8,6 C 13,1 C 6,4 km/h (2 Bft) 92,00 %
26.10.2018 11:44 13,0 C 11,1 C 18,3 C 73 % 1011,2 hPa 0,0 l/m 3,8 km/h (1 Bft) N 9 2 min 0,000 mm 1,1 UV-I 314 W/m 8,3 C 13,0 C 6,4 km/h (2 Bft) 94,00 %
26.10.2018 11:46 13,1 C 11,1 C 18,9 C 73 % 1011,2 hPa 0,0 l/m 3,6 km/h (1 Bft) N 9 2 min 0,000 mm 1,1 UV-I 316 W/m 8,4 C 13,1 C 4,8 km/h (1 Bft) 95,12 %
26.10.2018 11:48 13,2 C 11,1 C 20,6 C 74 % 1011,2 hPa 0,0 l/m 3,6 km/h (1 Bft) N 355 2 min 0,000 mm 1,3 UV-I 488 W/m 8,7 C 13,2 C 6,4 km/h (2 Bft) 94,00 %
26.10.2018 11:50 13,3 C 11,1 C 21,1 C 73 % 1011,2 hPa 0,0 l/m 4,5 km/h (1 Bft) NW 320 2 min 0,000 mm 1,3 UV-I 485 W/m 8,6 C 13,3 C 8,0 km/h (2 Bft) 97,56 %
26.10.2018 11:52 13,3 C 11,1 C 21,1 C 73 % 1011,2 hPa 0,0 l/m 3,4 km/h (1 Bft) NW 313 2 min 0,000 mm 1,3 UV-I 478 W/m 8,6 C 13,3 C 8,0 km/h (2 Bft) 94,92 %
26.10.2018 11:54 13,4 C 11,1 C 20,6 C 74 % 1011,2 hPa 0,0 l/m 4,6 km/h (1 Bft) N 5 2 min 0,000 mm 1,3 UV-I 495 W/m 8,9 C 13,4 C 6,4 km/h (2 Bft) 94,74 %
26.10.2018 11:56 13,5 C 11,1 C 20,6 C 74 % 1011,1 hPa 0,0 l/m 3,3 km/h (1 Bft) N 355 2 min 0,000 mm 1,3 UV-I 533 W/m 9,0 C 13,5 C 8,0 km/h (2 Bft) 94,64 %
26.10.2018 11:58 13,6 C 11,1 C 22,2 C 72 % 1011,0 hPa 0,0 l/m 3,3 km/h (1 Bft) W-NW 294 2 min 0,000 mm 1,4 UV-I 565 W/m 8,6 C 13,6 C 6,4 km/h (2 Bft) 95,74 %
26.10.2018 12:00 13,7 C 11,1 C 22,8 C 70 % 1011,0 hPa 0,0 l/m 5,7 km/h (1 Bft) NW 304 2 min 0,203 mm 1,4 UV-I 572 W/m 8,3 C 13,7 C 9,7 km/h (2 Bft) 94,74 %
26.10.2018 12:02 13,8 C 11,1 C 22,2 C 70 % 1011,0 hPa 0,0 l/m 3,1 km/h (1 Bft) N 5 2 min 0,000 mm 1,4 UV-I 537 W/m 8,4 C 13,8 C 6,4 km/h (2 Bft) 98,21 %
26.10.2018 12:04 13,8 C 11,1 C 21,7 C 69 % 1011,0 hPa 0,0 l/m 3,2 km/h (1 Bft) N-NW 333 2 min 0,000 mm 1,4 UV-I 513 W/m 8,2 C 13,8 C 6,4 km/h (2 Bft) 94,74 %
26.10.2018 12:06 13,8 C 11,1 C 21,1 C 71 % 1011,0 hPa 0,0 l/m 5,6 km/h (1 Bft) NW 317 2 min 0,000 mm 1,4 UV-I 577 W/m 8,6 C 13,8 C 8,0 km/h (2 Bft) 95,45 %
26.10.2018 12:08 13,8 C 11,1 C 21,1 C 70 % 1011,0 hPa 0,0 l/m 4,5 km/h (1 Bft) NW 323 2 min 0,000 mm 1,5 UV-I 524 W/m 8,4 C 13,8 C 6,4 km/h (2 Bft) 95,74 %
26.10.2018 12:10 13,7 C 11,1 C 21,7 C 69 % 1010,9 hPa 0,0 l/m 2,5 km/h (1 Bft) N-NW 336 2 min 0,000 mm 1,5 UV-I 554 W/m 8,1 C 13,7 C 4,8 km/h (1 Bft) 94,00 %
26.10.2018 12:12 13,8 C 11,1 C 21,7 C 70 % 1010,9 hPa 0,0 l/m 3,3 km/h (1 Bft) W-NW 302 2 min 0,000 mm 1,5 UV-I 616 W/m 8,4 C 13,8 C 9,7 km/h (2 Bft) 95,74 %
26.10.2018 12:14 13,9 C 11,1 C 21,1 C 72 % 1010,9 hPa 0,0 l/m 4,7 km/h (1 Bft) NW 326 2 min 0,000 mm 1,4 UV-I 467 W/m 8,9 C 13,9 C 6,4 km/h (2 Bft) 96,23 %
26.10.2018 12:16 14,1 C 11,1 C 21,7 C 70 % 1010,8 hPa 0,0 l/m 5,2 km/h (1 Bft) N-NW 331 2 min 0,000 mm 1,5 UV-I 508 W/m 8,7 C 14,1 C 6,4 km/h (2 Bft) 92,11 %
26.10.2018 12:18 14,1 C 11,1 C 22,2 C 70 % 1010,8 hPa 0,0 l/m 3,3 km/h (1 Bft) N-NO 13 2 min 0,000 mm 1,5 UV-I 545 W/m 8,7 C 14,1 C 8,0 km/h (2 Bft) 96,23 %
26.10.2018 12:20 14,0 C 11,1 C 22,2 C 70 % 1010,6 hPa 0,0 l/m 3,6 km/h (1 Bft) NW 325 2 min 0,000 mm 1,4 UV-I 520 W/m 8,6 C 14,0 C 6,4 km/h (2 Bft) 96,00 %
26.10.2018 12:22 14,0 C 11,1 C 22,2 C 69 % 1010,5 hPa 0,0 l/m 3,1 km/h (1 Bft) SW 229 2 min 0,000 mm 1,4 UV-I 497 W/m 8,4 C 14,0 C 6,4 km/h (2 Bft) 94,87 %
26.10.2018 12:24 14,1 C 11,1 C 21,1 C 68 % 1010,5 hPa 0,0 l/m 5,8 km/h (2 Bft) W 277 2 min 0,000 mm 1,4 UV-I 485 W/m 8,3 C 14,1 C 9,7 km/h (2 Bft) 96,00 %
26.10.2018 12:26 14,0 C 11,1 C 20,6 C 68 % 1010,4 hPa 0,0 l/m 3,0 km/h (1 Bft) W 279 2 min 0,000 mm 1,4 UV-I 473 W/m 8,2 C 14,0 C 6,4 km/h (2 Bft) 95,74 %
26.10.2018 12:28 14,1 C 11,1 C 20,6 C 70 % 1010,4 hPa 0,0 l/m 2,0 km/h (1 Bft) S-SW 202 2 min 0,000 mm 1,4 UV-I 470 W/m 8,7 C 14,1 C 4,8 km/h (1 Bft) 92,00 %
26.10.2018 12:30 14,1 C 11,1 C 20,6 C 69 % 1010,3 hPa 0,0 l/m 3,7 km/h (1 Bft) SW 216 2 min 0,000 mm 1,4 UV-I 482 W/m 8,5 C 14,1 C 8,0 km/h (2 Bft) 97,37 %
26.10.2018 12:32 13,9 C 11,1 C 20,0 C 69 % 1010,4 hPa 0,0 l/m 4,7 km/h (1 Bft) NW 319 2 min 0,000 mm 1,4 UV-I 498 W/m 8,3 C 13,9 C 8,0 km/h (2 Bft) 94,12 %
26.10.2018 12:34 14,1 C 11,1 C 20,0 C 69 % 1010,4 hPa 0,0 l/m 2,3 km/h (1 Bft) NO 56 2 min 0,000 mm 1,5 UV-I 528 W/m 8,5 C 14,1 C 6,4 km/h (2 Bft) 96,23 %
26.10.2018 12:36 14,1 C 11,1 C 20,0 C 70 % 1010,3 hPa 0,0 l/m 5,8 km/h (2 Bft) NO 38 2 min 0,000 mm 1,6 UV-I 581 W/m 8,7 C 14,1 C 8,0 km/h (2 Bft) 97,73 %
26.10.2018 12:38 14,3 C 11,1 C 19,4 C 71 % 1010,3 hPa 0,0 l/m 4,6 km/h (1 Bft) N-NW 337 2 min 0,000 mm 1,6 UV-I 626 W/m 9,1 C 14,3 C 8,0 km/h (2 Bft) 97,37 %
26.10.2018 12:40 14,4 C 11,1 C 20,0 C 68 % 1010,2 hPa 0,0 l/m 3,2 km/h (1 Bft) N-NW 336 2 min 0,000 mm 1,5 UV-I 601 W/m 8,6 C 14,4 C 8,0 km/h (2 Bft) 98,11 %
26.10.2018 12:42 14,5 C 11,1 C 19,4 C 68 % 1010,2 hPa 0,0 l/m 4,6 km/h (1 Bft) N-NW 346 2 min 0,000 mm 1,3 UV-I 427 W/m 8,7 C 14,5 C 8,0 km/h (2 Bft) 98,00 %
26.10.2018 12:44 14,4 C 11,1 C 18,9 C 69 % 1010,2 hPa 0,0 l/m 5,0 km/h (1 Bft) N 355 2 min 0,000 mm 1,2 UV-I 363 W/m 8,8 C 14,4 C 8,0 km/h (2 Bft) 96,00 %
26.10.2018 12:46 14,4 C 11,1 C 18,3 C 69 % 1010,2 hPa 0,0 l/m 4,2 km/h (1 Bft) N 349 0 min 0,000 mm 1,1 UV-I 272 W/m 8,8 C 14,4 C 6,4 km/h (2 Bft) 97,87 %
26.10.2018 12:48 14,3 C 11,1 C 18,3 C 69 % 1010,1 hPa 0,0 l/m 2,4 km/h (1 Bft) N 349 2 min 0,000 mm 1,2 UV-I 318 W/m 8,7 C 14,3 C 3,2 km/h (1 Bft) 97,56 %
26.10.2018 12:50 14,2 C 11,1 C 18,9 C 68 % 1010,0 hPa 0,0 l/m 2,3 km/h (1 Bft) N 360 2 min 0,000 mm 1,3 UV-I 399 W/m 8,4 C 14,2 C 4,8 km/h (1 Bft) 96,23 %
26.10.2018 12:52 14,1 C 11,1 C 18,9 C 70 % 1010,0 hPa 0,0 l/m 3,3 km/h (1 Bft) NO 46 2 min 0,000 mm 1,2 UV-I 303 W/m 8,7 C 14,1 C 4,8 km/h (1 Bft) 100,00 %
26.10.2018 12:54 14,3 C 11,1 C 18,9 C 72 % 1009,9 hPa 0,0 l/m 3,1 km/h (1 Bft) NO 46 2 min 0,000 mm 1,2 UV-I 276 W/m 9,3 C 14,3 C 4,8 km/h (1 Bft) 94,00 %
26.10.2018 12:56 14,4 C 11,1 C 18,9 C 70 % 1009,9 hPa 0,0 l/m 3,6 km/h (1 Bft) N-NO 24 0 min 0,000 mm 1,2 UV-I 271 W/m 9,0 C 14,4 C 4,8 km/h (1 Bft) 97,92 %
26.10.2018 12:58 14,4 C 11,1 C 18,3 C 70 % 1009,8 hPa 0,0 l/m 3,7 km/h (1 Bft) NO 48 0 min 0,000 mm 1,1 UV-I 271 W/m 9,0 C 14,4 C 6,4 km/h (2 Bft) 98,00 %
26.10.2018 13:00 14,6 C 11,1 C 18,3 C 73 % 1009,8 hPa 0,0 l/m 4,0 km/h (1 Bft) O-NO 70 2 min 0,254 mm 1,2 UV-I 299 W/m 9,8 C 14,6 C 6,4 km/h (2 Bft) 97,87 %
26.10.2018 13:02 14,5 C 11,1 C 17,8 C 69 % 1009,8 hPa 0,0 l/m 2,4 km/h (1 Bft) O-NO 68 2 min 0,000 mm 1,4 UV-I 402 W/m 8,9 C 14,5 C 4,8 km/h (1 Bft) 97,87 %
26.10.2018 13:04 14,7 C 11,1 C 17,8 C 70 % 1009,8 hPa 0,0 l/m 2,3 km/h (1 Bft) N 11 2 min 0,000 mm 1,4 UV-I 584 W/m 9,3 C 14,7 C 8,0 km/h (2 Bft) 97,87 %
26.10.2018 13:06 14,8 C 11,1 C 17,8 C 70 % 1009,8 hPa 0,0 l/m 4,1 km/h (1 Bft) N-NO 13 2 min 0,000 mm 1,5 UV-I 597 W/m 9,4 C 14,8 C 8,0 km/h (2 Bft) 98,00 %
26.10.2018 13:08 14,8 C 11,1 C 17,8 C 69 % 1009,7 hPa 0,0 l/m 2,2 km/h (1 Bft) NO 39 2 min 0,000 mm 1,4 UV-I 566 W/m 9,2 C 14,8 C 3,2 km/h (1 Bft) 93,18 %
26.10.2018 13:10 14,8 C 11,1 C 17,8 C 67 % 1009,5 hPa 0,0 l/m 3,6 km/h (1 Bft) O 95 2 min 0,000 mm 1,4 UV-I 525 W/m 8,7 C 14,8 C 4,8 km/h (1 Bft) 98,00 %
26.10.2018 13:12 14,7 C 11,1 C 17,2 C 67 % 1009,6 hPa 0,0 l/m 1,5 km/h (1 Bft) O 95 2 min 0,000 mm 1,4 UV-I 402 W/m 8,6 C 14,7 C 3,2 km/h (1 Bft) 95,74 %
26.10.2018 13:14 14,7 C 11,1 C 17,8 C 69 % 1009,5 hPa 0,0 l/m 2,3 km/h (1 Bft) N-NO 17 2 min 0,000 mm 1,4 UV-I 423 W/m 9,1 C 14,7 C 4,8 km/h (1 Bft) 100,00 %
26.10.2018 13:16 14,8 C 11,1 C 17,8 C 68 % 1009,4 hPa 0,0 l/m 3,5 km/h (1 Bft) W-SW 257 0 min 0,000 mm 1,2 UV-I 232 W/m 9,0 C 14,8 C 4,8 km/h (1 Bft) 96,00 %
26.10.2018 13:18 14,8 C 11,1 C 18,3 C 69 % 1009,4 hPa 0,0 l/m 5,0 km/h (1 Bft) SW 218 0 min 0,000 mm 1,3 UV-I 262 W/m 9,2 C 14,8 C 8,0 km/h (2 Bft) 98,11 %
26.10.2018 13:20 14,9 C 11,1 C 18,9 C 67 % 1009,4 hPa 0,0 l/m 4,5 km/h (1 Bft) SW 217 2 min 0,000 mm 1,5 UV-I 592 W/m 8,8 C 14,9 C 8,0 km/h (2 Bft) 95,45 %
26.10.2018 13:22 14,8 C 11,1 C 18,9 C 67 % 1009,4 hPa 0,0 l/m 3,2 km/h (1 Bft) W 261 2 min 0,000 mm 1,4 UV-I 589 W/m 8,7 C 14,8 C 4,8 km/h (1 Bft) 93,62 %
26.10.2018 13:24 14,7 C 11,1 C 18,9 C 68 % 1009,4 hPa 0,0 l/m 3,4 km/h (1 Bft) N-NO 32 2 min 0,000 mm 1,3 UV-I 458 W/m 8,9 C 14,7 C 6,4 km/h (2 Bft) 94,74 %
26.10.2018 13:26 14,9 C 11,1 C 18,9 C 69 % 1009,4 hPa 0,0 l/m 2,7 km/h (1 Bft) NO 34 2 min 0,000 mm 1,4 UV-I 454 W/m 9,3 C 14,9 C 4,8 km/h (1 Bft) 96,00 %
26.10.2018 13:28 14,9 C 11,1 C 19,4 C 67 % 1009,3 hPa 0,0 l/m 4,1 km/h (1 Bft) N-NO 22 2 min 0,000 mm 1,3 UV-I 658 W/m 8,8 C 14,9 C 9,7 km/h (2 Bft) 95,45 %
26.10.2018 13:30 14,9 C 11,1 C 18,9 C 69 % 1009,3 hPa 0,0 l/m 3,7 km/h (1 Bft) N-NW 337 2 min 0,000 mm 1,2 UV-I 274 W/m 9,3 C 14,9 C 6,4 km/h (2 Bft) 94,64 %
26.10.2018 13:32 14,9 C 11,1 C 18,3 C 70 % 1009,2 hPa 0,0 l/m 2,4 km/h (1 Bft) NW 324 2 min 0,000 mm 1,4 UV-I 417 W/m 9,5 C 14,9 C 4,8 km/h (1 Bft) 93,62 %
26.10.2018 13:34 15,0 C 11,1 C 17,8 C 68 % 1009,1 hPa 0,0 l/m 3,7 km/h (1 Bft) NW 324 2 min 0,000 mm 1,4 UV-I 558 W/m 9,1 C 15,0 C 6,4 km/h (2 Bft) 92,31 %
26.10.2018 13:36 14,9 C 11,1 C 17,2 C 67 % 1009,1 hPa 0,0 l/m 2,1 km/h (1 Bft) NW 324 2 min 0,000 mm 1,4 UV-I 519 W/m 8,8 C 14,9 C 3,2 km/h (1 Bft) 90,91 %
26.10.2018 13:38 14,9 C 11,1 C 17,2 C 68 % 1009,0 hPa 0,0 l/m 2,5 km/h (1 Bft) NO 48 2 min 0,000 mm 1,4 UV-I 527 W/m 9,0 C 14,9 C 4,8 km/h (1 Bft) 90,48 %
26.10.2018 13:40 15,1 C 11,1 C 17,2 C 68 % 1008,9 hPa 0,0 l/m 1,9 km/h (1 Bft) NO 44 2 min 0,000 mm 1,5 UV-I 546 W/m 9,2 C 15,1 C 3,2 km/h (1 Bft) 93,62 %
26.10.2018 13:42 15,2 C 11,1 C 17,8 C 70 % 1008,9 hPa 0,0 l/m 2,2 km/h (1 Bft) N 350 2 min 0,000 mm 1,5 UV-I 563 W/m 9,8 C 15,2 C 3,2 km/h (1 Bft) 94,34 %
26.10.2018 13:44 15,3 C 11,1 C 17,2 C 70 % 1008,9 hPa 0,0 l/m 6,9 km/h (2 Bft) NO 55 2 min 0,000 mm 1,5 UV-I 545 W/m 9,9 C 15,0 C 9,7 km/h (2 Bft) 93,62 %
26.10.2018 13:46 15,5 C 11,1 C 17,8 C 68 % 1008,9 hPa 0,0 l/m 4,7 km/h (1 Bft) N-NO 26 2 min 0,000 mm 1,5 UV-I 593 W/m 9,6 C 15,5 C 6,4 km/h (2 Bft) 90,24 %
26.10.2018 13:48 15,6 C 11,1 C 18,3 C 66 % 1008,9 hPa 0,0 l/m 2,3 km/h (1 Bft) N-NO 26 2 min 0,000 mm 1,5 UV-I 614 W/m 9,3 C 15,6 C 4,8 km/h (1 Bft) 92,68 %
26.10.2018 13:50 15,6 C 11,1 C 18,3 C 68 % 1008,9 hPa 0,0 l/m 6,8 km/h (2 Bft) O-NO 60 2 min 0,000 mm 1,5 UV-I 616 W/m 9,7 C 15,4 C 11,3 km/h (2 Bft) 94,00 %
26.10.2018 13:52 15,6 C 11,1 C 18,3 C 68 % 1008,8 hPa 0,0 l/m 8,8 km/h (2 Bft) NO 51 2 min 0,000 mm 1,5 UV-I 597 W/m 9,7 C 14,3 C 14,5 km/h (3 Bft) 96,23 %
26.10.2018 13:54 15,6 C 11,1 C 18,3 C 68 % 1008,8 hPa 0,0 l/m 4,9 km/h (1 Bft) NO 49 2 min 0,000 mm 1,4 UV-I 560 W/m 9,7 C 15,6 C 9,7 km/h (2 Bft) 94,74 %
26.10.2018 13:56 15,4 C 11,1 C 17,2 C 69 % 1008,7 hPa 0,0 l/m 5,0 km/h (1 Bft) N-NO 25 2 min 0,000 mm 1,3 UV-I 508 W/m 9,7 C 15,4 C 11,3 km/h (2 Bft) 96,00 %
26.10.2018 13:59 15,2 C 11,1 C 16,7 C 68 % 1008,7 hPa 0,0 l/m 5,6 km/h (1 Bft) O-NO 59 3 min 0,000 mm 1,3 UV-I 459 W/m 9,3 C 15,2 C 14,5 km/h (3 Bft) 95,77 %
26.10.2018 14:00 15,1 C 11,1 C 16,7 C 68 % 1008,7 hPa 0,0 l/m 3,3 km/h (1 Bft) O-NO 66 1 min 0,000 mm 1,2 UV-I 437 W/m 9,2 C 15,1 C 8,0 km/h (2 Bft) 96,15 %
26.10.2018 14:02 15,1 C 11,1 C 16,1 C 67 % 1008,7 hPa 0,0 l/m 4,9 km/h (1 Bft) O-NO 69 2 min 0,280 mm 1,2 UV-I 432 W/m 9,0 C 15,1 C 8,0 km/h (2 Bft) 96,00 %
26.10.2018 14:04 15,1 C 11,1 C 16,1 C 66 % 1008,7 hPa 0,0 l/m 1,7 km/h (1 Bft) O-SO 121 2 min 0,000 mm 1,2 UV-I 425 W/m 8,8 C 15,1 C 4,8 km/h (1 Bft) 97,56 %
26.10.2018 14:06 15,1 C 11,1 C 16,1 C 67 % 1008,6 hPa 0,0 l/m 6,9 km/h (2 Bft) O-NO 67 2 min 0,000 mm 1,2 UV-I 427 W/m 9,0 C 14,8 C 11,3 km/h (2 Bft) 98,11 %
26.10.2018 14:08 15,1 C 11,1 C 15,6 C 68 % 1008,6 hPa 0,0 l/m 4,8 km/h (1 Bft) O 101 2 min 0,000 mm 1,2 UV-I 432 W/m 9,2 C 15,1 C 9,7 km/h (2 Bft) 95,45 %
26.10.2018 14:10 15,0 C 11,1 C 15,6 C 67 % 1008,6 hPa 0,0 l/m 3,4 km/h (1 Bft) O-NO 61 2 min 0,000 mm 1,2 UV-I 443 W/m 8,9 C 15,0 C 6,4 km/h (2 Bft) 95,74 %
26.10.2018 14:12 15,1 C 11,1 C 16,1 C 69 % 1008,7 hPa 0,0 l/m 4,1 km/h (1 Bft) NO 40 2 min 0,000 mm 1,2 UV-I 452 W/m 9,5 C 15,1 C 8,0 km/h (2 Bft) 97,62 %
26.10.2018 14:14 15,2 C 11,1 C 16,1 C 67 % 1008,6 hPa 0,0 l/m 1,3 km/h (1 Bft) NO 40 2 min 0,000 mm 1,1 UV-I 442 W/m 9,1 C 15,2 C 4,8 km/h (1 Bft) 96,55 %
26.10.2018 14:16 15,3 C 11,1 C 15,6 C 69 % 1008,5 hPa 0,0 l/m 3,6 km/h (1 Bft) O 94 2 min 0,000 mm 1,1 UV-I 376 W/m 9,6 C 15,3 C 6,4 km/h (2 Bft) 98,53 %
26.10.2018 14:18 15,3 C 11,1 C 15,6 C 67 % 1008,5 hPa 0,0 l/m 4,7 km/h (1 Bft) O-NO 59 2 min 0,000 mm 1,1 UV-I 377 W/m 9,2 C 15,3 C 8,0 km/h (2 Bft) 98,00 %
26.10.2018 14:20 15,2 C 11,1 C 15,6 C 67 % 1008,5 hPa 0,0 l/m 5,0 km/h (1 Bft) O 98 2 min 0,000 mm 0,9 UV-I 263 W/m 9,1 C 15,2 C 9,7 km/h (2 Bft) 94,12 %
26.10.2018 14:22 15,2 C 11,1 C 15,0 C 68 % 1008,5 hPa 0,0 l/m 5,0 km/h (1 Bft) O 80 0 min 0,000 mm 1,0 UV-I 234 W/m 9,3 C 15,2 C 9,7 km/h (2 Bft) 98,53 %
26.10.2018 14:24 15,1 C 11,1 C 15,0 C 67 % 1008,5 hPa 0,0 l/m 4,0 km/h (1 Bft) O 80 2 min 0,000 mm 0,9 UV-I 279 W/m 9,0 C 15,1 C 4,8 km/h (1 Bft) 91,49 %
26.10.2018 14:26 14,9 C 11,1 C 15,0 C 67 % 1008,4 hPa 0,0 l/m 2,2 km/h (1 Bft) O-SO 105 2 min 0,000 mm 1,0 UV-I 415 W/m 8,8 C 14,9 C 4,8 km/h (1 Bft) 98,00 %
26.10.2018 14:28 14,9 C 11,1 C 15,0 C 67 % 1008,4 hPa 0,0 l/m 1,5 km/h (1 Bft) O-SO 104 2 min 0,000 mm 1,1 UV-I 397 W/m 8,8 C 14,9 C 3,2 km/h (1 Bft) 96,23 %
26.10.2018 14:30 14,9 C 11,1 C 15,0 C 67 % 1008,4 hPa 0,0 l/m 2,1 km/h (1 Bft) O-SO 105 2 min 0,000 mm 1,1 UV-I 388 W/m 8,8 C 14,9 C 4,8 km/h (1 Bft) 97,14 %
26.10.2018 14:32 15,0 C 11,1 C 15,0 C 66 % 1008,3 hPa 0,0 l/m 0,8 km/h (0 Bft) O-SO 105 2 min 0,000 mm 1,0 UV-I 379 W/m 8,7 C 15,0 C 1,6 km/h (1 Bft) 98,11 %
26.10.2018 14:34 15,2 C 11,1 C 15,0 C 66 % 1008,3 hPa 0,0 l/m 1,2 km/h (1 Bft) O-SO 105 2 min 0,000 mm 1,0 UV-I 374 W/m 8,9 C 15,2 C 3,2 km/h (1 Bft) 98,00 %
26.10.2018 14:36 15,2 C 11,1 C 15,0 C 67 % 1008,2 hPa 0,0 l/m 1,6 km/h (1 Bft) S 177 2 min 0,000 mm 1,0 UV-I 372 W/m 9,1 C 15,2 C 3,2 km/h (1 Bft) 95,74 %
26.10.2018 14:38 15,4 C 11,1 C 15,0 C 67 % 1008,2 hPa 0,0 l/m 2,2 km/h (1 Bft) S-SO 153 2 min 0,000 mm 1,0 UV-I 367 W/m 9,3 C 15,4 C 4,8 km/h (1 Bft) 97,56 %
26.10.2018 14:40 15,4 C 11,1 C 15,0 C 67 % 1008,2 hPa 0,0 l/m 2,6 km/h (1 Bft) S-SO 153 2 min 0,000 mm 1,0 UV-I 365 W/m 9,3 C 15,4 C 4,8 km/h (1 Bft) 96,23 %
26.10.2018 14:42 15,3 C 11,1 C 15,0 C 65 % 1008,1 hPa 0,0 l/m 2,3 km/h (1 Bft) S-SO 153 2 min 0,000 mm 1,0 UV-I 363 W/m 8,8 C 15,3 C 4,8 km/h (1 Bft) 92,11 %
26.10.2018 14:44 15,4 C 11,1 C 15,0 C 66 % 1008,0 hPa 0,0 l/m 2,0 km/h (1 Bft) S-SO 152 2 min 0,000 mm 0,9 UV-I 360 W/m 9,1 C 15,4 C 4,8 km/h (1 Bft) 97,87 %
26.10.2018 14:46 15,5 C 11,1 C 15,0 C 67 % 1008,0 hPa 0,0 l/m 4,1 km/h (1 Bft) NO 34 2 min 0,000 mm 0,9 UV-I 360 W/m 9,4 C 15,5 C 8,0 km/h (2 Bft) 96,23 %
26.10.2018 14:48 15,6 C 11,1 C 15,0 C 66 % 1008,0 hPa 0,0 l/m 2,4 km/h (1 Bft) NO 34 2 min 0,000 mm 0,9 UV-I 355 W/m 9,3 C 15,6 C 4,8 km/h (1 Bft) 97,87 %
26.10.2018 14:50 15,6 C 11,1 C 15,0 C 68 % 1007,9 hPa 0,0 l/m 3,5 km/h (1 Bft) NO 34 2 min 0,000 mm 0,9 UV-I 350 W/m 9,7 C 15,6 C 6,4 km/h (2 Bft) 98,00 %
26.10.2018 14:52 15,7 C 11,1 C 15,0 C 68 % 1007,9 hPa 0,0 l/m 4,1 km/h (1 Bft) O-NO 71 2 min 0,000 mm 0,9 UV-I 351 W/m 9,8 C 15,7 C 6,4 km/h (2 Bft) 97,44 %
26.10.2018 14:54 15,6 C 11,1 C 15,0 C 65 % 1007,8 hPa 0,0 l/m 4,1 km/h (1 Bft) O-NO 57 2 min 0,000 mm 0,9 UV-I 347 W/m 9,0 C 15,6 C 6,4 km/h (2 Bft) 97,87 %
26.10.2018 14:56 15,6 C 11,1 C 15,0 C 67 % 1007,7 hPa 0,0 l/m 5,9 km/h (2 Bft) N-NO 32 2 min 0,000 mm 0,9 UV-I 345 W/m 9,5 C 15,6 C 9,7 km/h (2 Bft) 98,00 %
26.10.2018 14:58 15,4 C 11,1 C 15,0 C 68 % 1007,7 hPa 0,0 l/m 4,0 km/h (1 Bft) NO 39 2 min 0,000 mm 0,9 UV-I 342 W/m 9,5 C 15,4 C 9,7 km/h (2 Bft) 98,00 %
26.10.2018 15:00 15,4 C 11,1 C 15,0 C 66 % 1007,7 hPa 0,0 l/m 4,6 km/h (1 Bft) SO 144 2 min 0,203 mm 0,8 UV-I 337 W/m 9,1 C 15,4 C 6,4 km/h (2 Bft) 95,12 %
26.10.2018 15:02 15,2 C 11,1 C 15,0 C 66 % 1007,7 hPa 0,0 l/m 2,4 km/h (1 Bft) S-SO 155 2 min 0,000 mm 0,8 UV-I 327 W/m 8,9 C 15,2 C 3,2 km/h (1 Bft) 92,00 %
26.10.2018 15:04 15,2 C 11,1 C 14,4 C 68 % 1007,6 hPa 0,0 l/m 2,9 km/h (1 Bft) O-NO 74 2 min 0,000 mm 0,8 UV-I 315 W/m 9,3 C 15,2 C 4,8 km/h (1 Bft) 94,34 %
26.10.2018 15:06 15,3 C 11,1 C 14,4 C 68 % 1007,6 hPa 0,0 l/m 4,2 km/h (1 Bft) N-NO 31 2 min 0,000 mm 0,8 UV-I 313 W/m 9,4 C 15,3 C 8,0 km/h (2 Bft) 91,43 %
26.10.2018 15:08 15,4 C 11,1 C 14,4 C 69 % 1007,6 hPa 0,0 l/m 7,8 km/h (2 Bft) NO 35 2 min 0,000 mm 0,8 UV-I 312 W/m 9,7 C 14,6 C 11,3 km/h (2 Bft) 93,62 %
26.10.2018 15:10 15,3 C 11,1 C 14,4 C 68 % 1007,5 hPa 0,0 l/m 6,9 km/h (2 Bft) O-NO 76 2 min 0,000 mm 0,7 UV-I 292 W/m 9,4 C 15,0 C 8,0 km/h (2 Bft) 89,36 %
26.10.2018 15:12 15,3 C 11,1 C 14,4 C 67 % 1007,5 hPa 0,0 l/m 7,3 km/h (2 Bft) O-NO 67 2 min 0,000 mm 0,7 UV-I 289 W/m 9,2 C 14,8 C 11,3 km/h (2 Bft) 94,64 %
26.10.2018 15:14 15,3 C 11,1 C 14,4 C 67 % 1007,4 hPa 0,0 l/m 5,9 km/h (2 Bft) O-NO 64 2 min 0,000 mm 0,7 UV-I 286 W/m 9,2 C 15,3 C 9,7 km/h (2 Bft) 91,49 %
26.10.2018 15:16 15,3 C 11,1 C 13,9 C 66 % 1007,4 hPa 0,0 l/m 3,5 km/h (1 Bft) O 79 2 min 0,000 mm 0,7 UV-I 279 W/m 9,0 C 15,3 C 6,4 km/h (2 Bft) 94,74 %
26.10.2018 15:18 15,3 C 11,1 C 13,9 C 67 % 1007,4 hPa 0,0 l/m 3,5 km/h (1 Bft) O 86 2 min 0,000 mm 0,7 UV-I 302 W/m 9,2 C 15,3 C 8,0 km/h (2 Bft) 92,86 %
26.10.2018 15:20 15,3 C 11,1 C 13,9 C 67 % 1007,3 hPa 0,0 l/m 5,0 km/h (1 Bft) O-NO 74 2 min 0,000 mm 0,7 UV-I 277 W/m 9,2 C 15,3 C 8,0 km/h (2 Bft) 95,74 %
26.10.2018 15:22 15,3 C 11,1 C 13,9 C 68 % 1007,4 hPa 0,0 l/m 5,1 km/h (1 Bft) O-NO 68 2 min 0,000 mm 0,6 UV-I 281 W/m 9,4 C 15,3 C 8,0 km/h (2 Bft) 93,62 %
26.10.2018 15:24 15,2 C 11,1 C 13,9 C 69 % 1007,3 hPa 0,0 l/m 4,3 km/h (1 Bft) NO 49 2 min 0,000 mm 0,6 UV-I 272 W/m 9,6 C 15,2 C 6,4 km/h (2 Bft) 94,87 %
26.10.2018 15:26 15,2 C 11,1 C 13,9 C 69 % 1007,3 hPa 0,0 l/m 5,8 km/h (2 Bft) NO 56 2 min 0,000 mm 0,6 UV-I 281 W/m 9,6 C 15,2 C 9,7 km/h (2 Bft) 98,08 %
26.10.2018 15:28 15,1 C 11,1 C 13,9 C 68 % 1007,2 hPa 0,0 l/m 4,1 km/h (1 Bft) NO 44 2 min 0,000 mm 0,6 UV-I 290 W/m 9,2 C 15,1 C 6,4 km/h (2 Bft) 98,00 %
26.10.2018 15:30 15,1 C 11,1 C 13,9 C 68 % 1007,2 hPa 0,0 l/m 3,3 km/h (1 Bft) NO 43 2 min 0,000 mm 0,6 UV-I 297 W/m 9,2 C 15,1 C 4,8 km/h (1 Bft) 97,22 %
26.10.2018 15:32 15,1 C 11,1 C 13,9 C 69 % 1007,2 hPa 0,0 l/m 3,1 km/h (1 Bft) NO 43 2 min 0,000 mm 0,6 UV-I 282 W/m 9,5 C 15,1 C 4,8 km/h (1 Bft) 98,11 %
26.10.2018 15:34 14,9 C 11,1 C 13,9 C 70 % 1007,1 hPa 0,0 l/m 5,2 km/h (1 Bft) NO 37 2 min 0,000 mm 0,5 UV-I 200 W/m 9,5 C 14,9 C 8,0 km/h (2 Bft) 94,00 %
26.10.2018 15:36 14,9 C 11,1 C 13,9 C 72 % 1007,1 hPa 0,0 l/m 6,5 km/h (2 Bft) NO 47 2 min 0,000 mm 0,5 UV-I 213 W/m 9,9 C 14,9 C 9,7 km/h (2 Bft) 100,00 %
26.10.2018 15:38 14,9 C 11,1 C 13,9 C 69 % 1007,1 hPa 0,0 l/m 4,1 km/h (1 Bft) NO 41 2 min 0,000 mm 0,5 UV-I 193 W/m 9,3 C 14,9 C 6,4 km/h (2 Bft) 100,00 %
26.10.2018 15:40 14,8 C 11,1 C 13,3 C 70 % 1007,1 hPa 0,0 l/m 4,9 km/h (1 Bft) NO 49 2 min 0,000 mm 0,5 UV-I 218 W/m 9,4 C 14,8 C 6,4 km/h (2 Bft) 98,00 %
26.10.2018 15:42 14,7 C 11,1 C 13,3 C 70 % 1007,0 hPa 0,0 l/m 5,2 km/h (1 Bft) N-NO 33 0 min 0,000 mm 0,5 UV-I 170 W/m 9,3 C 14,7 C 8,0 km/h (2 Bft) 100,00 %
26.10.2018 15:44 14,6 C 11,1 C 13,3 C 70 % 1007,0 hPa 0,0 l/m 3,3 km/h (1 Bft) O-NO 57 0 min 0,000 mm 0,0 UV-I 139 W/m 9,2 C 14,6 C 4,8 km/h (1 Bft) 100,00 %
26.10.2018 15:46 14,6 C 11,1 C 13,3 C 71 % 1007,0 hPa 0,0 l/m 5,5 km/h (1 Bft) NO 41 2 min 0,000 mm 0,0 UV-I 169 W/m 9,4 C 14,6 C 9,7 km/h (2 Bft) 97,56 %
26.10.2018 15:48 14,6 C 11,1 C 13,3 C 72 % 1006,9 hPa 0,0 l/m 7,0 km/h (2 Bft) NO 34 2 min 0,000 mm 0,0 UV-I 233 W/m 9,6 C 14,3 C 8,0 km/h (2 Bft) 96,00 %
26.10.2018 15:50 14,6 C 11,1 C 13,3 C 72 % 1006,9 hPa 0,0 l/m 4,8 km/h (1 Bft) NO 35 2 min 0,000 mm 0,0 UV-I 234 W/m 9,6 C 14,6 C 6,4 km/h (2 Bft) 98,00 %
26.10.2018 15:52 14,6 C 11,1 C 13,3 C 72 % 1006,9 hPa 0,0 l/m 5,3 km/h (1 Bft) NO 44 2 min 0,000 mm 0,0 UV-I 231 W/m 9,6 C 14,6 C 6,4 km/h (2 Bft) 97,37 %
26.10.2018 15:54 14,6 C 11,1 C 13,3 C 71 % 1007,0 hPa 0,0 l/m 4,2 km/h (1 Bft) NO 44 2 min 0,000 mm 0,0 UV-I 238 W/m 9,4 C 14,6 C 6,4 km/h (2 Bft) 100,00 %
26.10.2018 15:56 14,6 C 11,1 C 13,3 C 71 % 1006,9 hPa 0,0 l/m 3,9 km/h (1 Bft) NO 44 2 min 0,000 mm 0,0 UV-I 210 W/m 9,4 C 14,6 C 4,8 km/h (1 Bft) 100,00 %
26.10.2018 15:58 14,5 C 11,1 C 13,3 C 71 % 1006,9 hPa 0,0 l/m 5,6 km/h (1 Bft) O-NO 65 2 min 0,000 mm 0,0 UV-I 173 W/m 9,3 C 14,5 C 8,0 km/h (2 Bft) 100,00 %
26.10.2018 16:00 14,5 C 11,1 C 13,3 C 71 % 1006,9 hPa 0,0 l/m 5,0 km/h (1 Bft) NO 46 0 min 0,000 mm 0,0 UV-I 106 W/m 9,3 C 14,5 C 6,4 km/h (2 Bft) 100,00 %
26.10.2018 16:02 14,4 C 11,1 C 13,3 C 71 % 1006,8 hPa 0,0 l/m 4,4 km/h (1 Bft) N-NO 32 0 min 0,152 mm 0,0 UV-I 93 W/m 9,2 C 14,4 C 4,8 km/h (1 Bft) 100,00 %
26.10.2018 16:04 14,3 C 11,1 C 13,3 C 73 % 1006,7 hPa 0,0 l/m 5,8 km/h (2 Bft) NO 42 0 min 0,000 mm 0,0 UV-I 107 W/m 9,5 C 14,3 C 8,0 km/h (2 Bft) 100,00 %
26.10.2018 16:06 14,3 C 11,1 C 13,3 C 73 % 1006,7 hPa 0,0 l/m 7,4 km/h (2 Bft) NO 48 0 min 0,000 mm 0,0 UV-I 126 W/m 9,5 C 13,7 C 9,7 km/h (2 Bft) 100,00 %
26.10.2018 16:08 14,3 C 11,1 C 13,3 C 73 % 1006,7 hPa 0,0 l/m 6,8 km/h (2 Bft) NO 36 0 min 0,000 mm 0,0 UV-I 99 W/m 9,5 C 14,1 C 9,7 km/h (2 Bft) 100,00 %
26.10.2018 16:10 14,2 C 11,1 C 13,3 C 74 % 1006,7 hPa 0,0 l/m 6,5 km/h (2 Bft) NO 42 0 min 0,000 mm 0,0 UV-I 99 W/m 9,6 C 14,2 C 8,0 km/h (2 Bft) 100,00 %
26.10.2018 16:12 14,1 C 11,1 C 13,3 C 74 % 1006,7 hPa 0,0 l/m 7,0 km/h (2 Bft) NO 51 0 min 0,000 mm 0,0 UV-I 112 W/m 9,5 C 13,7 C 8,0 km/h (2 Bft) 97,87 %
26.10.2018 16:14 14,1 C 11,1 C 13,3 C 74 % 1006,7 hPa 0,0 l/m 6,9 km/h (2 Bft) NO 54 2 min 0,000 mm 0,0 UV-I 148 W/m 9,5 C 13,8 C 9,7 km/h (2 Bft) 100,00 %
26.10.2018 16:16 14,1 C 11,1 C 13,3 C 74 % 1006,7 hPa 0,0 l/m 4,5 km/h (1 Bft) O-NO 57 2 min 0,000 mm 0,0 UV-I 150 W/m 9,5 C 14,1 C 6,4 km/h (2 Bft) 100,00 %
26.10.2018 16:18 14,1 C 11,1 C 13,3 C 73 % 1006,7 hPa 0,0 l/m 3,0 km/h (1 Bft) O-NO 61 0 min 0,000 mm 0,0 UV-I 129 W/m 9,3 C 14,1 C 4,8 km/h (1 Bft) 98,00 %
26.10.2018 16:20 14,1 C 11,1 C 13,9 C 73 % 1006,7 hPa 0,0 l/m 3,5 km/h (1 Bft) O-NO 61 2 min 0,000 mm 0,0 UV-I 137 W/m 9,3 C 14,1 C 4,8 km/h (1 Bft) 97,87 %
26.10.2018 16:22 14,1 C 11,1 C 13,9 C 74 % 1006,7 hPa 0,0 l/m 4,6 km/h (1 Bft) O-NO 60 2 min 0,000 mm 0,0 UV-I 145 W/m 9,5 C 14,1 C 6,4 km/h (2 Bft) 97,87 %
26.10.2018 16:24 14,1 C 11,1 C 13,3 C 74 % 1006,6 hPa 0,0 l/m 5,2 km/h (1 Bft) O-NO 60 2 min 0,000 mm 0,0 UV-I 167 W/m 9,5 C 14,1 C 6,4 km/h (2 Bft) 97,73 %
26.10.2018 16:26 14,1 C 11,1 C 13,3 C 74 % 1006,5 hPa 0,0 l/m 4,6 km/h (1 Bft) O-NO 59 2 min 0,000 mm 0,0 UV-I 177 W/m 9,5 C 14,1 C 6,4 km/h (2 Bft) 95,74 %
26.10.2018 16:28 14,1 C 11,1 C 13,3 C 74 % 1006,6 hPa 0,0 l/m 3,8 km/h (1 Bft) NO 54 2 min 0,000 mm 0,0 UV-I 126 W/m 9,5 C 14,1 C 6,4 km/h (2 Bft) 96,00 %
26.10.2018 16:30 14,1 C 11,1 C 13,3 C 74 % 1006,5 hPa 0,0 l/m 4,4 km/h (1 Bft) NO 54 2 min 0,000 mm 0,0 UV-I 141 W/m 9,5 C 14,1 C 6,4 km/h (2 Bft) 94,74 %
26.10.2018 16:32 14,0 C 11,1 C 13,3 C 74 % 1006,4 hPa 0,0 l/m 4,4 km/h (1 Bft) NO 54 2 min 0,000 mm 0,0 UV-I 149 W/m 9,4 C 14,0 C 6,4 km/h (2 Bft) 97,37 %
26.10.2018 16:34 14,0 C 11,1 C 12,8 C 74 % 1006,4 hPa 0,0 l/m 3,8 km/h (1 Bft) NO 54 2 min 0,000 mm 0,0 UV-I 135 W/m 9,4 C 14,0 C 4,8 km/h (1 Bft) 94,64 %
26.10.2018 16:36 13,9 C 11,1 C 12,8 C 74 % 1006,4 hPa 0,0 l/m 4,8 km/h (1 Bft) NO 54 2 min 0,000 mm 0,0 UV-I 149 W/m 9,3 C 13,9 C 6,4 km/h (2 Bft) 98,21 %
26.10.2018 16:38 13,9 C 11,1 C 12,8 C 75 % 1006,4 hPa 0,0 l/m 4,2 km/h (1 Bft) NO 53 2 min 0,000 mm 0,0 UV-I 123 W/m 9,5 C 13,9 C 6,4 km/h (2 Bft) 97,87 %
26.10.2018 16:40 13,9 C 11,1 C 12,8 C 74 % 1006,4 hPa 0,0 l/m 4,0 km/h (1 Bft) NO 53 2 min 0,000 mm 0,0 UV-I 121 W/m 9,3 C 13,9 C 4,8 km/h (1 Bft) 97,22 %
26.10.2018 16:42 13,9 C 11,1 C 12,2 C 74 % 1006,4 hPa 0,0 l/m 4,0 km/h (1 Bft) NO 53 2 min 0,000 mm 0,0 UV-I 110 W/m 9,3 C 13,9 C 6,4 km/h (2 Bft) 94,00 %
26.10.2018 16:44 13,9 C 11,1 C 12,2 C 74 % 1006,4 hPa 0,0 l/m 4,2 km/h (1 Bft) NO 53 2 min 0,000 mm 0,0 UV-I 122 W/m 9,3 C 13,9 C 4,8 km/h (1 Bft) 97,87 %
26.10.2018 16:46 13,8 C 11,1 C 12,2 C 73 % 1006,4 hPa 0,0 l/m 3,1 km/h (1 Bft) NO 53 2 min 0,000 mm 0,0 UV-I 135 W/m 9,0 C 13,8 C 4,8 km/h (1 Bft) 100,00 %
26.10.2018 16:48 13,9 C 11,1 C 12,2 C 74 % 1006,4 hPa 0,0 l/m 4,1 km/h (1 Bft) NO 53 2 min 0,000 mm 0,0 UV-I 134 W/m 9,3 C 13,9 C 6,4 km/h (2 Bft) 100,00 %
26.10.2018 16:50 13,9 C 11,1 C 12,2 C 74 % 1006,5 hPa 0,0 l/m 3,1 km/h (1 Bft) NO 53 2 min 0,000 mm 0,0 UV-I 129 W/m 9,3 C 13,9 C 4,8 km/h (1 Bft) 100,00 %
26.10.2018 16:52 13,9 C 11,1 C 12,2 C 74 % 1006,4 hPa 0,0 l/m 4,1 km/h (1 Bft) NO 53 2 min 0,000 mm 0,0 UV-I 123 W/m 9,3 C 13,9 C 6,4 km/h (2 Bft) 97,87 %
26.10.2018 16:54 13,9 C 11,1 C 11,7 C 74 % 1006,4 hPa 0,0 l/m 4,5 km/h (1 Bft) O-NO 62 2 min 0,000 mm 0,0 UV-I 116 W/m 9,3 C 13,9 C 6,4 km/h (2 Bft) 100,00 %
26.10.2018 16:56 13,9 C 11,1 C 12,2 C 74 % 1006,4 hPa 0,0 l/m 4,9 km/h (1 Bft) O-NO 63 2 min 0,000 mm 0,0 UV-I 111 W/m 9,3 C 13,9 C 6,4 km/h (2 Bft) 100,00 %
26.10.2018 16:58 13,8 C 11,1 C 11,7 C 74 % 1006,4 hPa 0,0 l/m 3,2 km/h (1 Bft) O-NO 63 2 min 0,000 mm 0,0 UV-I 105 W/m 9,2 C 13,8 C 4,8 km/h (1 Bft) 100,00 %
26.10.2018 17:00 13,8 C 11,1 C 11,7 C 74 % 1006,4 hPa 0,0 l/m 3,2 km/h (1 Bft) O-NO 63 2 min 0,076 mm 0,0 UV-I 98 W/m 9,2 C 13,8 C 4,8 km/h (1 Bft) 98,00 %
26.10.2018 17:02 13,8 C 11,1 C 11,7 C 75 % 1006,4 hPa 0,0 l/m 2,6 km/h (1 Bft) O-NO 63 2 min 0,000 mm 0,0 UV-I 95 W/m 9,4 C 13,8 C 4,8 km/h (1 Bft) 97,87 %
26.10.2018 17:04 13,8 C 11,1 C 11,7 C 74 % 1006,5 hPa 0,0 l/m 3,3 km/h (1 Bft) O-NO 63 2 min 0,000 mm 0,0 UV-I 89 W/m 9,2 C 13,8 C 4,8 km/h (1 Bft) 97,87 %
26.10.2018 17:06 13,7 C 11,1 C 11,1 C 75 % 1006,5 hPa 0,0 l/m 3,8 km/h (1 Bft) O-NO 63 2 min 0,000 mm 0,0 UV-I 84 W/m 9,3 C 13,7 C 4,8 km/h (1 Bft) 97,87 %
26.10.2018 17:08 13,6 C 11,1 C 11,1 C 76 % 1006,5 hPa 0,0 l/m 3,8 km/h (1 Bft) O-NO 63 2 min 0,000 mm 0,0 UV-I 79 W/m 9,4 C 13,6 C 4,8 km/h (1 Bft) 95,74 %
26.10.2018 17:10 13,6 C 11,1 C 11,1 C 76 % 1006,5 hPa 0,0 l/m 4,1 km/h (1 Bft) O-NO 63 2 min 0,000 mm 0,0 UV-I 76 W/m 9,4 C 13,6 C 4,8 km/h (1 Bft) 97,87 %
26.10.2018 17:12 13,6 C 11,1 C 10,6 C 76 % 1006,4 hPa 0,0 l/m 3,4 km/h (1 Bft) O-NO 61 2 min 0,000 mm 0,0 UV-I 74 W/m 9,4 C 13,6 C 4,8 km/h (1 Bft) 94,74 %
26.10.2018 17:14 13,4 C 11,1 C 10,6 C 77 % 1006,4 hPa 0,0 l/m 4,4 km/h (1 Bft) NO 50 2 min 0,000 mm 0,0 UV-I 70 W/m 9,5 C 13,4 C 6,4 km/h (2 Bft) 98,00 %
26.10.2018 17:16 13,4 C 11,1 C 10,6 C 76 % 1006,3 hPa 0,0 l/m 5,1 km/h (1 Bft) NO 41 2 min 0,000 mm 0,0 UV-I 68 W/m 9,3 C 13,4 C 6,4 km/h (2 Bft) 97,87 %
26.10.2018 17:18 13,3 C 11,1 C 11,1 C 77 % 1006,4 hPa 0,0 l/m 4,6 km/h (1 Bft) NO 41 2 min 0,000 mm 0,0 UV-I 64 W/m 9,4 C 13,3 C 6,4 km/h (2 Bft) 96,23 %
26.10.2018 17:20 13,3 C 11,1 C 11,1 C 76 % 1006,4 hPa 0,0 l/m 4,2 km/h (1 Bft) NO 41 2 min 0,000 mm 0,0 UV-I 60 W/m 9,2 C 13,3 C 4,8 km/h (1 Bft) 97,87 %
26.10.2018 17:22 13,2 C 11,1 C 10,6 C 77 % 1006,4 hPa 0,0 l/m 4,5 km/h (1 Bft) NO 41 2 min 0,000 mm 0,0 UV-I 56 W/m 9,3 C 13,2 C 6,4 km/h (2 Bft) 97,22 %
26.10.2018 17:24 13,1 C 11,1 C 10,6 C 77 % 1006,4 hPa 0,0 l/m 4,0 km/h (1 Bft) NO 41 2 min 0,000 mm 0,0 UV-I 57 W/m 9,2 C 13,1 C 4,8 km/h (1 Bft) 97,87 %
26.10.2018 17:26 13,1 C 11,1 C 10,6 C 77 % 1006,3 hPa 0,0 l/m 3,9 km/h (1 Bft) NO 41 2 min 0,000 mm 0,0 UV-I 53 W/m 9,2 C 13,1 C 4,8 km/h (1 Bft) 97,87 %
26.10.2018 17:28 13,0 C 11,1 C 10,6 C 78 % 1006,4 hPa 0,0 l/m 3,4 km/h (1 Bft) NO 41 2 min 0,000 mm 0,0 UV-I 51 W/m 9,3 C 13,0 C 4,8 km/h (1 Bft) 95,74 %
26.10.2018 17:30 12,9 C 11,1 C 10,0 C 78 % 1006,3 hPa 0,0 l/m 2,6 km/h (1 Bft) NO 41 2 min 0,000 mm 0,0 UV-I 47 W/m 9,2 C 12,9 C 3,2 km/h (1 Bft) 98,00 %
26.10.2018 17:32 12,8 C 11,1 C 10,0 C 78 % 1006,4 hPa 0,0 l/m 2,9 km/h (1 Bft) NO 41 2 min 0,000 mm 0,0 UV-I 43 W/m 9,1 C 12,8 C 4,8 km/h (1 Bft) 97,87 %
26.10.2018 17:34 12,8 C 11,1 C 9,4 C 78 % 1006,3 hPa 0,0 l/m 3,7 km/h (1 Bft) NO 46 2 min 0,000 mm 0,0 UV-I 39 W/m 9,1 C 12,8 C 4,8 km/h (1 Bft) 95,74 %
26.10.2018 17:36 12,8 C 11,1 C 8,9 C 78 % 1006,3 hPa 0,0 l/m 3,3 km/h (1 Bft) NO 46 2 min 0,000 mm 0,0 UV-I 33 W/m 9,1 C 12,8 C 4,8 km/h (1 Bft) 95,74 %
26.10.2018 17:38 12,7 C 11,1 C 8,9 C 78 % 1006,4 hPa 0,0 l/m 3,0 km/h (1 Bft) NO 46 2 min 0,000 mm 0,0 UV-I 25 W/m 9,0 C 12,7 C 4,8 km/h (1 Bft) 98,00 %
26.10.2018 17:40 12,6 C 11,1 C 8,3 C 78 % 1006,4 hPa 0,0 l/m 2,1 km/h (1 Bft) NO 46 2 min 0,000 mm 0,0 UV-I 25 W/m 8,9 C 12,6 C 3,2 km/h (1 Bft) 95,74 %
26.10.2018 17:42 12,6 C 11,1 C 7,8 C 78 % 1006,3 hPa 0,0 l/m 2,5 km/h (1 Bft) NO 46 2 min 0,000 mm 0,0 UV-I 21 W/m 8,9 C 12,6 C 3,2 km/h (1 Bft) 97,87 %
26.10.2018 17:44 12,6 C 11,1 C 7,8 C 79 % 1006,3 hPa 0,0 l/m 2,2 km/h (1 Bft) NO 46 2 min 0,000 mm 0,0 UV-I 19 W/m 9,1 C 12,6 C 3,2 km/h (1 Bft) 98,00 %
26.10.2018 17:46 12,4 C 11,1 C 7,2 C 79 % 1006,3 hPa 0,0 l/m 2,4 km/h (1 Bft) NO 46 0 min 0,000 mm 0,0 UV-I 15 W/m 8,9 C 12,4 C 3,2 km/h (1 Bft) 97,14 %
26.10.2018 17:48 12,4 C 11,1 C 6,7 C 79 % 1006,3 hPa 0,0 l/m 2,5 km/h (1 Bft) NO 46 0 min 0,000 mm 0,0 UV-I 12 W/m 8,9 C 12,4 C 3,2 km/h (1 Bft) 98,00 %
26.10.2018 17:50 12,3 C 11,1 C 6,7 C 79 % 1006,4 hPa 0,0 l/m 2,3 km/h (1 Bft) NO 46 0 min 0,000 mm 0,0 UV-I 12 W/m 8,8 C 12,3 C 3,2 km/h (1 Bft) 98,00 %
26.10.2018 17:52 12,3 C 11,1 C 6,1 C 79 % 1006,4 hPa 0,0 l/m 1,5 km/h (1 Bft) NO 46 0 min 0,000 mm 0,0 UV-I 11 W/m 8,8 C 12,3 C 3,2 km/h (1 Bft) 95,74 %
26.10.2018 17:54 12,3 C 11,1 C 6,1 C 79 % 1006,4 hPa 0,0 l/m 1,6 km/h (1 Bft) NO 46 0 min 0,000 mm 0,0 UV-I 9 W/m 8,8 C 12,3 C 3,2 km/h (1 Bft) 97,87 %
26.10.2018 17:56 12,2 C 11,1 C 5,6 C 80 % 1006,4 hPa 0,0 l/m 1,7 km/h (1 Bft) NO 46 0 min 0,000 mm 0,0 UV-I 9 W/m 8,9 C 12,2 C 3,2 km/h (1 Bft) 98,00 %
26.10.2018 17:58 12,1 C 11,1 C 5,6 C 80 % 1006,4 hPa 0,0 l/m 1,8 km/h (1 Bft) NO 46 0 min 0,000 mm 0,0 UV-I 7 W/m 8,8 C 12,1 C 3,2 km/h (1 Bft) 95,83 %
26.10.2018 18:00 12,0 C 11,1 C 5,6 C 81 % 1006,4 hPa 0,0 l/m 1,6 km/h (1 Bft) NO 46 0 min 0,000 mm 0,0 UV-I 7 W/m 8,8 C 12,0 C 3,2 km/h (1 Bft) 95,74 %
26.10.2018 18:02 11,9 C 11,1 C 5,0 C 81 % 1006,3 hPa 0,0 l/m 1,7 km/h (1 Bft) NO 46 0 min 0,026 mm 0,0 UV-I 6 W/m 8,7 C 11,9 C 3,2 km/h (1 Bft) 97,37 %
26.10.2018 18:04 11,7 C 11,1 C 5,0 C 81 % 1006,3 hPa 0,0 l/m 1,6 km/h (1 Bft) NO 46 0 min 0,000 mm 0,0 UV-I 5 W/m 8,5 C 11,7 C 1,6 km/h (1 Bft) 95,74 %
26.10.2018 18:06 11,4 C 11,1 C 5,0 C 83 % 1006,3 hPa 0,0 l/m 1,4 km/h (1 Bft) NO 46 0 min 0,000 mm 0,0 UV-I 5 W/m 8,6 C 11,4 C 3,2 km/h (1 Bft) 97,87 %
26.10.2018 18:08 11,3 C 11,1 C 5,0 C 83 % 1006,3 hPa 0,0 l/m 2,0 km/h (1 Bft) NO 46 0 min 0,000 mm 0,0 UV-I 5 W/m 8,5 C 11,3 C 3,2 km/h (1 Bft) 100,00 %
26.10.2018 18:10 11,2 C 11,1 C 5,0 C 84 % 1006,3 hPa 0,0 l/m 1,6 km/h (1 Bft) NO 46 0 min 0,000 mm 0,0 UV-I 0 W/m 8,6 C 11,2 C 3,2 km/h (1 Bft) 97,87 %
26.10.2018 18:12 11,1 C 11,1 C 5,0 C 84 % 1006,3 hPa 0,0 l/m 1,3 km/h (1 Bft) NO 46 0 min 0,000 mm 0,0 UV-I 0 W/m 8,5 C 11,1 C 3,2 km/h (1 Bft) 96,00 %
26.10.2018 18:14 11,1 C 11,1 C 4,4 C 84 % 1006,3 hPa 0,0 l/m 1,7 km/h (1 Bft) NO 46 0 min 0,000 mm 0,0 UV-I 0 W/m 8,5 C 11,1 C 3,2 km/h (1 Bft) 100,00 %
26.10.2018 18:16 11,1 C 11,1 C 5,0 C 85 % 1006,3 hPa 0,0 l/m 1,7 km/h (1 Bft) NO 46 0 min 0,000 mm 0,0 UV-I 0 W/m 8,7 C 11,1 C 3,2 km/h (1 Bft) 98,00 %
26.10.2018 18:18 11,0 C 11,1 C 5,0 C 84 % 1006,3 hPa 0,0 l/m 1,0 km/h (0 Bft) NO 46 0 min 0,000 mm 0,0 UV-I 0 W/m 8,4 C 11,0 C 1,6 km/h (1 Bft) 97,87 %
26.10.2018 18:20 10,8 C 11,1 C 5,0 C 84 % 1006,3 hPa 0,0 l/m 0,7 km/h (0 Bft) NO 46 0 min 0,000 mm 0,0 UV-I 0 W/m 8,2 C 10,8 C 1,6 km/h (1 Bft) 95,74 %
26.10.2018 18:22 10,7 C 11,1 C 5,0 C 85 % 1006,3 hPa 0,0 l/m 0,7 km/h (0 Bft) NO 46 0 min 0,000 mm 0,0 UV-I 0 W/m 8,3 C 10,7 C 1,6 km/h (1 Bft) 95,74 %
26.10.2018 18:24 10,6 C 11,1 C 5,0 C 85 % 1006,2 hPa 0,0 l/m 1,0 km/h (0 Bft) NO 46 0 min 0,000 mm 0,0 UV-I 0 W/m 8,2 C 10,6 C 1,6 km/h (1 Bft) 97,37 %
26.10.2018 18:26 10,4 C 11,1 C 5,0 C 86 % 1006,2 hPa 0,0 l/m 1,0 km/h (0 Bft) NO 46 0 min 0,000 mm 0,0 UV-I 0 W/m 8,2 C 10,4 C 1,6 km/h (1 Bft) 97,87 %
26.10.2018 18:28 10,3 C 11,1 C 5,0 C 86 % 1006,2 hPa 0,0 l/m 0,8 km/h (0 Bft) NO 46 0 min 0,000 mm 0,0 UV-I 0 W/m 8,1 C 10,3 C 1,6 km/h (1 Bft) 95,74 %
26.10.2018 18:30 10,1 C 11,1 C 5,0 C 86 % 1006,2 hPa 0,0 l/m 2,3 km/h (1 Bft) NO 46 0 min 0,000 mm 0,0 UV-I 0 W/m 7,9 C 10,1 C 3,2 km/h (1 Bft) 95,74 %
26.10.2018 18:32 9,8 C 11,1 C 5,0 C 87 % 1006,1 hPa 0,0 l/m 3,4 km/h (1 Bft) NO 49 0 min 0,000 mm 0,0 UV-I 0 W/m 7,7 C 9,8 C 4,8 km/h (1 Bft) 97,92 %
26.10.2018 18:34 9,7 C 11,1 C 5,0 C 87 % 1006,1 hPa 0,0 l/m 3,2 km/h (1 Bft) NO 49 0 min 0,000 mm 0,0 UV-I 0 W/m 7,6 C 9,7 C 4,8 km/h (1 Bft) 97,87 %
26.10.2018 18:36 9,6 C 11,1 C 4,4 C 88 % 1006,1 hPa 0,0 l/m 3,4 km/h (1 Bft) NO 49 0 min 0,000 mm 0,0 UV-I 0 W/m 7,7 C 9,6 C 4,8 km/h (1 Bft) 93,62 %
26.10.2018 18:38 9,6 C 11,1 C 4,4 C 88 % 1006,1 hPa 0,0 l/m 3,5 km/h (1 Bft) NO 49 0 min 0,000 mm 0,0 UV-I 0 W/m 7,7 C 9,6 C 4,8 km/h (1 Bft) 95,74 %
26.10.2018 18:40 9,6 C 11,1 C 3,9 C 89 % 1006,1 hPa 0,0 l/m 2,6 km/h (1 Bft) NO 49 0 min 0,000 mm 0,0 UV-I 0 W/m 7,9 C 9,6 C 3,2 km/h (1 Bft) 94,00 %
26.10.2018 18:42 9,8 C 11,1 C 3,9 C 89 % 1006,1 hPa 0,0 l/m 1,5 km/h (1 Bft) NO 49 0 min 0,000 mm 0,0 UV-I 0 W/m 8,1 C 9,8 C 3,2 km/h (1 Bft) 97,87 %
26.10.2018 18:44 9,8 C 11,1 C 3,9 C 88 % 1006,1 hPa 0,0 l/m 1,2 km/h (1 Bft) NO 49 0 min 0,000 mm 0,0 UV-I 0 W/m 7,9 C 9,8 C 1,6 km/h (1 Bft) 96,00 %
26.10.2018 18:46 9,9 C 11,1 C 3,9 C 88 % 1006,1 hPa 0,0 l/m 0,8 km/h (0 Bft) NO 49 0 min 0,000 mm 0,0 UV-I 0 W/m 8,0 C 9,9 C 1,6 km/h (1 Bft) 97,37 %
26.10.2018 18:48 9,9 C 11,1 C 3,9 C 88 % 1006,2 hPa 0,0 l/m 0,3 km/h (0 Bft) NO 49 0 min 0,000 mm 0,0 UV-I 0 W/m 8,0 C 9,9 C 1,6 km/h (1 Bft) 93,62 %
26.10.2018 18:50 9,9 C 11,1 C 3,3 C 88 % 1006,2 hPa 0,0 l/m 0,1 km/h (0 Bft) NO 49 0 min 0,000 mm 0,0 UV-I 0 W/m 8,0 C 9,9 C 1,6 km/h (1 Bft) 95,74 %
26.10.2018 18:52 9,9 C 11,1 C 3,3 C 88 % 1006,2 hPa 0,0 l/m 0,2 km/h (0 Bft) NO 49 0 min 0,000 mm 0,0 UV-I 0 W/m 8,0 C 9,9 C 1,6 km/h (1 Bft) 95,74 %
26.10.2018 18:54 9,8 C 11,1 C 3,3 C 87 % 1006,3 hPa 0,0 l/m 0,0 km/h (0 Bft) NO 49 0 min 0,000 mm 0,0 UV-I 0 W/m 7,7 C 9,8 C 0,0 km/h (0 Bft) 97,87 %
26.10.2018 18:56 9,6 C 11,1 C 3,3 C 87 % 1006,3 hPa 0,0 l/m 0,0 km/h (0 Bft) NO 49 0 min 0,000 mm 0,0 UV-I 0 W/m 7,5 C 9,6 C 0,0 km/h (0 Bft) 97,87 %
26.10.2018 18:58 9,2 C 11,1 C 3,9 C 87 % 1006,3 hPa 0,0 l/m 0,0 km/h (0 Bft) NO 49 0 min 0,000 mm 0,0 UV-I 0 W/m 7,2 C 9,2 C 0,0 km/h (0 Bft) 95,74 %
26.10.2018 19:00 9,0 C 11,1 C 3,9 C 89 % 1006,3 hPa 0,0 l/m 0,8 km/h (0 Bft) NO 49 0 min 0,000 mm 0,0 UV-I 0 W/m 7,3 C 9,0 C 1,6 km/h (1 Bft) 93,62 %
26.10.2018 19:02 8,9 C 11,1 C 3,9 C 89 % 1006,3 hPa 0,0 l/m 0,7 km/h (0 Bft) NO 49 0 min 0,000 mm 0,0 UV-I 0 W/m 7,2 C 8,9 C 1,6 km/h (1 Bft) 95,74 %
26.10.2018 19:04 8,9 C 11,1 C 3,9 C 89 % 1006,3 hPa 0,0 l/m 1,1 km/h (1 Bft) NO 49 0 min 0,000 mm 0,0 UV-I 0 W/m 7,2 C 8,9 C 1,6 km/h (1 Bft) 93,62 %
26.10.2018 19:06 8,9 C 11,1 C 3,9 C 90 % 1006,4 hPa 0,0 l/m 2,3 km/h (1 Bft) O-NO 57 0 min 0,000 mm 0,0 UV-I 0 W/m 7,4 C 8,9 C 3,2 km/h (1 Bft) 93,62 %
26.10.2018 19:08 8,9 C 11,1 C 3,3 C 90 % 1006,4 hPa 0,0 l/m 0,2 km/h (0 Bft) O-NO 57 0 min 0,000 mm 0,0 UV-I 0 W/m 7,4 C 8,9 C 1,6 km/h (1 Bft) 95,74 %
26.10.2018 19:10 8,9 C 11,1 C 3,9 C 90 % 1006,3 hPa 0,0 l/m 0,0 km/h (0 Bft) O-NO 57 0 min 0,000 mm 0,0 UV-I 0 W/m 7,4 C 8,9 C 0,0 km/h (0 Bft) 95,74 %
26.10.2018 19:12 8,8 C 11,1 C 3,9 C 90 % 1006,4 hPa 0,0 l/m 0,0 km/h (0 Bft) O-NO 57 0 min 0,000 mm 0,0 UV-I 0 W/m 7,3 C 8,8 C 0,0 km/h (0 Bft) 97,92 %
26.10.2018 19:14 9,0 C 11,1 C 3,9 C 90 % 1006,4 hPa 0,0 l/m 0,0 km/h (0 Bft) O-NO 57 0 min 0,000 mm 0,0 UV-I 0 W/m 7,4 C 9,0 C 0,0 km/h (0 Bft) 93,62 %
26.10.2018 19:16 8,9 C 11,1 C 3,9 C 89 % 1006,3 hPa 0,0 l/m 0,8 km/h (0 Bft) O-NO 57 0 min 0,000 mm 0,0 UV-I 0 W/m 7,2 C 8,9 C 3,2 km/h (1 Bft) 95,74 %
26.10.2018 19:18 8,6 C 11,1 C 3,9 C 89 % 1006,4 hPa 0,0 l/m 1,5 km/h (1 Bft) O-NO 57 0 min 0,000 mm 0,0 UV-I 0 W/m 6,9 C 8,6 C 1,6 km/h (1 Bft) 95,74 %
26.10.2018 19:20 8,5 C 11,1 C 4,4 C 90 % 1006,4 hPa 0,0 l/m 0,9 km/h (0 Bft) O-NO 57 0 min 0,000 mm 0,0 UV-I 0 W/m 7,0 C 8,5 C 1,6 km/h (1 Bft) 95,74 %
26.10.2018 19:22 8,4 C 11,1 C 4,4 C 91 % 1006,4 hPa 0,0 l/m 1,3 km/h (1 Bft) O-NO 57 0 min 0,000 mm 0,0 UV-I 0 W/m 7,0 C 8,4 C 1,6 km/h (1 Bft) 95,74 %
26.10.2018 19:24 8,3 C 11,1 C 4,4 C 90 % 1006,3 hPa 0,0 l/m 2,1 km/h (1 Bft) O-NO 57 0 min 0,000 mm 0,0 UV-I 0 W/m 6,8 C 8,3 C 3,2 km/h (1 Bft) 97,87 %
26.10.2018 19:26 8,1 C 11,1 C 4,4 C 90 % 1006,3 hPa 0,0 l/m 2,9 km/h (1 Bft) O-NO 57 0 min 0,000 mm 0,0 UV-I 0 W/m 6,6 C 8,1 C 3,2 km/h (1 Bft) 98,00 %
26.10.2018 19:28 8,0 C 11,1 C 4,4 C 91 % 1006,4 hPa 0,0 l/m 2,4 km/h (1 Bft) O-NO 57 0 min 0,000 mm 0,0 UV-I 0 W/m 6,6 C 8,0 C 3,2 km/h (1 Bft) 97,87 %
26.10.2018 19:30 7,9 C 11,1 C 4,4 C 91 % 1006,3 hPa 0,0 l/m 2,6 km/h (1 Bft) O-NO 57 0 min 0,000 mm 0,0 UV-I 0 W/m 6,5 C 7,9 C 3,2 km/h (1 Bft) 95,74 %
26.10.2018 19:32 7,9 C 11,1 C 4,4 C 92 % 1006,2 hPa 0,0 l/m 3,3 km/h (1 Bft) O-NO 57 0 min 0,000 mm 0,0 UV-I 0 W/m 6,7 C 7,9 C 4,8 km/h (1 Bft) 95,74 %
26.10.2018 19:34 7,9 C 11,1 C 3,9 C 92 % 1006,2 hPa 0,0 l/m 3,8 km/h (1 Bft) O-NO 71 0 min 0,000 mm 0,0 UV-I 0 W/m 6,7 C 7,9 C 4,8 km/h (1 Bft) 94,74 %
26.10.2018 19:36 7,9 C 11,1 C 3,9 C 92 % 1006,2 hPa 0,0 l/m 3,9 km/h (1 Bft) O-NO 71 0 min 0,000 mm 0,0 UV-I 0 W/m 6,7 C 7,9 C 4,8 km/h (1 Bft) 97,87 %
26.10.2018 19:38 8,1 C 11,1 C 3,3 C 92 % 1006,2 hPa 0,0 l/m 2,8 km/h (1 Bft) O-NO 71 0 min 0,000 mm 0,0 UV-I 0 W/m 6,9 C 8,1 C 3,2 km/h (1 Bft) 95,74 %
26.10.2018 19:40 8,2 C 11,1 C 3,3 C 92 % 1006,2 hPa 0,0 l/m 1,0 km/h (0 Bft) O-NO 71 0 min 0,000 mm 0,0 UV-I 0 W/m 7,0 C 8,2 C 1,6 km/h (1 Bft) 97,87 %
26.10.2018 19:42 8,3 C 11,1 C 3,3 C 92 % 1006,3 hPa 0,0 l/m 0,5 km/h (0 Bft) O-NO 71 0 min 0,000 mm 0,0 UV-I 0 W/m 7,1 C 8,3 C 1,6 km/h (1 Bft) 98,00 %
26.10.2018 19:44 8,4 C 11,1 C 3,3 C 92 % 1006,2 hPa 0,0 l/m 1,4 km/h (1 Bft) O-NO 71 0 min 0,000 mm 0,0 UV-I 0 W/m 7,2 C 8,4 C 3,2 km/h (1 Bft) 97,87 %
26.10.2018 19:46 8,4 C 11,1 C 3,9 C 91 % 1006,2 hPa 0,0 l/m 1,8 km/h (1 Bft) O-NO 71 0 min 0,000 mm 0,0 UV-I 0 W/m 7,0 C 8,4 C 3,2 km/h (1 Bft) 98,00 %
26.10.2018 19:48 8,2 C 11,1 C 3,9 C 90 % 1006,2 hPa 0,0 l/m 2,3 km/h (1 Bft) O-NO 71 0 min 0,000 mm 0,0 UV-I 0 W/m 6,7 C 8,2 C 3,2 km/h (1 Bft) 97,87 %
26.10.2018 19:50 8,1 C 11,1 C 3,9 C 90 % 1006,2 hPa 0,0 l/m 1,7 km/h (1 Bft) O-NO 71 0 min 0,000 mm 0,0 UV-I 0 W/m 6,6 C 8,1 C 3,2 km/h (1 Bft) 95,74 %
26.10.2018 19:52 7,9 C 11,1 C 3,9 C 91 % 1006,2 hPa 0,0 l/m 2,9 km/h (1 Bft) O-NO 71 0 min 0,000 mm 0,0 UV-I 0 W/m 6,5 C 7,9 C 3,2 km/h (1 Bft) 95,74 %
26.10.2018 19:54 7,9 C 11,1 C 3,3 C 91 % 1006,2 hPa 0,0 l/m 2,8 km/h (1 Bft) O-NO 71 0 min 0,000 mm 0,0 UV-I 0 W/m 6,5 C 7,9 C 4,8 km/h (1 Bft) 97,92 %
26.10.2018 19:56 8,0 C 11,1 C 3,3 C 92 % 1006,1 hPa 0,0 l/m 2,1 km/h (1 Bft) O-NO 71 0 min 0,000 mm 0,0 UV-I 0 W/m 6,8 C 8,0 C 3,2 km/h (1 Bft) 97,87 %
26.10.2018 19:59 7,9 C 11,1 C 3,3 C 92 % 1006,2 hPa 0,0 l/m 0,9 km/h (0 Bft) O-NO 71 0 min 0,000 mm 0,0 UV-I 0 W/m 6,7 C 7,9 C 1,6 km/h (1 Bft) 95,89 %
26.10.2018 20:00 7,9 C 11,1 C 3,3 C 92 % 1006,2 hPa 0,0 l/m 1,5 km/h (1 Bft) O-NO 71 0 min 0,000 mm 0,0 UV-I 0 W/m 6,7 C 7,9 C 1,6 km/h (1 Bft) 100,00 %
26.10.2018 20:02 8,0 C 11,1 C 3,9 C 92 % 1006,2 hPa 0,0 l/m 2,1 km/h (1 Bft) O-NO 71 0 min 0,000 mm 0,0 UV-I 0 W/m 6,8 C 8,0 C 3,2 km/h (1 Bft) 97,87 %
26.10.2018 20:04 8,1 C 11,1 C 4,4 C 92 % 1006,2 hPa 0,0 l/m 1,3 km/h (1 Bft) O-NO 71 0 min 0,000 mm 0,0 UV-I 0 W/m 6,9 C 8,1 C 3,2 km/h (1 Bft) 97,87 %
26.10.2018 20:06 8,1 C 11,1 C 3,9 C 92 % 1006,2 hPa 0,0 l/m 0,6 km/h (0 Bft) O-NO 71 0 min 0,000 mm 0,0 UV-I 0 W/m 6,9 C 8,1 C 1,6 km/h (1 Bft) 97,87 %
26.10.2018 20:09 8,2 C 11,1 C 3,3 C 92 % 1006,2 hPa 0,0 l/m 0,0 km/h (0 Bft) O-NO 71 0 min 0,000 mm 0,0 UV-I 0 W/m 7,0 C 8,2 C 0,0 km/h (0 Bft) 97,56 %
26.10.2018 20:10 8,2 C 11,1 C 3,3 C 91 % 1006,2 hPa 0,0 l/m 0,0 km/h (0 Bft) O-NO 71 0 min 0,000 mm 0,0 UV-I 0 W/m 6,8 C 8,2 C 0,0 km/h (0 Bft) 100,00 %
26.10.2018 20:12 7,9 C 11,1 C 3,3 C 91 % 1006,2 hPa 0,0 l/m 0,5 km/h (0 Bft) O-NO 71 0 min 0,000 mm 0,0 UV-I 0 W/m 6,5 C 7,9 C 1,6 km/h (1 Bft) 100,00 %
26.10.2018 20:14 7,8 C 11,1 C 2,8 C 91 % 1006,2 hPa 0,0 l/m 1,8 km/h (1 Bft) O-NO 71 0 min 0,000 mm 0,0 UV-I 0 W/m 6,4 C 7,8 C 3,2 km/h (1 Bft) 97,87 %
26.10.2018 20:16 7,8 C 11,1 C 2,8 C 91 % 1006,1 hPa 0,0 l/m 2,2 km/h (1 Bft) O-NO 71 0 min 0,000 mm 0,0 UV-I 0 W/m 6,4 C 7,8 C 3,2 km/h (1 Bft) 97,87 %
26.10.2018 20:18 7,7 C 11,1 C 2,8 C 91 % 1006,0 hPa 0,0 l/m 2,0 km/h (1 Bft) O-NO 71 0 min 0,000 mm 0,0 UV-I 0 W/m 6,3 C 7,7 C 3,2 km/h (1 Bft) 97,87 %
26.10.2018 20:20 7,6 C 11,1 C 3,3 C 91 % 1006,0 hPa 0,0 l/m 2,2 km/h (1 Bft) O-NO 71 0 min 0,000 mm 0,0 UV-I 0 W/m 6,2 C 7,6 C 3,2 km/h (1 Bft) 97,87 %
26.10.2018 20:22 7,3 C 11,1 C 3,3 C 91 % 1006,0 hPa 0,0 l/m 3,1 km/h (1 Bft) O-NO 71 0 min 0,000 mm 0,0 UV-I 0 W/m 5,9 C 7,3 C 3,2 km/h (1 Bft) 96,00 %
26.10.2018 20:24 7,3 C 11,1 C 3,3 C 92 % 1005,9 hPa 0,0 l/m 3,6 km/h (1 Bft) O-SO 102 0 min 0,000 mm 0,0 UV-I 0 W/m 6,1 C 7,3 C 4,8 km/h (1 Bft) 97,87 %
26.10.2018 20:26 7,4 C 11,1 C 3,3 C 93 % 1005,9 hPa 0,0 l/m 4,6 km/h (1 Bft) O-SO 110 0 min 0,000 mm 0,0 UV-I 0 W/m 6,3 C 7,4 C 4,8 km/h (1 Bft) 95,74 %
26.10.2018 20:28 7,5 C 11,1 C 3,9 C 93 % 1005,8 hPa 0,0 l/m 5,2 km/h (1 Bft) O-SO 111 0 min 0,000 mm 0,0 UV-I 0 W/m 6,4 C 7,5 C 6,4 km/h (2 Bft) 97,87 %
26.10.2018 20:30 7,5 C 11,1 C 3,9 C 93 % 1005,8 hPa 0,0 l/m 4,7 km/h (1 Bft) O-SO 110 0 min 0,000 mm 0,0 UV-I 0 W/m 6,4 C 7,5 C 6,4 km/h (2 Bft) 95,74 %
26.10.2018 20:32 7,6 C 11,1 C 4,4 C 93 % 1005,8 hPa 0,0 l/m 4,0 km/h (1 Bft) O-SO 110 0 min 0,000 mm 0,0 UV-I 0 W/m 6,5 C 7,6 C 6,4 km/h (2 Bft) 95,74 %
26.10.2018 20:34 7,7 C 11,1 C 4,4 C 93 % 1005,8 hPa 0,0 l/m 3,0 km/h (1 Bft) O-SO 110 0 min 0,000 mm 0,0 UV-I 0 W/m 6,6 C 7,7 C 4,8 km/h (1 Bft) 97,92 %
26.10.2018 20:36 7,8 C 11,1 C 4,4 C 93 % 1005,8 hPa 0,0 l/m 1,4 km/h (1 Bft) O-SO 110 0 min 0,000 mm 0,0 UV-I 0 W/m 6,7 C 7,8 C 3,2 km/h (1 Bft) 97,87 %
26.10.2018 20:38 7,7 C 11,1 C 3,9 C 92 % 1005,8 hPa 0,0 l/m 1,2 km/h (1 Bft) O-SO 110 0 min 0,000 mm 0,0 UV-I 0 W/m 6,5 C 7,7 C 3,2 km/h (1 Bft) 97,87 %
26.10.2018 20:40 7,7 C 11,1 C 3,3 C 93 % 1005,8 hPa 0,0 l/m 1,0 km/h (0 Bft) O-SO 110 0 min 0,000 mm 0,0 UV-I 0 W/m 6,6 C 7,7 C 3,2 km/h (1 Bft) 92,68 %
26.10.2018 20:42 7,7 C 11,1 C 3,3 C 93 % 1005,8 hPa 0,0 l/m 0,1 km/h (0 Bft) O-SO 110 0 min 0,000 mm 0,0 UV-I 0 W/m 6,6 C 7,7 C 1,6 km/h (1 Bft) 97,87 %
26.10.2018 20:44 7,7 C 11,1 C 3,3 C 92 % 1005,8 hPa 0,0 l/m 0,0 km/h (0 Bft) O-SO 110 0 min 0,000 mm 0,0 UV-I 0 W/m 6,5 C 7,7 C 0,0 km/h (0 Bft) 97,87 %
26.10.2018 20:46 7,6 C 11,1 C 3,3 C 92 % 1005,7 hPa 0,0 l/m 0,0 km/h (0 Bft) O-SO 110 0 min 0,000 mm 0,0 UV-I 0 W/m 6,4 C 7,6 C 0,0 km/h (0 Bft) 97,87 %
26.10.2018 20:48 7,4 C 11,1 C 2,8 C 92 % 1005,7 hPa 0,0 l/m 0,0 km/h (0 Bft) O-SO 110 0 min 0,000 mm 0,0 UV-I 0 W/m 6,2 C 7,4 C 0,0 km/h (0 Bft) 97,87 %
26.10.2018 20:50 7,5 C 11,1 C 2,8 C 92 % 1005,6 hPa 0,0 l/m 0,0 km/h (0 Bft) O-SO 110 0 min 0,000 mm 0,0 UV-I 0 W/m 6,3 C 7,5 C 0,0 km/h (0 Bft) 100,00 %
26.10.2018 20:52 7,5 C 11,1 C 2,8 C 92 % 1005,6 hPa 0,0 l/m 0,0 km/h (0 Bft) O-SO 110 0 min 0,000 mm 0,0 UV-I 0 W/m 6,3 C 7,5 C 0,0 km/h (0 Bft) 97,87 %
26.10.2018 20:54 7,4 C 11,1 C 3,3 C 91 % 1005,5 hPa 0,0 l/m 0,0 km/h (0 Bft) O-SO 110 0 min 0,000 mm 0,0 UV-I 0 W/m 6,0 C 7,4 C 0,0 km/h (0 Bft) 95,74 %
26.10.2018 20:56 7,4 C 11,1 C 3,3 C 91 % 1005,5 hPa 0,0 l/m 0,0 km/h (0 Bft) O-SO 110 0 min 0,000 mm 0,0 UV-I 0 W/m 6,0 C 7,4 C 0,0 km/h (0 Bft) 100,00 %
26.10.2018 20:58 7,3 C 11,1 C 3,9 C 91 % 1005,5 hPa 0,0 l/m 1,4 km/h (1 Bft) O-SO 111 0 min 0,000 mm 0,0 UV-I 0 W/m 5,9 C 7,3 C 3,2 km/h (1 Bft) 100,00 %
26.10.2018 21:00 7,2 C 11,1 C 3,9 C 91 % 1005,5 hPa 0,0 l/m 3,1 km/h (1 Bft) O-SO 111 0 min 0,000 mm 0,0 UV-I 0 W/m 5,8 C 7,2 C 4,8 km/h (1 Bft) 97,87 %
26.10.2018 21:02 7,1 C 11,1 C 3,3 C 92 % 1005,5 hPa 0,0 l/m 3,1 km/h (1 Bft) O-SO 111 0 min 0,000 mm 0,0 UV-I 0 W/m 5,9 C 7,1 C 3,2 km/h (1 Bft) 100,00 %
26.10.2018 21:04 7,1 C 11,1 C 3,3 C 92 % 1005,6 hPa 0,0 l/m 2,9 km/h (1 Bft) O-SO 111 0 min 0,000 mm 0,0 UV-I 0 W/m 5,9 C 7,1 C 3,2 km/h (1 Bft) 100,00 %
26.10.2018 21:06 7,1 C 11,1 C 3,9 C 93 % 1005,5 hPa 0,0 l/m 2,9 km/h (1 Bft) O-SO 111 0 min 0,000 mm 0,0 UV-I 0 W/m 6,0 C 7,1 C 3,2 km/h (1 Bft) 100,00 %
26.10.2018 21:08 6,9 C 11,1 C 3,3 C 92 % 1005,5 hPa 0,0 l/m 3,5 km/h (1 Bft) O-SO 111 0 min 0,000 mm 0,0 UV-I 0 W/m 5,7 C 6,9 C 4,8 km/h (1 Bft) 100,00 %
26.10.2018 21:10 6,7 C 11,1 C 3,3 C 92 % 1005,4 hPa 0,0 l/m 3,8 km/h (1 Bft) O-SO 111 0 min 0,000 mm 0,0 UV-I 0 W/m 5,5 C 6,7 C 4,8 km/h (1 Bft) 100,00 %
26.10.2018 21:12 6,8 C 11,1 C 3,3 C 93 % 1005,5 hPa 0,0 l/m 3,9 km/h (1 Bft) O-SO 111 0 min 0,000 mm 0,0 UV-I 0 W/m 5,7 C 6,8 C 4,8 km/h (1 Bft) 97,92 %
26.10.2018 21:14 6,9 C 11,1 C 3,3 C 93 % 1005,4 hPa 0,0 l/m 1,8 km/h (1 Bft) O-SO 111 0 min 0,000 mm 0,0 UV-I 0 W/m 5,8 C 6,9 C 3,2 km/h (1 Bft) 100,00 %
26.10.2018 21:16 7,1 C 11,1 C 3,3 C 94 % 1005,4 hPa 0,0 l/m 1,3 km/h (1 Bft) O-SO 111 0 min 0,000 mm 0,0 UV-I 0 W/m 6,2 C 7,1 C 1,6 km/h (1 Bft) 100,00 %
26.10.2018 21:18 7,1 C 11,1 C 3,3 C 93 % 1005,4 hPa 0,0 l/m 0,8 km/h (0 Bft) O-SO 111 0 min 0,000 mm 0,0 UV-I 0 W/m 6,0 C 7,1 C 1,6 km/h (1 Bft) 100,00 %
26.10.2018 21:20 7,2 C 11,1 C 3,9 C 93 % 1005,4 hPa 0,0 l/m 2,2 km/h (1 Bft) O-SO 111 0 min 0,000 mm 0,0 UV-I 0 W/m 6,1 C 7,2 C 3,2 km/h (1 Bft) 98,00 %
26.10.2018 21:22 7,3 C 11,1 C 3,9 C 93 % 1005,4 hPa 0,0 l/m 2,0 km/h (1 Bft) O-SO 111 0 min 0,000 mm 0,0 UV-I 0 W/m 6,2 C 7,3 C 3,2 km/h (1 Bft) 100,00 %
26.10.2018 21:24 7,4 C 11,1 C 3,9 C 94 % 1005,4 hPa 0,0 l/m 2,2 km/h (1 Bft) W-SW 244 0 min 0,000 mm 0,0 UV-I 0 W/m 6,5 C 7,4 C 4,8 km/h (1 Bft) 100,00 %
26.10.2018 21:26 7,4 C 11,1 C 4,4 C 94 % 1005,4 hPa 0,0 l/m 2,9 km/h (1 Bft) W-SW 243 0 min 0,000 mm 0,0 UV-I 0 W/m 6,5 C 7,4 C 4,8 km/h (1 Bft) 100,00 %
26.10.2018 21:28 7,6 C 11,1 C 5,0 C 94 % 1005,4 hPa 0,0 l/m 3,0 km/h (1 Bft) W-SW 243 0 min 0,000 mm 0,0 UV-I 0 W/m 6,7 C 7,6 C 3,2 km/h (1 Bft) 97,87 %
26.10.2018 21:30 7,5 C 11,1 C 5,6 C 93 % 1005,4 hPa 0,0 l/m 2,4 km/h (1 Bft) W-SW 243 0 min 0,000 mm 0,0 UV-I 0 W/m 6,4 C 7,5 C 3,2 km/h (1 Bft) 97,87 %
26.10.2018 21:32 7,3 C 11,1 C 5,6 C 93 % 1005,5 hPa 0,0 l/m 1,7 km/h (1 Bft) W-SW 243 0 min 0,000 mm 0,0 UV-I 0 W/m 6,2 C 7,3 C 3,2 km/h (1 Bft) 97,87 %
26.10.2018 21:34 7,3 C 11,1 C 5,6 C 93 % 1005,5 hPa 0,0 l/m 1,9 km/h (1 Bft) W-SW 243 0 min 0,000 mm 0,0 UV-I 0 W/m 6,2 C 7,3 C 3,2 km/h (1 Bft) 97,37 %
26.10.2018 21:36 7,2 C 11,1 C 5,0 C 93 % 1005,5 hPa 0,0 l/m 3,4 km/h (1 Bft) W-SW 243 0 min 0,000 mm 0,0 UV-I 0 W/m 6,1 C 7,2 C 4,8 km/h (1 Bft) 98,00 %
26.10.2018 21:38 7,4 C 11,1 C 5,6 C 93 % 1005,4 hPa 0,0 l/m 3,7 km/h (1 Bft) W-SW 243 0 min 0,000 mm 0,0 UV-I 0 W/m 6,3 C 7,4 C 4,8 km/h (1 Bft) 96,00 %
26.10.2018 21:40 7,4 C 11,1 C 5,6 C 93 % 1005,4 hPa 0,0 l/m 3,1 km/h (1 Bft) W-SW 243 0 min 0,000 mm 0,0 UV-I 0 W/m 6,3 C 7,4 C 4,8 km/h (1 Bft) 96,00 %
26.10.2018 21:42 7,4 C 11,1 C 5,6 C 93 % 1005,4 hPa 0,0 l/m 2,5 km/h (1 Bft) W-SW 243 0 min 0,000 mm 0,0 UV-I 0 W/m 6,3 C 7,4 C 3,2 km/h (1 Bft) 94,74 %
26.10.2018 21:44 7,6 C 11,1 C 5,6 C 93 % 1005,4 hPa 0,0 l/m 3,7 km/h (1 Bft) W-SW 243 0 min 0,000 mm 0,0 UV-I 0 W/m 6,5 C 7,6 C 4,8 km/h (1 Bft) 95,74 %
26.10.2018 21:46 7,6 C 11,1 C 5,6 C 93 % 1005,4 hPa 0,0 l/m 3,2 km/h (1 Bft) W-SW 243 0 min 0,000 mm 0,0 UV-I 0 W/m 6,5 C 7,6 C 4,8 km/h (1 Bft) 97,22 %
26.10.2018 21:49 7,4 C 11,1 C 5,0 C 93 % 1005,6 hPa 0,0 l/m 3,6 km/h (1 Bft) W-SW 243 0 min 0,000 mm 0,0 UV-I 0 W/m 6,3 C 7,4 C 4,8 km/h (1 Bft) 96,47 %
26.10.2018 21:50 7,4 C 11,1 C 5,0 C 93 % 1005,6 hPa 0,0 l/m 2,4 km/h (1 Bft) W-SW 243 0 min 0,000 mm 0,0 UV-I 0 W/m 6,3 C 7,4 C 3,2 km/h (1 Bft) 95,83 %
26.10.2018 21:52 7,6 C 11,1 C 5,0 C 93 % 1005,6 hPa 0,0 l/m 2,6 km/h (1 Bft) W-SW 243 0 min 0,000 mm 0,0 UV-I 0 W/m 6,5 C 7,6 C 3,2 km/h (1 Bft) 93,62 %
26.10.2018 21:54 7,6 C 11,1 C 5,0 C 94 % 1005,5 hPa 0,0 l/m 3,2 km/h (1 Bft) W-SW 243 0 min 0,000 mm 0,0 UV-I 0 W/m 6,7 C 7,6 C 4,8 km/h (1 Bft) 95,74 %
26.10.2018 21:56 7,6 C 11,1 C 5,0 C 93 % 1005,6 hPa 0,0 l/m 3,2 km/h (1 Bft) W-SW 243 0 min 0,000 mm 0,0 UV-I 0 W/m 6,5 C 7,6 C 4,8 km/h (1 Bft) 91,49 %
26.10.2018 21:59 7,5 C 11,1 C 4,4 C 93 % 1005,5 hPa 0,0 l/m 1,5 km/h (1 Bft) W-SW 243 0 min 0,000 mm 0,0 UV-I 0 W/m 6,4 C 7,5 C 3,2 km/h (1 Bft) 95,71 %
26.10.2018 22:00 7,5 C 11,1 C 4,4 C 93 % 1005,5 hPa 0,0 l/m 0,5 km/h (0 Bft) W-SW 243 0 min 0,000 mm 0,0 UV-I 0 W/m 6,4 C 7,5 C 1,6 km/h (1 Bft) 91,67 %
26.10.2018 22:02 7,3 C 11,1 C 3,9 C 93 % 1005,5 hPa 0,0 l/m 0,6 km/h (0 Bft) W-SW 243 0 min 0,000 mm 0,0 UV-I 0 W/m 6,2 C 7,3 C 1,6 km/h (1 Bft) 95,74 %
26.10.2018 22:04 7,4 C 11,1 C 3,3 C 93 % 1005,5 hPa 0,0 l/m 0,3 km/h (0 Bft) W-SW 243 0 min 0,000 mm 0,0 UV-I 0 W/m 6,3 C 7,4 C 1,6 km/h (1 Bft) 94,00 %
26.10.2018 22:06 7,4 C 11,1 C 3,3 C 94 % 1005,4 hPa 0,0 l/m 0,0 km/h (0 Bft) W-SW 243 0 min 0,000 mm 0,0 UV-I 0 W/m 6,5 C 7,4 C 0,0 km/h (0 Bft) 95,74 %
26.10.2018 22:08 7,4 C 11,1 C 3,3 C 94 % 1005,5 hPa 0,0 l/m 2,4 km/h (1 Bft) W-SW 243 0 min 0,000 mm 0,0 UV-I 0 W/m 6,5 C 7,4 C 3,2 km/h (1 Bft) 92,11 %
26.10.2018 22:10 7,5 C 11,1 C 3,9 C 94 % 1005,6 hPa 0,0 l/m 4,7 km/h (1 Bft) W-SW 242 0 min 0,000 mm 0,0 UV-I 0 W/m 6,6 C 7,5 C 8,0 km/h (2 Bft) 93,62 %
26.10.2018 22:12 7,3 C 11,1 C 4,4 C 93 % 1005,7 hPa 0,0 l/m 6,0 km/h (2 Bft) SW 223 0 min 0,000 mm 0,0 UV-I 0 W/m 6,2 C 7,3 C 8,0 km/h (2 Bft) 93,62 %
26.10.2018 22:14 7,1 C 11,1 C 5,0 C 93 % 1005,8 hPa 0,0 l/m 6,5 km/h (2 Bft) SW 227 0 min 0,000 mm 0,0 UV-I 0 W/m 6,0 C 7,0 C 8,0 km/h (2 Bft) 91,49 %
26.10.2018 22:16 6,9 C 11,1 C 5,0 C 93 % 1005,9 hPa 0,0 l/m 6,8 km/h (2 Bft) S-SW 209 0 min 0,000 mm 0,0 UV-I 0 W/m 5,8 C 6,6 C 8,0 km/h (2 Bft) 93,62 %
26.10.2018 22:19 6,9 C 11,1 C 5,0 C 94 % 1006,0 hPa 0,0 l/m 7,0 km/h (2 Bft) SW 219 0 min 0,000 mm 0,0 UV-I 0 W/m 6,0 C 6,4 C 9,7 km/h (2 Bft) 97,30 %
26.10.2018 22:20 6,9 C 11,1 C 5,0 C 94 % 1006,0 hPa 0,0 l/m 6,2 km/h (2 Bft) SW 214 0 min 0,000 mm 0,0 UV-I 0 W/m 6,0 C 6,9 C 8,0 km/h (2 Bft) 91,30 %
26.10.2018 22:22 6,9 C 11,1 C 5,6 C 94 % 1006,0 hPa 0,0 l/m 6,6 km/h (2 Bft) S-SW 199 0 min 0,000 mm 0,0 UV-I 0 W/m 6,0 C 6,8 C 9,7 km/h (2 Bft) 93,62 %
26.10.2018 22:24 7,1 C 11,1 C 5,6 C 94 % 1005,9 hPa 0,0 l/m 6,1 km/h (2 Bft) S-SW 209 0 min 0,000 mm 0,0 UV-I 0 W/m 6,2 C 7,1 C 9,7 km/h (2 Bft) 93,62 %
26.10.2018 22:26 7,2 C 11,1 C 5,6 C 94 % 1005,8 hPa 0,0 l/m 4,7 km/h (1 Bft) S-SW 200 0 min 0,000 mm 0,0 UV-I 0 W/m 6,3 C 7,2 C 6,4 km/h (2 Bft) 93,75 %
26.10.2018 22:28 7,3 C 11,1 C 5,0 C 95 % 1005,8 hPa 0,0 l/m 2,3 km/h (1 Bft) S-SW 200 0 min 0,000 mm 0,0 UV-I 0 W/m 6,6 C 7,3 C 4,8 km/h (1 Bft) 91,49 %
26.10.2018 22:30 7,3 C 11,1 C 3,9 C 95 % 1005,8 hPa 0,0 l/m 2,1 km/h (1 Bft) S-SW 200 0 min 0,000 mm 0,0 UV-I 0 W/m 6,6 C 7,3 C 3,2 km/h (1 Bft) 95,74 %
26.10.2018 22:32 7,5 C 11,1 C 3,3 C 95 % 1005,7 hPa 0,0 l/m 1,7 km/h (1 Bft) S-SW 200 0 min 0,000 mm 0,0 UV-I 0 W/m 6,8 C 7,5 C 3,2 km/h (1 Bft) 93,62 %
26.10.2018 22:34 7,6 C 11,1 C 2,8 C 95 % 1005,7 hPa 0,0 l/m 1,8 km/h (1 Bft) S-SW 200 0 min 0,000 mm 0,0 UV-I 0 W/m 6,9 C 7,6 C 3,2 km/h (1 Bft) 91,49 %
26.10.2018 22:36 7,6 C 11,1 C 3,3 C 94 % 1005,8 hPa 0,0 l/m 2,7 km/h (1 Bft) S-SW 200 0 min 0,000 mm 0,0 UV-I 0 W/m 6,7 C 7,6 C 3,2 km/h (1 Bft) 100,00 %
26.10.2018 22:38 7,3 C 11,1 C 3,9 C 94 % 1005,7 hPa 0,0 l/m 1,7 km/h (1 Bft) S-SW 200 0 min 0,000 mm 0,0 UV-I 0 W/m 6,4 C 7,3 C 3,2 km/h (1 Bft) 97,87 %
26.10.2018 22:40 7,3 C 11,1 C 4,4 C 94 % 1005,8 hPa 0,0 l/m 1,6 km/h (1 Bft) S-SW 200 0 min 0,000 mm 0,0 UV-I 0 W/m 6,4 C 7,3 C 6,4 km/h (2 Bft) 97,87 %
26.10.2018 22:42 7,2 C 11,1 C 4,4 C 94 % 1005,8 hPa 0,0 l/m 4,6 km/h (1 Bft) S-SW 200 0 min 0,000 mm 0,0 UV-I 0 W/m 6,3 C 7,2 C 6,4 km/h (2 Bft) 100,00 %
26.10.2018 22:44 7,2 C 11,1 C 4,4 C 94 % 1005,9 hPa 0,0 l/m 3,5 km/h (1 Bft) S-SW 200 0 min 0,000 mm 0,0 UV-I 0 W/m 6,3 C 7,2 C 4,8 km/h (1 Bft) 95,16 %
26.10.2018 22:46 7,1 C 11,1 C 3,9 C 94 % 1005,8 hPa 0,0 l/m 3,5 km/h (1 Bft) S-SW 200 0 min 0,000 mm 0,0 UV-I 0 W/m 6,2 C 7,1 C 4,8 km/h (1 Bft) 95,74 %
26.10.2018 22:48 7,0 C 11,1 C 3,3 C 94 % 1005,9 hPa 0,0 l/m 2,9 km/h (1 Bft) S-SW 199 0 min 0,000 mm 0,0 UV-I 0 W/m 6,1 C 7,0 C 3,2 km/h (1 Bft) 95,74 %
26.10.2018 22:50 6,9 C 11,1 C 2,8 C 94 % 1005,9 hPa 0,0 l/m 2,3 km/h (1 Bft) S-SW 199 0 min 0,000 mm 0,0 UV-I 0 W/m 6,0 C 6,9 C 3,2 km/h (1 Bft) 95,74 %
26.10.2018 22:52 6,9 C 11,1 C 2,2 C 94 % 1005,9 hPa 0,0 l/m 3,5 km/h (1 Bft) S-SW 199 0 min 0,000 mm 0,0 UV-I 0 W/m 6,0 C 6,9 C 4,8 km/h (1 Bft) 95,74 %
26.10.2018 22:54 6,8 C 11,1 C 2,2 C 94 % 1005,9 hPa 0,0 l/m 2,7 km/h (1 Bft) S-SW 199 0 min 0,000 mm 0,0 UV-I 0 W/m 5,9 C 6,8 C 4,8 km/h (1 Bft) 98,00 %
26.10.2018 22:56 6,8 C 11,1 C 1,7 C 94 % 1005,8 hPa 0,0 l/m 1,5 km/h (1 Bft) S-SW 199 0 min 0,000 mm 0,0 UV-I 0 W/m 5,9 C 6,8 C 3,2 km/h (1 Bft) 93,62 %
26.10.2018 22:58 6,8 C 11,1 C 1,7 C 94 % 1005,8 hPa 0,0 l/m 1,1 km/h (1 Bft) S-SW 200 0 min 0,000 mm 0,0 UV-I 0 W/m 5,9 C 6,8 C 1,6 km/h (1 Bft) 95,74 %
26.10.2018 23:00 6,8 C 11,1 C 1,7 C 94 % 1005,9 hPa 0,0 l/m 1,9 km/h (1 Bft) S-SW 200 0 min 0,000 mm 0,0 UV-I 0 W/m 5,9 C 6,8 C 3,2 km/h (1 Bft) 97,87 %
26.10.2018 23:02 6,7 C 11,1 C 1,7 C 94 % 1005,9 hPa 0,0 l/m 2,4 km/h (1 Bft) S-SW 200 0 min 0,000 mm 0,0 UV-I 0 W/m 5,8 C 6,7 C 3,2 km/h (1 Bft) 97,73 %
26.10.2018 23:04 6,7 C 11,1 C 2,2 C 94 % 1005,8 hPa 0,0 l/m 2,3 km/h (1 Bft) S-SW 200 0 min 0,000 mm 0,0 UV-I 0 W/m 5,8 C 6,7 C 3,2 km/h (1 Bft) 95,74 %
26.10.2018 23:06 6,6 C 11,1 C 3,3 C 94 % 1005,9 hPa 0,0 l/m 3,3 km/h (1 Bft) S-SW 200 0 min 0,000 mm 0,0 UV-I 0 W/m 5,7 C 6,6 C 4,8 km/h (1 Bft) 95,83 %
26.10.2018 23:08 6,3 C 11,1 C 3,3 C 94 % 1005,8 hPa 0,0 l/m 2,7 km/h (1 Bft) S-SW 200 0 min 0,000 mm 0,0 UV-I 0 W/m 5,4 C 6,3 C 4,8 km/h (1 Bft) 97,87 %
26.10.2018 23:10 6,1 C 11,1 C 2,8 C 93 % 1005,8 hPa 0,0 l/m 3,9 km/h (1 Bft) S-SW 200 0 min 0,000 mm 0,0 UV-I 0 W/m 5,1 C 6,1 C 4,8 km/h (1 Bft) 97,87 %
26.10.2018 23:12 5,9 C 11,1 C 2,8 C 93 % 1005,8 hPa 0,0 l/m 3,4 km/h (1 Bft) S-SW 200 0 min 0,000 mm 0,0 UV-I 0 W/m 4,9 C 5,9 C 4,8 km/h (1 Bft) 100,00 %
26.10.2018 23:14 5,7 C 11,1 C 2,2 C 93 % 1005,8 hPa 0,0 l/m 2,3 km/h (1 Bft) S-SW 200 0 min 0,000 mm 0,0 UV-I 0 W/m 4,7 C 5,7 C 3,2 km/h (1 Bft) 100,00 %
26.10.2018 23:16 5,8 C 11,1 C 1,7 C 94 % 1005,8 hPa 0,0 l/m 1,3 km/h (1 Bft) S-SW 200 0 min 0,000 mm 0,0 UV-I 0 W/m 4,9 C 5,8 C 3,2 km/h (1 Bft) 100,00 %
26.10.2018 23:18 5,9 C 11,1 C 1,7 C 95 % 1005,8 hPa 0,0 l/m 1,4 km/h (1 Bft) S-SW 200 0 min 0,000 mm 0,0 UV-I 0 W/m 5,2 C 5,9 C 3,2 km/h (1 Bft) 100,00 %
26.10.2018 23:20 6,3 C 11,1 C 1,1 C 95 % 1005,7 hPa 0,0 l/m 2,7 km/h (1 Bft) S-SW 200 0 min 0,000 mm 0,0 UV-I 0 W/m 5,6 C 6,3 C 3,2 km/h (1 Bft) 100,00 %
26.10.2018 23:22 6,4 C 11,1 C 1,7 C 95 % 1005,7 hPa 0,0 l/m 1,9 km/h (1 Bft) S-SW 200 0 min 0,000 mm 0,0 UV-I 0 W/m 5,7 C 6,4 C 3,2 km/h (1 Bft) 97,87 %
26.10.2018 23:24 6,3 C 11,1 C 1,7 C 95 % 1005,7 hPa 0,0 l/m 1,8 km/h (1 Bft) S-SW 200 0 min 0,000 mm 0,0 UV-I 0 W/m 5,6 C 6,3 C 3,2 km/h (1 Bft) 100,00 %
26.10.2018 23:26 6,2 C 11,1 C 1,1 C 95 % 1005,7 hPa 0,0 l/m 1,2 km/h (1 Bft) S-SW 200 0 min 0,000 mm 0,0 UV-I 0 W/m 5,5 C 6,2 C 3,2 km/h (1 Bft) 100,00 %
26.10.2018 23:28 6,2 C 11,1 C 1,1 C 95 % 1005,7 hPa 0,0 l/m 1,6 km/h (1 Bft) S-SW 200 0 min 0,000 mm 0,0 UV-I 0 W/m 5,5 C 6,2 C 3,2 km/h (1 Bft) 100,00 %
26.10.2018 23:30 6,2 C 11,1 C 1,1 C 95 % 1005,7 hPa 0,0 l/m 1,2 km/h (1 Bft) S-SW 200 0 min 0,000 mm 0,0 UV-I 0 W/m 5,5 C 6,2 C 1,6 km/h (1 Bft) 100,00 %
26.10.2018 23:32 6,2 C 11,1 C 0,6 C 95 % 1005,8 hPa 0,0 l/m 1,4 km/h (1 Bft) S-SW 200 0 min 0,000 mm 0,0 UV-I 0 W/m 5,5 C 6,2 C 1,6 km/h (1 Bft) 97,87 %
26.10.2018 23:34 6,2 C 11,1 C 0,6 C 95 % 1005,7 hPa 0,0 l/m 1,3 km/h (1 Bft) S-SW 200 0 min 0,000 mm 0,0 UV-I 0 W/m 5,5 C 6,2 C 1,6 km/h (1 Bft) 93,62 %
26.10.2018 23:36 6,1 C 11,1 C 1,1 C 95 % 1005,8 hPa 0,0 l/m 0,8 km/h (0 Bft) S-SW 200 0 min 0,000 mm 0,0 UV-I 0 W/m 5,4 C 6,1 C 1,6 km/h (1 Bft) 100,00 %
26.10.2018 23:38 5,9 C 11,1 C 0,6 C 94 % 1005,7 hPa 0,0 l/m 0,1 km/h (0 Bft) S-SW 200 0 min 0,000 mm 0,0 UV-I 0 W/m 5,0 C 5,9 C 1,6 km/h (1 Bft) 100,00 %
26.10.2018 23:40 5,8 C 11,1 C 0,6 C 94 % 1005,8 hPa 0,0 l/m 0,0 km/h (0 Bft) S-SW 200 0 min 0,000 mm 0,0 UV-I 0 W/m 4,9 C 5,8 C 0,0 km/h (0 Bft) 100,00 %
26.10.2018 23:42 5,7 C 11,1 C 0,6 C 94 % 1005,8 hPa 0,0 l/m 0,0 km/h (0 Bft) S-SW 200 0 min 0,000 mm 0,0 UV-I 0 W/m 4,8 C 5,7 C 0,0 km/h (0 Bft) 98,00 %
26.10.2018 23:44 5,6 C 11,1 C 0,6 C 94 % 1005,9 hPa 0,0 l/m 0,2 km/h (0 Bft) S-SW 200 0 min 0,000 mm 0,0 UV-I 0 W/m 4,7 C 5,6 C 1,6 km/h (1 Bft) 100,00 %
26.10.2018 23:46 5,6 C 11,1 C 0,6 C 94 % 1005,8 hPa 0,0 l/m 0,4 km/h (0 Bft) S-SW 200 0 min 0,000 mm 0,0 UV-I 0 W/m 4,7 C 5,6 C 1,6 km/h (1 Bft) 100,00 %
26.10.2018 23:48 5,6 C 11,1 C 0,6 C 94 % 1005,8 hPa 0,0 l/m 0,0 km/h (0 Bft) S-SW 200 0 min 0,000 mm 0,0 UV-I 0 W/m 4,7 C 5,6 C 0,0 km/h (0 Bft) 97,87 %
26.10.2018 23:50 5,6 C 11,1 C 0,6 C 94 % 1005,8 hPa 0,0 l/m 0,0 km/h (0 Bft) S-SW 200 0 min 0,000 mm 0,0 UV-I 0 W/m 4,7 C 5,6 C 0,0 km/h (0 Bft) 100,00 %
26.10.2018 23:52 5,6 C 11,1 C 0,6 C 95 % 1005,8 hPa 0,0 l/m 0,6 km/h (0 Bft) S-SW 200 0 min 0,000 mm 0,0 UV-I 0 W/m 4,9 C 5,6 C 1,6 km/h (1 Bft) 100,00 %
26.10.2018 23:54 5,7 C 11,1 C 0,0 C 95 % 1005,8 hPa 0,0 l/m 0,9 km/h (0 Bft) S-SW 200 0 min 0,000 mm 0,0 UV-I 0 W/m 5,0 C 5,7 C 1,6 km/h (1 Bft) 100,00 %
26.10.2018 23:56 5,7 C 11,1 C 0,0 C 94 % 1005,8 hPa 0,0 l/m 2,4 km/h (1 Bft) S-SW 200 0 min 0,000 mm 0,0 UV-I 0 W/m 4,8 C 5,7 C 3,2 km/h (1 Bft) 100,00 %
26.10.2018 23:58 5,7 C 11,1 C 0,6 C 95 % 1005,8 hPa 0,0 l/m 3,1 km/h (1 Bft) S-SW 200 0 min 0,000 mm 0,0 UV-I 0 W/m 5,0 C 5,7 C 4,8 km/h (1 Bft) 97,87 %
_ Min-Zeit 23:44 00:00 23:54 14:42 21:10 - 09:16 - - - - - - 23:14 23:44 09:16 15:10
Minimum _ 5,6 C 11,1 C 0,0 C 65 % 1005,4 hPa - 0,0 km/h (0 Bft) - - - - - - 4,7 C 5,6 C 0,0 km/h (0 Bft) 89,36 %
_ Max-Zeit 13:48 00:00 11:12 22:28 00:06 00:00 02:22 - - 11:09 14:02 12:36 13:28 15:36 14:52 00:04 00:36
Maximum _ 15,7 C 11,1 C 22,8 C 95 % 1015,5 hPa 0,0 l/m 13,3 km/h
W-SW (3 Bft)
- - 3 min 0,280 mm 1,6 UV-I 658 W/m 9,9 C 15,7 C 19,3 km/h
SW (3 Bft)
100,00 %
Durchschnitt _ 10,7 C 11,1 C 9,8 C 83 % 1010,1 hPa #0,0 l/m 4,1 km/h (1 Bft) W-SW - #8:14 h #1,575 mm 1,1 UV-I 254 W/m 7,8 C 10,3 C 6,4 km/h (2 Bft) 96,98 %